
<gpx xmlns="http://www.topografix.com/GPX/1/1" xmlns:gpxx="http://www.garmin.com/xmlschemas/GpxExtensions/v3" xmlns:wptx1="http://www.garmin.com/xmlschemas/WaypointExtension/v1" xmlns:xsi="http://www.w3.org/2001/XMLSchema-instance" version="1.1" creator="Adze - https://getadze.com/" xsi:schemaLocation="http://www.topografix.com/GPX/1/1 http://www.topografix.com/GPX/1/1/gpx.xsd http://www.garmin.com/xmlschemas/GpxExtensions/v3 http://www8.garmin.com/xmlschemas/GpxExtensionsv3.xsd http://www.garmin.com/xmlschemas/WaypointExtension/v1 http://www8.garmin.com/xmlschemas/WaypointExtensionv1.xsd">
    <metadata>
        <name>Untitled Document</name>
        <link href="http://www.garmin.com"></link>
        <time>2018-03-05T08:21:48.309Z</time>
    </metadata>
    <wpt lon="101.406492" lat="14.216786">
        <ele>39.000000</ele>
        <name>Khao Yai Grand View</name>
        <sym>Building</sym>
        <type>user</type>
        <extensions>
            <gpxx:WaypointExtension>
                <gpxx:DisplayMode>SymbolAndName</gpxx:DisplayMode>
            </gpxx:WaypointExtension>
            <wptx1:WaypointExtension>
                <wptx1:DisplayMode>SymbolAndName</wptx1:DisplayMode>
            </wptx1:WaypointExtension>
        </extensions>
    </wpt>
    <trk>
        <name>March 2006 - Saturday</name>
        <extensions>
            <gpxx:TrackExtension>
                <gpxx:DisplayColor>DarkGray</gpxx:DisplayColor>
            </gpxx:TrackExtension>
        </extensions>
        <trkseg>
            <trkpt lon="101.406448" lat="14.216759">
                <ele>55.413086</ele>
                <time>2006-03-25T05:50:36Z</time>
            </trkpt>
            <trkpt lon="101.406448" lat="14.216759">
                <ele>55.413086</ele>
                <time>2006-03-25T05:50:36Z</time>
            </trkpt>
            <trkpt lon="101.406405" lat="14.216781">
                <ele>37.628662</ele>
                <time>2006-03-25T05:51:16Z</time>
            </trkpt>
            <trkpt lon="101.406405" lat="14.216781">
                <ele>37.628662</ele>
                <time>2006-03-25T05:51:16Z</time>
            </trkpt>
            <trkpt lon="101.406405" lat="14.216759">
                <ele>40.512817</ele>
                <time>2006-03-25T06:04:27Z</time>
            </trkpt>
            <trkpt lon="101.406405" lat="14.216759">
                <ele>40.512817</ele>
                <time>2006-03-25T06:04:27Z</time>
            </trkpt>
            <trkpt lon="101.406512" lat="14.216802">
                <ele>44.358032</ele>
                <time>2006-03-25T06:10:20Z</time>
            </trkpt>
            <trkpt lon="101.406512" lat="14.216802">
                <ele>44.358032</ele>
                <time>2006-03-25T06:10:20Z</time>
            </trkpt>
            <trkpt lon="101.406856" lat="14.216781">
                <ele>41.473999</ele>
                <time>2006-03-25T06:10:32Z</time>
            </trkpt>
            <trkpt lon="101.406856" lat="14.216781">
                <ele>41.473999</ele>
                <time>2006-03-25T06:10:32Z</time>
            </trkpt>
            <trkpt lon="101.406984" lat="14.216802">
                <ele>41.473999</ele>
                <time>2006-03-25T06:10:35Z</time>
            </trkpt>
            <trkpt lon="101.406984" lat="14.216802">
                <ele>41.473999</ele>
                <time>2006-03-25T06:10:35Z</time>
            </trkpt>
            <trkpt lon="101.407564" lat="14.217188">
                <ele>40.993408</ele>
                <time>2006-03-25T06:10:49Z</time>
            </trkpt>
            <trkpt lon="101.407564" lat="14.217188">
                <ele>40.993408</ele>
                <time>2006-03-25T06:10:49Z</time>
            </trkpt>
            <trkpt lon="101.407864" lat="14.217682">
                <ele>41.473999</ele>
                <time>2006-03-25T06:11:01Z</time>
            </trkpt>
            <trkpt lon="101.407864" lat="14.217682">
                <ele>41.473999</ele>
                <time>2006-03-25T06:11:01Z</time>
            </trkpt>
            <trkpt lon="101.408014" lat="14.217939">
                <ele>40.993408</ele>
                <time>2006-03-25T06:11:09Z</time>
            </trkpt>
            <trkpt lon="101.408014" lat="14.217939">
                <ele>40.993408</ele>
                <time>2006-03-25T06:11:09Z</time>
            </trkpt>
            <trkpt lon="101.408594" lat="14.217982">
                <ele>41.954712</ele>
                <time>2006-03-25T06:11:27Z</time>
            </trkpt>
            <trkpt lon="101.408594" lat="14.217982">
                <ele>41.954712</ele>
                <time>2006-03-25T06:11:27Z</time>
            </trkpt>
            <trkpt lon="101.408615" lat="14.217982">
                <ele>41.954712</ele>
                <time>2006-03-25T06:11:28Z</time>
            </trkpt>
            <trkpt lon="101.408615" lat="14.217982">
                <ele>41.954712</ele>
                <time>2006-03-25T06:11:28Z</time>
            </trkpt>
            <trkpt lon="101.408658" lat="14.218154">
                <ele>41.473999</ele>
                <time>2006-03-25T06:11:33Z</time>
            </trkpt>
            <trkpt lon="101.408658" lat="14.218154">
                <ele>41.473999</ele>
                <time>2006-03-25T06:11:33Z</time>
            </trkpt>
            <trkpt lon="101.408830" lat="14.219012">
                <ele>40.512817</ele>
                <time>2006-03-25T06:11:54Z</time>
            </trkpt>
            <trkpt lon="101.408830" lat="14.219012">
                <ele>40.512817</ele>
                <time>2006-03-25T06:11:54Z</time>
            </trkpt>
            <trkpt lon="101.409109" lat="14.219742">
                <ele>41.473999</ele>
                <time>2006-03-25T06:12:14Z</time>
            </trkpt>
            <trkpt lon="101.409109" lat="14.219742">
                <ele>41.473999</ele>
                <time>2006-03-25T06:12:14Z</time>
            </trkpt>
            <trkpt lon="101.409216" lat="14.220021">
                <ele>40.993408</ele>
                <time>2006-03-25T06:12:22Z</time>
            </trkpt>
            <trkpt lon="101.409216" lat="14.220021">
                <ele>40.993408</ele>
                <time>2006-03-25T06:12:22Z</time>
            </trkpt>
            <trkpt lon="101.409473" lat="14.220021">
                <ele>41.473999</ele>
                <time>2006-03-25T06:12:30Z</time>
            </trkpt>
            <trkpt lon="101.409473" lat="14.220021">
                <ele>41.473999</ele>
                <time>2006-03-25T06:12:30Z</time>
            </trkpt>
            <trkpt lon="101.409795" lat="14.220300">
                <ele>40.993408</ele>
                <time>2006-03-25T06:12:41Z</time>
            </trkpt>
            <trkpt lon="101.409795" lat="14.220300">
                <ele>40.993408</ele>
                <time>2006-03-25T06:12:41Z</time>
            </trkpt>
            <trkpt lon="101.410267" lat="14.220514">
                <ele>40.993408</ele>
                <time>2006-03-25T06:12:55Z</time>
            </trkpt>
            <trkpt lon="101.410267" lat="14.220514">
                <ele>40.993408</ele>
                <time>2006-03-25T06:12:55Z</time>
            </trkpt>
            <trkpt lon="101.410310" lat="14.220514">
                <ele>41.473999</ele>
                <time>2006-03-25T06:12:56Z</time>
            </trkpt>
            <trkpt lon="101.410310" lat="14.220514">
                <ele>41.473999</ele>
                <time>2006-03-25T06:12:56Z</time>
            </trkpt>
            <trkpt lon="101.410439" lat="14.220922">
                <ele>42.435425</ele>
                <time>2006-03-25T06:13:05Z</time>
            </trkpt>
            <trkpt lon="101.410439" lat="14.220922">
                <ele>42.435425</ele>
                <time>2006-03-25T06:13:05Z</time>
            </trkpt>
            <trkpt lon="101.410375" lat="14.221587">
                <ele>42.435425</ele>
                <time>2006-03-25T06:13:18Z</time>
            </trkpt>
            <trkpt lon="101.410375" lat="14.221587">
                <ele>42.435425</ele>
                <time>2006-03-25T06:13:18Z</time>
            </trkpt>
            <trkpt lon="101.410675" lat="14.222081">
                <ele>43.396606</ele>
                <time>2006-03-25T06:13:32Z</time>
            </trkpt>
            <trkpt lon="101.410675" lat="14.222081">
                <ele>43.396606</ele>
                <time>2006-03-25T06:13:32Z</time>
            </trkpt>
            <trkpt lon="101.410804" lat="14.222145">
                <ele>42.916016</ele>
                <time>2006-03-25T06:13:35Z</time>
            </trkpt>
            <trkpt lon="101.410804" lat="14.222145">
                <ele>42.916016</ele>
                <time>2006-03-25T06:13:35Z</time>
            </trkpt>
            <trkpt lon="101.410975" lat="14.222188">
                <ele>42.435425</ele>
                <time>2006-03-25T06:13:39Z</time>
            </trkpt>
            <trkpt lon="101.410975" lat="14.222188">
                <ele>42.435425</ele>
                <time>2006-03-25T06:13:39Z</time>
            </trkpt>
            <trkpt lon="101.412156" lat="14.222317">
                <ele>45.319214</ele>
                <time>2006-03-25T06:14:05Z</time>
            </trkpt>
            <trkpt lon="101.412156" lat="14.222317">
                <ele>45.319214</ele>
                <time>2006-03-25T06:14:05Z</time>
            </trkpt>
            <trkpt lon="101.412306" lat="14.222360">
                <ele>46.280640</ele>
                <time>2006-03-25T06:14:09Z</time>
            </trkpt>
            <trkpt lon="101.412306" lat="14.222360">
                <ele>46.280640</ele>
                <time>2006-03-25T06:14:09Z</time>
            </trkpt>
            <trkpt lon="101.412413" lat="14.222574">
                <ele>46.761230</ele>
                <time>2006-03-25T06:14:15Z</time>
            </trkpt>
            <trkpt lon="101.412413" lat="14.222574">
                <ele>46.761230</ele>
                <time>2006-03-25T06:14:15Z</time>
            </trkpt>
            <trkpt lon="101.412349" lat="14.223111">
                <ele>46.280640</ele>
                <time>2006-03-25T06:14:29Z</time>
            </trkpt>
            <trkpt lon="101.412349" lat="14.223111">
                <ele>46.280640</ele>
                <time>2006-03-25T06:14:29Z</time>
            </trkpt>
            <trkpt lon="101.412327" lat="14.223132">
                <ele>46.280640</ele>
                <time>2006-03-25T06:14:40Z</time>
            </trkpt>
            <trkpt lon="101.412327" lat="14.223132">
                <ele>46.280640</ele>
                <time>2006-03-25T06:14:40Z</time>
            </trkpt>
            <trkpt lon="101.412370" lat="14.223089">
                <ele>50.606567</ele>
                <time>2006-03-25T06:16:30Z</time>
            </trkpt>
            <trkpt lon="101.412370" lat="14.223089">
                <ele>50.606567</ele>
                <time>2006-03-25T06:16:30Z</time>
            </trkpt>
            <trkpt lon="101.412435" lat="14.222617">
                <ele>49.164551</ele>
                <time>2006-03-25T06:16:48Z</time>
            </trkpt>
            <trkpt lon="101.412435" lat="14.222617">
                <ele>49.164551</ele>
                <time>2006-03-25T06:16:48Z</time>
            </trkpt>
            <trkpt lon="101.412413" lat="14.222381">
                <ele>47.722534</ele>
                <time>2006-03-25T06:17:01Z</time>
            </trkpt>
            <trkpt lon="101.412413" lat="14.222381">
                <ele>47.722534</ele>
                <time>2006-03-25T06:17:01Z</time>
            </trkpt>
            <trkpt lon="101.412435" lat="14.222360">
                <ele>47.722534</ele>
                <time>2006-03-25T06:17:08Z</time>
            </trkpt>
            <trkpt lon="101.412435" lat="14.222360">
                <ele>47.722534</ele>
                <time>2006-03-25T06:17:08Z</time>
            </trkpt>
            <trkpt lon="101.412821" lat="14.222381">
                <ele>50.125977</ele>
                <time>2006-03-25T06:17:26Z</time>
            </trkpt>
            <trkpt lon="101.412821" lat="14.222381">
                <ele>50.125977</ele>
                <time>2006-03-25T06:17:26Z</time>
            </trkpt>
            <trkpt lon="101.413100" lat="14.222424">
                <ele>49.164551</ele>
                <time>2006-03-25T06:17:38Z</time>
            </trkpt>
            <trkpt lon="101.413100" lat="14.222424">
                <ele>49.164551</ele>
                <time>2006-03-25T06:17:38Z</time>
            </trkpt>
            <trkpt lon="101.413336" lat="14.222467">
                <ele>50.125977</ele>
                <time>2006-03-25T06:18:25Z</time>
            </trkpt>
            <trkpt lon="101.413336" lat="14.222467">
                <ele>50.125977</ele>
                <time>2006-03-25T06:18:25Z</time>
            </trkpt>
            <trkpt lon="101.413765" lat="14.222553">
                <ele>49.645264</ele>
                <time>2006-03-25T06:18:36Z</time>
            </trkpt>
            <trkpt lon="101.413765" lat="14.222553">
                <ele>49.645264</ele>
                <time>2006-03-25T06:18:36Z</time>
            </trkpt>
            <trkpt lon="101.413872" lat="14.222403">
                <ele>48.683960</ele>
                <time>2006-03-25T06:18:41Z</time>
            </trkpt>
            <trkpt lon="101.413872" lat="14.222403">
                <ele>48.683960</ele>
                <time>2006-03-25T06:18:41Z</time>
            </trkpt>
            <trkpt lon="101.413980" lat="14.221716">
                <ele>47.722534</ele>
                <time>2006-03-25T06:18:57Z</time>
            </trkpt>
            <trkpt lon="101.413980" lat="14.221716">
                <ele>47.722534</ele>
                <time>2006-03-25T06:18:57Z</time>
            </trkpt>
            <trkpt lon="101.414001" lat="14.221566">
                <ele>48.203369</ele>
                <time>2006-03-25T06:19:00Z</time>
            </trkpt>
            <trkpt lon="101.414001" lat="14.221566">
                <ele>48.203369</ele>
                <time>2006-03-25T06:19:00Z</time>
            </trkpt>
            <trkpt lon="101.414194" lat="14.221501">
                <ele>48.683960</ele>
                <time>2006-03-25T06:19:05Z</time>
            </trkpt>
            <trkpt lon="101.414194" lat="14.221501">
                <ele>48.683960</ele>
                <time>2006-03-25T06:19:05Z</time>
            </trkpt>
            <trkpt lon="101.414773" lat="14.221609">
                <ele>48.683960</ele>
                <time>2006-03-25T06:19:22Z</time>
            </trkpt>
            <trkpt lon="101.414773" lat="14.221609">
                <ele>48.683960</ele>
                <time>2006-03-25T06:19:22Z</time>
            </trkpt>
            <trkpt lon="101.414924" lat="14.221652">
                <ele>49.164551</ele>
                <time>2006-03-25T06:19:36Z</time>
            </trkpt>
            <trkpt lon="101.414924" lat="14.221652">
                <ele>49.164551</ele>
                <time>2006-03-25T06:19:36Z</time>
            </trkpt>
            <trkpt lon="101.415052" lat="14.221673">
                <ele>49.164551</ele>
                <time>2006-03-25T06:19:50Z</time>
            </trkpt>
            <trkpt lon="101.415052" lat="14.221673">
                <ele>49.164551</ele>
                <time>2006-03-25T06:19:50Z</time>
            </trkpt>
            <trkpt lon="101.415310" lat="14.221630">
                <ele>48.683960</ele>
                <time>2006-03-25T06:20:00Z</time>
            </trkpt>
            <trkpt lon="101.415310" lat="14.221630">
                <ele>48.683960</ele>
                <time>2006-03-25T06:20:00Z</time>
            </trkpt>
            <trkpt lon="101.415653" lat="14.221179">
                <ele>50.606567</ele>
                <time>2006-03-25T06:20:14Z</time>
            </trkpt>
            <trkpt lon="101.415653" lat="14.221179">
                <ele>50.606567</ele>
                <time>2006-03-25T06:20:14Z</time>
            </trkpt>
            <trkpt lon="101.415782" lat="14.220622">
                <ele>52.529175</ele>
                <time>2006-03-25T06:20:31Z</time>
            </trkpt>
            <trkpt lon="101.415782" lat="14.220622">
                <ele>52.529175</ele>
                <time>2006-03-25T06:20:31Z</time>
            </trkpt>
            <trkpt lon="101.415932" lat="14.220192">
                <ele>55.413086</ele>
                <time>2006-03-25T06:20:46Z</time>
            </trkpt>
            <trkpt lon="101.415932" lat="14.220192">
                <ele>55.413086</ele>
                <time>2006-03-25T06:20:46Z</time>
            </trkpt>
            <trkpt lon="101.416254" lat="14.219506">
                <ele>55.893799</ele>
                <time>2006-03-25T06:21:08Z</time>
            </trkpt>
            <trkpt lon="101.416254" lat="14.219506">
                <ele>55.893799</ele>
                <time>2006-03-25T06:21:08Z</time>
            </trkpt>
            <trkpt lon="101.416404" lat="14.218733">
                <ele>56.374512</ele>
                <time>2006-03-25T06:21:31Z</time>
            </trkpt>
            <trkpt lon="101.416404" lat="14.218733">
                <ele>56.374512</ele>
                <time>2006-03-25T06:21:31Z</time>
            </trkpt>
            <trkpt lon="101.416383" lat="14.218540">
                <ele>55.893799</ele>
                <time>2006-03-25T06:21:35Z</time>
            </trkpt>
            <trkpt lon="101.416383" lat="14.218540">
                <ele>55.893799</ele>
                <time>2006-03-25T06:21:35Z</time>
            </trkpt>
            <trkpt lon="101.416104" lat="14.217682">
                <ele>53.490479</ele>
                <time>2006-03-25T06:21:52Z</time>
            </trkpt>
            <trkpt lon="101.416104" lat="14.217682">
                <ele>53.490479</ele>
                <time>2006-03-25T06:21:52Z</time>
            </trkpt>
            <trkpt lon="101.415482" lat="14.216845">
                <ele>55.413086</ele>
                <time>2006-03-25T06:22:12Z</time>
            </trkpt>
            <trkpt lon="101.415482" lat="14.216845">
                <ele>55.413086</ele>
                <time>2006-03-25T06:22:12Z</time>
            </trkpt>
            <trkpt lon="101.414881" lat="14.215901">
                <ele>53.971191</ele>
                <time>2006-03-25T06:22:33Z</time>
            </trkpt>
            <trkpt lon="101.414881" lat="14.215901">
                <ele>53.971191</ele>
                <time>2006-03-25T06:22:33Z</time>
            </trkpt>
            <trkpt lon="101.414859" lat="14.215858">
                <ele>53.490479</ele>
                <time>2006-03-25T06:22:34Z</time>
            </trkpt>
            <trkpt lon="101.414859" lat="14.215858">
                <ele>53.490479</ele>
                <time>2006-03-25T06:22:34Z</time>
            </trkpt>
            <trkpt lon="101.414473" lat="14.215579">
                <ele>52.529175</ele>
                <time>2006-03-25T06:22:47Z</time>
            </trkpt>
            <trkpt lon="101.414473" lat="14.215579">
                <ele>52.529175</ele>
                <time>2006-03-25T06:22:47Z</time>
            </trkpt>
            <trkpt lon="101.414452" lat="14.215579">
                <ele>50.125977</ele>
                <time>2006-03-25T06:22:59Z</time>
            </trkpt>
            <trkpt lon="101.414452" lat="14.215579">
                <ele>50.125977</ele>
                <time>2006-03-25T06:22:59Z</time>
            </trkpt>
            <trkpt lon="101.414323" lat="14.215579">
                <ele>48.683960</ele>
                <time>2006-03-25T06:23:06Z</time>
            </trkpt>
            <trkpt lon="101.414323" lat="14.215579">
                <ele>48.683960</ele>
                <time>2006-03-25T06:23:06Z</time>
            </trkpt>
            <trkpt lon="101.414108" lat="14.215407">
                <ele>47.722534</ele>
                <time>2006-03-25T06:23:11Z</time>
            </trkpt>
            <trkpt lon="101.414108" lat="14.215407">
                <ele>47.722534</ele>
                <time>2006-03-25T06:23:11Z</time>
            </trkpt>
            <trkpt lon="101.414022" lat="14.215300">
                <ele>47.722534</ele>
                <time>2006-03-25T06:23:13Z</time>
            </trkpt>
            <trkpt lon="101.414022" lat="14.215300">
                <ele>47.722534</ele>
                <time>2006-03-25T06:23:13Z</time>
            </trkpt>
            <trkpt lon="101.413894" lat="14.215150">
                <ele>46.761230</ele>
                <time>2006-03-25T06:23:16Z</time>
            </trkpt>
            <trkpt lon="101.413894" lat="14.215150">
                <ele>46.761230</ele>
                <time>2006-03-25T06:23:16Z</time>
            </trkpt>
            <trkpt lon="101.413400" lat="14.215064">
                <ele>47.722534</ele>
                <time>2006-03-25T06:23:24Z</time>
            </trkpt>
            <trkpt lon="101.413400" lat="14.215064">
                <ele>47.722534</ele>
                <time>2006-03-25T06:23:24Z</time>
            </trkpt>
            <trkpt lon="101.413271" lat="14.215107">
                <ele>46.761230</ele>
                <time>2006-03-25T06:23:26Z</time>
            </trkpt>
            <trkpt lon="101.413271" lat="14.215107">
                <ele>46.761230</ele>
                <time>2006-03-25T06:23:26Z</time>
            </trkpt>
            <trkpt lon="101.412134" lat="14.215772">
                <ele>44.838623</ele>
                <time>2006-03-25T06:23:43Z</time>
            </trkpt>
            <trkpt lon="101.412134" lat="14.215772">
                <ele>44.838623</ele>
                <time>2006-03-25T06:23:43Z</time>
            </trkpt>
            <trkpt lon="101.411662" lat="14.215944">
                <ele>42.916016</ele>
                <time>2006-03-25T06:23:50Z</time>
            </trkpt>
            <trkpt lon="101.411662" lat="14.215944">
                <ele>42.916016</ele>
                <time>2006-03-25T06:23:50Z</time>
            </trkpt>
            <trkpt lon="101.411426" lat="14.215922">
                <ele>42.916016</ele>
                <time>2006-03-25T06:23:53Z</time>
            </trkpt>
            <trkpt lon="101.411426" lat="14.215922">
                <ele>42.916016</ele>
                <time>2006-03-25T06:23:53Z</time>
            </trkpt>
            <trkpt lon="101.411126" lat="14.215751">
                <ele>43.396606</ele>
                <time>2006-03-25T06:23:58Z</time>
            </trkpt>
            <trkpt lon="101.411126" lat="14.215751">
                <ele>43.396606</ele>
                <time>2006-03-25T06:23:58Z</time>
            </trkpt>
            <trkpt lon="101.410460" lat="14.214892">
                <ele>43.396606</ele>
                <time>2006-03-25T06:24:15Z</time>
            </trkpt>
            <trkpt lon="101.410460" lat="14.214892">
                <ele>43.396606</ele>
                <time>2006-03-25T06:24:15Z</time>
            </trkpt>
            <trkpt lon="101.409988" lat="14.213712">
                <ele>41.473999</ele>
                <time>2006-03-25T06:24:36Z</time>
            </trkpt>
            <trkpt lon="101.409988" lat="14.213712">
                <ele>41.473999</ele>
                <time>2006-03-25T06:24:36Z</time>
            </trkpt>
            <trkpt lon="101.409409" lat="14.212639">
                <ele>39.070679</ele>
                <time>2006-03-25T06:24:53Z</time>
            </trkpt>
            <trkpt lon="101.409409" lat="14.212639">
                <ele>39.070679</ele>
                <time>2006-03-25T06:24:53Z</time>
            </trkpt>
            <trkpt lon="101.409194" lat="14.212425">
                <ele>38.109375</ele>
                <time>2006-03-25T06:24:57Z</time>
            </trkpt>
            <trkpt lon="101.409194" lat="14.212425">
                <ele>38.109375</ele>
                <time>2006-03-25T06:24:57Z</time>
            </trkpt>
            <trkpt lon="101.409109" lat="14.212296">
                <ele>37.628662</ele>
                <time>2006-03-25T06:24:59Z</time>
            </trkpt>
            <trkpt lon="101.409109" lat="14.212296">
                <ele>37.628662</ele>
                <time>2006-03-25T06:24:59Z</time>
            </trkpt>
            <trkpt lon="101.408508" lat="14.211309">
                <ele>36.667480</ele>
                <time>2006-03-25T06:25:17Z</time>
            </trkpt>
            <trkpt lon="101.408508" lat="14.211309">
                <ele>36.667480</ele>
                <time>2006-03-25T06:25:17Z</time>
            </trkpt>
            <trkpt lon="101.408486" lat="14.211266">
                <ele>36.667480</ele>
                <time>2006-03-25T06:25:19Z</time>
            </trkpt>
            <trkpt lon="101.408486" lat="14.211266">
                <ele>36.667480</ele>
                <time>2006-03-25T06:25:19Z</time>
            </trkpt>
            <trkpt lon="101.408744" lat="14.211030">
                <ele>35.706055</ele>
                <time>2006-03-25T06:25:33Z</time>
            </trkpt>
            <trkpt lon="101.408744" lat="14.211030">
                <ele>35.706055</ele>
                <time>2006-03-25T06:25:33Z</time>
            </trkpt>
            <trkpt lon="101.409066" lat="14.211202">
                <ele>36.186768</ele>
                <time>2006-03-25T06:25:45Z</time>
            </trkpt>
            <trkpt lon="101.409066" lat="14.211202">
                <ele>36.186768</ele>
                <time>2006-03-25T06:25:45Z</time>
            </trkpt>
            <trkpt lon="101.409495" lat="14.211245">
                <ele>39.070679</ele>
                <time>2006-03-25T06:26:01Z</time>
            </trkpt>
            <trkpt lon="101.409495" lat="14.211245">
                <ele>39.070679</ele>
                <time>2006-03-25T06:26:01Z</time>
            </trkpt>
            <trkpt lon="101.410031" lat="14.211309">
                <ele>38.109375</ele>
                <time>2006-03-25T06:26:16Z</time>
            </trkpt>
            <trkpt lon="101.410031" lat="14.211309">
                <ele>38.109375</ele>
                <time>2006-03-25T06:26:16Z</time>
            </trkpt>
            <trkpt lon="101.410482" lat="14.211438">
                <ele>40.032104</ele>
                <time>2006-03-25T06:26:28Z</time>
            </trkpt>
            <trkpt lon="101.410482" lat="14.211438">
                <ele>40.032104</ele>
                <time>2006-03-25T06:26:28Z</time>
            </trkpt>
            <trkpt lon="101.410675" lat="14.211502">
                <ele>39.551270</ele>
                <time>2006-03-25T06:26:34Z</time>
            </trkpt>
            <trkpt lon="101.410675" lat="14.211502">
                <ele>39.551270</ele>
                <time>2006-03-25T06:26:34Z</time>
            </trkpt>
            <trkpt lon="101.410697" lat="14.211330">
                <ele>40.032104</ele>
                <time>2006-03-25T06:26:42Z</time>
            </trkpt>
            <trkpt lon="101.410697" lat="14.211330">
                <ele>40.032104</ele>
                <time>2006-03-25T06:26:42Z</time>
            </trkpt>
            <trkpt lon="101.410675" lat="14.211309">
                <ele>40.032104</ele>
                <time>2006-03-25T06:26:43Z</time>
            </trkpt>
            <trkpt lon="101.410675" lat="14.211309">
                <ele>40.032104</ele>
                <time>2006-03-25T06:26:43Z</time>
            </trkpt>
            <trkpt lon="101.410611" lat="14.211094">
                <ele>40.512817</ele>
                <time>2006-03-25T06:26:53Z</time>
            </trkpt>
            <trkpt lon="101.410611" lat="14.211094">
                <ele>40.512817</ele>
                <time>2006-03-25T06:26:53Z</time>
            </trkpt>
            <trkpt lon="101.410632" lat="14.211094">
                <ele>39.070679</ele>
                <time>2006-03-25T06:27:07Z</time>
            </trkpt>
            <trkpt lon="101.410632" lat="14.211094">
                <ele>39.070679</ele>
                <time>2006-03-25T06:27:07Z</time>
            </trkpt>
            <trkpt lon="101.410503" lat="14.210880">
                <ele>41.954712</ele>
                <time>2006-03-25T06:28:51Z</time>
            </trkpt>
            <trkpt lon="101.410503" lat="14.210880">
                <ele>41.954712</ele>
                <time>2006-03-25T06:28:51Z</time>
            </trkpt>
            <trkpt lon="101.410332" lat="14.210515">
                <ele>40.512817</ele>
                <time>2006-03-25T06:29:00Z</time>
            </trkpt>
            <trkpt lon="101.410332" lat="14.210515">
                <ele>40.512817</ele>
                <time>2006-03-25T06:29:00Z</time>
            </trkpt>
            <trkpt lon="101.409903" lat="14.210215">
                <ele>39.070679</ele>
                <time>2006-03-25T06:29:15Z</time>
            </trkpt>
            <trkpt lon="101.409903" lat="14.210215">
                <ele>39.070679</ele>
                <time>2006-03-25T06:29:15Z</time>
            </trkpt>
            <trkpt lon="101.409709" lat="14.209785">
                <ele>39.551270</ele>
                <time>2006-03-25T06:29:29Z</time>
            </trkpt>
            <trkpt lon="101.409709" lat="14.209785">
                <ele>39.551270</ele>
                <time>2006-03-25T06:29:29Z</time>
            </trkpt>
            <trkpt lon="101.409581" lat="14.209721">
                <ele>39.551270</ele>
                <time>2006-03-25T06:29:33Z</time>
            </trkpt>
            <trkpt lon="101.409581" lat="14.209721">
                <ele>39.551270</ele>
                <time>2006-03-25T06:29:33Z</time>
            </trkpt>
            <trkpt lon="101.409473" lat="14.209700">
                <ele>40.032104</ele>
                <time>2006-03-25T06:29:38Z</time>
            </trkpt>
            <trkpt lon="101.409473" lat="14.209700">
                <ele>40.032104</ele>
                <time>2006-03-25T06:29:38Z</time>
            </trkpt>
            <trkpt lon="101.409109" lat="14.209507">
                <ele>41.473999</ele>
                <time>2006-03-25T06:29:57Z</time>
            </trkpt>
            <trkpt lon="101.409109" lat="14.209507">
                <ele>41.473999</ele>
                <time>2006-03-25T06:29:57Z</time>
            </trkpt>
            <trkpt lon="101.408894" lat="14.209292">
                <ele>43.877319</ele>
                <time>2006-03-25T06:30:13Z</time>
            </trkpt>
            <trkpt lon="101.408894" lat="14.209292">
                <ele>43.877319</ele>
                <time>2006-03-25T06:30:13Z</time>
            </trkpt>
            <trkpt lon="101.408851" lat="14.209292">
                <ele>44.358032</ele>
                <time>2006-03-25T06:30:15Z</time>
            </trkpt>
            <trkpt lon="101.408851" lat="14.209292">
                <ele>44.358032</ele>
                <time>2006-03-25T06:30:15Z</time>
            </trkpt>
            <trkpt lon="101.408787" lat="14.209228">
                <ele>45.319214</ele>
                <time>2006-03-25T06:30:27Z</time>
            </trkpt>
            <trkpt lon="101.408787" lat="14.209228">
                <ele>45.319214</ele>
                <time>2006-03-25T06:30:27Z</time>
            </trkpt>
            <trkpt lon="101.408787" lat="14.209206">
                <ele>46.280640</ele>
                <time>2006-03-25T06:30:54Z</time>
            </trkpt>
            <trkpt lon="101.408787" lat="14.209206">
                <ele>46.280640</ele>
                <time>2006-03-25T06:30:54Z</time>
            </trkpt>
            <trkpt lon="101.408572" lat="14.209099">
                <ele>45.799927</ele>
                <time>2006-03-25T06:31:04Z</time>
            </trkpt>
            <trkpt lon="101.408572" lat="14.209099">
                <ele>45.799927</ele>
                <time>2006-03-25T06:31:04Z</time>
            </trkpt>
            <trkpt lon="101.408401" lat="14.208884">
                <ele>43.877319</ele>
                <time>2006-03-25T06:31:10Z</time>
            </trkpt>
            <trkpt lon="101.408401" lat="14.208884">
                <ele>43.877319</ele>
                <time>2006-03-25T06:31:10Z</time>
            </trkpt>
            <trkpt lon="101.408315" lat="14.208198">
                <ele>42.435425</ele>
                <time>2006-03-25T06:31:24Z</time>
            </trkpt>
            <trkpt lon="101.408315" lat="14.208198">
                <ele>42.435425</ele>
                <time>2006-03-25T06:31:24Z</time>
            </trkpt>
            <trkpt lon="101.408336" lat="14.207983">
                <ele>45.319214</ele>
                <time>2006-03-25T06:31:34Z</time>
            </trkpt>
            <trkpt lon="101.408336" lat="14.207983">
                <ele>45.319214</ele>
                <time>2006-03-25T06:31:34Z</time>
            </trkpt>
            <trkpt lon="101.408165" lat="14.207704">
                <ele>45.799927</ele>
                <time>2006-03-25T06:31:45Z</time>
            </trkpt>
            <trkpt lon="101.408165" lat="14.207704">
                <ele>45.799927</ele>
                <time>2006-03-25T06:31:45Z</time>
            </trkpt>
            <trkpt lon="101.407950" lat="14.207382">
                <ele>45.319214</ele>
                <time>2006-03-25T06:31:54Z</time>
            </trkpt>
            <trkpt lon="101.407950" lat="14.207382">
                <ele>45.319214</ele>
                <time>2006-03-25T06:31:54Z</time>
            </trkpt>
            <trkpt lon="101.407928" lat="14.207275">
                <ele>44.838623</ele>
                <time>2006-03-25T06:31:56Z</time>
            </trkpt>
            <trkpt lon="101.407928" lat="14.207275">
                <ele>44.838623</ele>
                <time>2006-03-25T06:31:56Z</time>
            </trkpt>
            <trkpt lon="101.407886" lat="14.206738">
                <ele>43.396606</ele>
                <time>2006-03-25T06:32:07Z</time>
            </trkpt>
            <trkpt lon="101.407886" lat="14.206738">
                <ele>43.396606</ele>
                <time>2006-03-25T06:32:07Z</time>
            </trkpt>
            <trkpt lon="101.407928" lat="14.206030">
                <ele>42.916016</ele>
                <time>2006-03-25T06:32:23Z</time>
            </trkpt>
            <trkpt lon="101.407928" lat="14.206030">
                <ele>42.916016</ele>
                <time>2006-03-25T06:32:23Z</time>
            </trkpt>
            <trkpt lon="101.407971" lat="14.205451">
                <ele>40.512817</ele>
                <time>2006-03-25T06:32:34Z</time>
            </trkpt>
            <trkpt lon="101.407971" lat="14.205451">
                <ele>40.512817</ele>
                <time>2006-03-25T06:32:34Z</time>
            </trkpt>
            <trkpt lon="101.407950" lat="14.205236">
                <ele>39.551270</ele>
                <time>2006-03-25T06:32:38Z</time>
            </trkpt>
            <trkpt lon="101.407950" lat="14.205236">
                <ele>39.551270</ele>
                <time>2006-03-25T06:32:38Z</time>
            </trkpt>
            <trkpt lon="101.407907" lat="14.204421">
                <ele>39.070679</ele>
                <time>2006-03-25T06:32:53Z</time>
            </trkpt>
            <trkpt lon="101.407907" lat="14.204421">
                <ele>39.070679</ele>
                <time>2006-03-25T06:32:53Z</time>
            </trkpt>
            <trkpt lon="101.408014" lat="14.203756">
                <ele>40.032104</ele>
                <time>2006-03-25T06:33:09Z</time>
            </trkpt>
            <trkpt lon="101.408014" lat="14.203756">
                <ele>40.032104</ele>
                <time>2006-03-25T06:33:09Z</time>
            </trkpt>
            <trkpt lon="101.407993" lat="14.203606">
                <ele>39.551270</ele>
                <time>2006-03-25T06:33:13Z</time>
            </trkpt>
            <trkpt lon="101.407993" lat="14.203606">
                <ele>39.551270</ele>
                <time>2006-03-25T06:33:13Z</time>
            </trkpt>
            <trkpt lon="101.407628" lat="14.203155">
                <ele>38.109375</ele>
                <time>2006-03-25T06:33:25Z</time>
            </trkpt>
            <trkpt lon="101.407628" lat="14.203155">
                <ele>38.109375</ele>
                <time>2006-03-25T06:33:25Z</time>
            </trkpt>
            <trkpt lon="101.407521" lat="14.203026">
                <ele>37.628662</ele>
                <time>2006-03-25T06:33:28Z</time>
            </trkpt>
            <trkpt lon="101.407521" lat="14.203026">
                <ele>37.628662</ele>
                <time>2006-03-25T06:33:28Z</time>
            </trkpt>
            <trkpt lon="101.407392" lat="14.202769">
                <ele>36.667480</ele>
                <time>2006-03-25T06:33:33Z</time>
            </trkpt>
            <trkpt lon="101.407392" lat="14.202769">
                <ele>36.667480</ele>
                <time>2006-03-25T06:33:33Z</time>
            </trkpt>
            <trkpt lon="101.407349" lat="14.202361">
                <ele>36.186768</ele>
                <time>2006-03-25T06:33:40Z</time>
            </trkpt>
            <trkpt lon="101.407349" lat="14.202361">
                <ele>36.186768</ele>
                <time>2006-03-25T06:33:40Z</time>
            </trkpt>
            <trkpt lon="101.407242" lat="14.201803">
                <ele>36.186768</ele>
                <time>2006-03-25T06:33:54Z</time>
            </trkpt>
            <trkpt lon="101.407242" lat="14.201803">
                <ele>36.186768</ele>
                <time>2006-03-25T06:33:54Z</time>
            </trkpt>
            <trkpt lon="101.407242" lat="14.201803">
                <ele>35.706055</ele>
                <time>2006-03-25T06:33:55Z</time>
            </trkpt>
            <trkpt lon="101.407242" lat="14.201803">
                <ele>35.706055</ele>
                <time>2006-03-25T06:33:55Z</time>
            </trkpt>
            <trkpt lon="101.407435" lat="14.201567">
                <ele>34.264160</ele>
                <time>2006-03-25T06:34:04Z</time>
            </trkpt>
            <trkpt lon="101.407435" lat="14.201567">
                <ele>34.264160</ele>
                <time>2006-03-25T06:34:04Z</time>
            </trkpt>
            <trkpt lon="101.407585" lat="14.201396">
                <ele>33.302856</ele>
                <time>2006-03-25T06:34:14Z</time>
            </trkpt>
            <trkpt lon="101.407585" lat="14.201396">
                <ele>33.302856</ele>
                <time>2006-03-25T06:34:14Z</time>
            </trkpt>
            <trkpt lon="101.407628" lat="14.201374">
                <ele>33.302856</ele>
                <time>2006-03-25T06:34:26Z</time>
            </trkpt>
            <trkpt lon="101.407628" lat="14.201374">
                <ele>33.302856</ele>
                <time>2006-03-25T06:34:26Z</time>
            </trkpt>
            <trkpt lon="101.407671" lat="14.201310">
                <ele>33.302856</ele>
                <time>2006-03-25T06:34:39Z</time>
            </trkpt>
            <trkpt lon="101.407671" lat="14.201310">
                <ele>33.302856</ele>
                <time>2006-03-25T06:34:39Z</time>
            </trkpt>
            <trkpt lon="101.407692" lat="14.201288">
                <ele>32.822266</ele>
                <time>2006-03-25T06:34:51Z</time>
            </trkpt>
            <trkpt lon="101.407692" lat="14.201288">
                <ele>32.822266</ele>
                <time>2006-03-25T06:34:51Z</time>
            </trkpt>
            <trkpt lon="101.407714" lat="14.201288">
                <ele>32.822266</ele>
                <time>2006-03-25T06:35:02Z</time>
            </trkpt>
            <trkpt lon="101.407714" lat="14.201288">
                <ele>32.822266</ele>
                <time>2006-03-25T06:35:02Z</time>
            </trkpt>
            <trkpt lon="101.407757" lat="14.201267">
                <ele>32.341553</ele>
                <time>2006-03-25T06:35:06Z</time>
            </trkpt>
            <trkpt lon="101.407757" lat="14.201267">
                <ele>32.341553</ele>
                <time>2006-03-25T06:35:06Z</time>
            </trkpt>
            <trkpt lon="101.407800" lat="14.201245">
                <ele>32.341553</ele>
                <time>2006-03-25T06:35:09Z</time>
            </trkpt>
            <trkpt lon="101.407800" lat="14.201245">
                <ele>32.341553</ele>
                <time>2006-03-25T06:35:09Z</time>
            </trkpt>
            <trkpt lon="101.408036" lat="14.201202">
                <ele>30.418823</ele>
                <time>2006-03-25T06:35:25Z</time>
            </trkpt>
            <trkpt lon="101.408036" lat="14.201202">
                <ele>30.418823</ele>
                <time>2006-03-25T06:35:25Z</time>
            </trkpt>
            <trkpt lon="101.408036" lat="14.201202">
                <ele>30.418823</ele>
                <time>2006-03-25T06:35:27Z</time>
            </trkpt>
            <trkpt lon="101.408036" lat="14.201202">
                <ele>30.418823</ele>
                <time>2006-03-25T06:35:27Z</time>
            </trkpt>
            <trkpt lon="101.408036" lat="14.201224">
                <ele>28.976929</ele>
                <time>2006-03-25T06:35:42Z</time>
            </trkpt>
            <trkpt lon="101.408036" lat="14.201224">
                <ele>28.976929</ele>
                <time>2006-03-25T06:35:42Z</time>
            </trkpt>
            <trkpt lon="101.408036" lat="14.201202">
                <ele>29.457520</ele>
                <time>2006-03-25T06:36:27Z</time>
            </trkpt>
            <trkpt lon="101.408036" lat="14.201202">
                <ele>29.457520</ele>
                <time>2006-03-25T06:36:27Z</time>
            </trkpt>
            <trkpt lon="101.408165" lat="14.201138">
                <ele>29.938110</ele>
                <time>2006-03-25T06:36:40Z</time>
            </trkpt>
            <trkpt lon="101.408165" lat="14.201138">
                <ele>29.938110</ele>
                <time>2006-03-25T06:36:40Z</time>
            </trkpt>
            <trkpt lon="101.408529" lat="14.201117">
                <ele>28.496216</ele>
                <time>2006-03-25T06:36:55Z</time>
            </trkpt>
            <trkpt lon="101.408529" lat="14.201117">
                <ele>28.496216</ele>
                <time>2006-03-25T06:36:55Z</time>
            </trkpt>
            <trkpt lon="101.408830" lat="14.201095">
                <ele>28.976929</ele>
                <time>2006-03-25T06:37:09Z</time>
            </trkpt>
            <trkpt lon="101.408830" lat="14.201095">
                <ele>28.976929</ele>
                <time>2006-03-25T06:37:09Z</time>
            </trkpt>
            <trkpt lon="101.409023" lat="14.201009">
                <ele>28.496216</ele>
                <time>2006-03-25T06:37:23Z</time>
            </trkpt>
            <trkpt lon="101.409023" lat="14.201009">
                <ele>28.496216</ele>
                <time>2006-03-25T06:37:23Z</time>
            </trkpt>
            <trkpt lon="101.409023" lat="14.201009">
                <ele>28.496216</ele>
                <time>2006-03-25T06:37:24Z</time>
            </trkpt>
            <trkpt lon="101.409023" lat="14.201009">
                <ele>28.496216</ele>
                <time>2006-03-25T06:37:24Z</time>
            </trkpt>
            <trkpt lon="101.409194" lat="14.200859">
                <ele>30.899536</ele>
                <time>2006-03-25T06:37:41Z</time>
            </trkpt>
            <trkpt lon="101.409194" lat="14.200859">
                <ele>30.899536</ele>
                <time>2006-03-25T06:37:41Z</time>
            </trkpt>
            <trkpt lon="101.409216" lat="14.200838">
                <ele>30.899536</ele>
                <time>2006-03-25T06:37:43Z</time>
            </trkpt>
            <trkpt lon="101.409216" lat="14.200838">
                <ele>30.899536</ele>
                <time>2006-03-25T06:37:43Z</time>
            </trkpt>
            <trkpt lon="101.409216" lat="14.200580">
                <ele>29.938110</ele>
                <time>2006-03-25T06:37:57Z</time>
            </trkpt>
            <trkpt lon="101.409216" lat="14.200580">
                <ele>29.938110</ele>
                <time>2006-03-25T06:37:57Z</time>
            </trkpt>
            <trkpt lon="101.409280" lat="14.200258">
                <ele>30.418823</ele>
                <time>2006-03-25T06:38:11Z</time>
            </trkpt>
            <trkpt lon="101.409280" lat="14.200258">
                <ele>30.418823</ele>
                <time>2006-03-25T06:38:11Z</time>
            </trkpt>
            <trkpt lon="101.409280" lat="14.199936">
                <ele>29.938110</ele>
                <time>2006-03-25T06:38:24Z</time>
            </trkpt>
            <trkpt lon="101.409280" lat="14.199936">
                <ele>29.938110</ele>
                <time>2006-03-25T06:38:24Z</time>
            </trkpt>
            <trkpt lon="101.409280" lat="14.199915">
                <ele>29.938110</ele>
                <time>2006-03-25T06:38:25Z</time>
            </trkpt>
            <trkpt lon="101.409280" lat="14.199915">
                <ele>29.938110</ele>
                <time>2006-03-25T06:38:25Z</time>
            </trkpt>
            <trkpt lon="101.409388" lat="14.199572">
                <ele>29.938110</ele>
                <time>2006-03-25T06:38:40Z</time>
            </trkpt>
            <trkpt lon="101.409388" lat="14.199572">
                <ele>29.938110</ele>
                <time>2006-03-25T06:38:40Z</time>
            </trkpt>
            <trkpt lon="101.409473" lat="14.199207">
                <ele>29.938110</ele>
                <time>2006-03-25T06:38:55Z</time>
            </trkpt>
            <trkpt lon="101.409473" lat="14.199207">
                <ele>29.938110</ele>
                <time>2006-03-25T06:38:55Z</time>
            </trkpt>
            <trkpt lon="101.409516" lat="14.198928">
                <ele>30.899536</ele>
                <time>2006-03-25T06:39:09Z</time>
            </trkpt>
            <trkpt lon="101.409516" lat="14.198928">
                <ele>30.899536</ele>
                <time>2006-03-25T06:39:09Z</time>
            </trkpt>
            <trkpt lon="101.409516" lat="14.198928">
                <ele>30.899536</ele>
                <time>2006-03-25T06:39:26Z</time>
            </trkpt>
            <trkpt lon="101.409516" lat="14.198928">
                <ele>30.899536</ele>
                <time>2006-03-25T06:39:26Z</time>
            </trkpt>
            <trkpt lon="101.409559" lat="14.198778">
                <ele>30.418823</ele>
                <time>2006-03-25T06:39:38Z</time>
            </trkpt>
            <trkpt lon="101.409559" lat="14.198778">
                <ele>30.418823</ele>
                <time>2006-03-25T06:39:38Z</time>
            </trkpt>
            <trkpt lon="101.409624" lat="14.198585">
                <ele>30.418823</ele>
                <time>2006-03-25T06:39:52Z</time>
            </trkpt>
            <trkpt lon="101.409624" lat="14.198585">
                <ele>30.418823</ele>
                <time>2006-03-25T06:39:52Z</time>
            </trkpt>
            <trkpt lon="101.409602" lat="14.198349">
                <ele>29.938110</ele>
                <time>2006-03-25T06:40:08Z</time>
            </trkpt>
            <trkpt lon="101.409602" lat="14.198349">
                <ele>29.938110</ele>
                <time>2006-03-25T06:40:08Z</time>
            </trkpt>
            <trkpt lon="101.409624" lat="14.198306">
                <ele>29.457520</ele>
                <time>2006-03-25T06:40:11Z</time>
            </trkpt>
            <trkpt lon="101.409624" lat="14.198306">
                <ele>29.457520</ele>
                <time>2006-03-25T06:40:11Z</time>
            </trkpt>
            <trkpt lon="101.409667" lat="14.198263">
                <ele>29.457520</ele>
                <time>2006-03-25T06:40:16Z</time>
            </trkpt>
            <trkpt lon="101.409667" lat="14.198263">
                <ele>29.457520</ele>
                <time>2006-03-25T06:40:16Z</time>
            </trkpt>
            <trkpt lon="101.409688" lat="14.198220">
                <ele>28.976929</ele>
                <time>2006-03-25T06:40:20Z</time>
            </trkpt>
            <trkpt lon="101.409688" lat="14.198220">
                <ele>28.976929</ele>
                <time>2006-03-25T06:40:20Z</time>
            </trkpt>
            <trkpt lon="101.409667" lat="14.198070">
                <ele>29.938110</ele>
                <time>2006-03-25T06:40:36Z</time>
            </trkpt>
            <trkpt lon="101.409667" lat="14.198070">
                <ele>29.938110</ele>
                <time>2006-03-25T06:40:36Z</time>
            </trkpt>
            <trkpt lon="101.409667" lat="14.198048">
                <ele>28.496216</ele>
                <time>2006-03-25T06:40:53Z</time>
            </trkpt>
            <trkpt lon="101.409667" lat="14.198048">
                <ele>28.496216</ele>
                <time>2006-03-25T06:40:53Z</time>
            </trkpt>
            <trkpt lon="101.409645" lat="14.197898">
                <ele>28.976929</ele>
                <time>2006-03-25T06:41:04Z</time>
            </trkpt>
            <trkpt lon="101.409645" lat="14.197898">
                <ele>28.976929</ele>
                <time>2006-03-25T06:41:04Z</time>
            </trkpt>
            <trkpt lon="101.409602" lat="14.197640">
                <ele>28.496216</ele>
                <time>2006-03-25T06:41:16Z</time>
            </trkpt>
            <trkpt lon="101.409602" lat="14.197640">
                <ele>28.496216</ele>
                <time>2006-03-25T06:41:16Z</time>
            </trkpt>
            <trkpt lon="101.409409" lat="14.197233">
                <ele>28.015503</ele>
                <time>2006-03-25T06:41:31Z</time>
            </trkpt>
            <trkpt lon="101.409409" lat="14.197233">
                <ele>28.015503</ele>
                <time>2006-03-25T06:41:31Z</time>
            </trkpt>
            <trkpt lon="101.409216" lat="14.196761">
                <ele>28.015503</ele>
                <time>2006-03-25T06:41:46Z</time>
            </trkpt>
            <trkpt lon="101.409216" lat="14.196761">
                <ele>28.015503</ele>
                <time>2006-03-25T06:41:46Z</time>
            </trkpt>
            <trkpt lon="101.408937" lat="14.196374">
                <ele>29.457520</ele>
                <time>2006-03-25T06:42:02Z</time>
            </trkpt>
            <trkpt lon="101.408937" lat="14.196374">
                <ele>29.457520</ele>
                <time>2006-03-25T06:42:02Z</time>
            </trkpt>
            <trkpt lon="101.408744" lat="14.195924">
                <ele>28.976929</ele>
                <time>2006-03-25T06:42:18Z</time>
            </trkpt>
            <trkpt lon="101.408744" lat="14.195924">
                <ele>28.976929</ele>
                <time>2006-03-25T06:42:18Z</time>
            </trkpt>
            <trkpt lon="101.408551" lat="14.195709">
                <ele>29.938110</ele>
                <time>2006-03-25T06:42:30Z</time>
            </trkpt>
            <trkpt lon="101.408551" lat="14.195709">
                <ele>29.938110</ele>
                <time>2006-03-25T06:42:30Z</time>
            </trkpt>
            <trkpt lon="101.408508" lat="14.195774">
                <ele>36.186768</ele>
                <time>2006-03-25T06:43:37Z</time>
            </trkpt>
            <trkpt lon="101.408508" lat="14.195774">
                <ele>36.186768</ele>
                <time>2006-03-25T06:43:37Z</time>
            </trkpt>
            <trkpt lon="101.408165" lat="14.195666">
                <ele>36.186768</ele>
                <time>2006-03-25T06:43:47Z</time>
            </trkpt>
            <trkpt lon="101.408165" lat="14.195666">
                <ele>36.186768</ele>
                <time>2006-03-25T06:43:47Z</time>
            </trkpt>
            <trkpt lon="101.407757" lat="14.195495">
                <ele>34.264160</ele>
                <time>2006-03-25T06:43:57Z</time>
            </trkpt>
            <trkpt lon="101.407757" lat="14.195495">
                <ele>34.264160</ele>
                <time>2006-03-25T06:43:57Z</time>
            </trkpt>
            <trkpt lon="101.407757" lat="14.195216">
                <ele>32.341553</ele>
                <time>2006-03-25T06:44:09Z</time>
            </trkpt>
            <trkpt lon="101.407757" lat="14.195216">
                <ele>32.341553</ele>
                <time>2006-03-25T06:44:09Z</time>
            </trkpt>
            <trkpt lon="101.407692" lat="14.194636">
                <ele>31.380127</ele>
                <time>2006-03-25T06:44:22Z</time>
            </trkpt>
            <trkpt lon="101.407692" lat="14.194636">
                <ele>31.380127</ele>
                <time>2006-03-25T06:44:22Z</time>
            </trkpt>
            <trkpt lon="101.407692" lat="14.194400">
                <ele>30.899536</ele>
                <time>2006-03-25T06:44:27Z</time>
            </trkpt>
            <trkpt lon="101.407692" lat="14.194400">
                <ele>30.899536</ele>
                <time>2006-03-25T06:44:27Z</time>
            </trkpt>
            <trkpt lon="101.407928" lat="14.194229">
                <ele>30.899536</ele>
                <time>2006-03-25T06:44:33Z</time>
            </trkpt>
            <trkpt lon="101.407928" lat="14.194229">
                <ele>30.899536</ele>
                <time>2006-03-25T06:44:33Z</time>
            </trkpt>
            <trkpt lon="101.408379" lat="14.194272">
                <ele>31.380127</ele>
                <time>2006-03-25T06:44:42Z</time>
            </trkpt>
            <trkpt lon="101.408379" lat="14.194272">
                <ele>31.380127</ele>
                <time>2006-03-25T06:44:42Z</time>
            </trkpt>
            <trkpt lon="101.408529" lat="14.194207">
                <ele>30.899536</ele>
                <time>2006-03-25T06:44:45Z</time>
            </trkpt>
            <trkpt lon="101.408529" lat="14.194207">
                <ele>30.899536</ele>
                <time>2006-03-25T06:44:45Z</time>
            </trkpt>
            <trkpt lon="101.408701" lat="14.194036">
                <ele>31.380127</ele>
                <time>2006-03-25T06:44:50Z</time>
            </trkpt>
            <trkpt lon="101.408701" lat="14.194036">
                <ele>31.380127</ele>
                <time>2006-03-25T06:44:50Z</time>
            </trkpt>
            <trkpt lon="101.409066" lat="14.193027">
                <ele>29.938110</ele>
                <time>2006-03-25T06:45:10Z</time>
            </trkpt>
            <trkpt lon="101.409066" lat="14.193027">
                <ele>29.938110</ele>
                <time>2006-03-25T06:45:10Z</time>
            </trkpt>
            <trkpt lon="101.409473" lat="14.191890">
                <ele>29.457520</ele>
                <time>2006-03-25T06:45:32Z</time>
            </trkpt>
            <trkpt lon="101.409473" lat="14.191890">
                <ele>29.457520</ele>
                <time>2006-03-25T06:45:32Z</time>
            </trkpt>
            <trkpt lon="101.409795" lat="14.190774">
                <ele>30.418823</ele>
                <time>2006-03-25T06:45:53Z</time>
            </trkpt>
            <trkpt lon="101.409795" lat="14.190774">
                <ele>30.418823</ele>
                <time>2006-03-25T06:45:53Z</time>
            </trkpt>
            <trkpt lon="101.410096" lat="14.189487">
                <ele>29.938110</ele>
                <time>2006-03-25T06:46:17Z</time>
            </trkpt>
            <trkpt lon="101.410096" lat="14.189487">
                <ele>29.938110</ele>
                <time>2006-03-25T06:46:17Z</time>
            </trkpt>
            <trkpt lon="101.410139" lat="14.189401">
                <ele>29.938110</ele>
                <time>2006-03-25T06:46:19Z</time>
            </trkpt>
            <trkpt lon="101.410139" lat="14.189401">
                <ele>29.938110</ele>
                <time>2006-03-25T06:46:19Z</time>
            </trkpt>
            <trkpt lon="101.410289" lat="14.189250">
                <ele>29.938110</ele>
                <time>2006-03-25T06:46:23Z</time>
            </trkpt>
            <trkpt lon="101.410289" lat="14.189250">
                <ele>29.938110</ele>
                <time>2006-03-25T06:46:23Z</time>
            </trkpt>
            <trkpt lon="101.411147" lat="14.188521">
                <ele>28.976929</ele>
                <time>2006-03-25T06:46:43Z</time>
            </trkpt>
            <trkpt lon="101.411147" lat="14.188521">
                <ele>28.976929</ele>
                <time>2006-03-25T06:46:43Z</time>
            </trkpt>
            <trkpt lon="101.412005" lat="14.187663">
                <ele>28.976929</ele>
                <time>2006-03-25T06:47:05Z</time>
            </trkpt>
            <trkpt lon="101.412005" lat="14.187663">
                <ele>28.976929</ele>
                <time>2006-03-25T06:47:05Z</time>
            </trkpt>
            <trkpt lon="101.412070" lat="14.187577">
                <ele>28.976929</ele>
                <time>2006-03-25T06:47:07Z</time>
            </trkpt>
            <trkpt lon="101.412070" lat="14.187577">
                <ele>28.976929</ele>
                <time>2006-03-25T06:47:07Z</time>
            </trkpt>
            <trkpt lon="101.412220" lat="14.187512">
                <ele>28.496216</ele>
                <time>2006-03-25T06:47:11Z</time>
            </trkpt>
            <trkpt lon="101.412220" lat="14.187512">
                <ele>28.496216</ele>
                <time>2006-03-25T06:47:11Z</time>
            </trkpt>
            <trkpt lon="101.413314" lat="14.187469">
                <ele>28.015503</ele>
                <time>2006-03-25T06:47:31Z</time>
            </trkpt>
            <trkpt lon="101.413314" lat="14.187469">
                <ele>28.015503</ele>
                <time>2006-03-25T06:47:31Z</time>
            </trkpt>
            <trkpt lon="101.413400" lat="14.187448">
                <ele>28.015503</ele>
                <time>2006-03-25T06:47:33Z</time>
            </trkpt>
            <trkpt lon="101.413400" lat="14.187448">
                <ele>28.015503</ele>
                <time>2006-03-25T06:47:33Z</time>
            </trkpt>
            <trkpt lon="101.413980" lat="14.187427">
                <ele>28.496216</ele>
                <time>2006-03-25T06:47:48Z</time>
            </trkpt>
            <trkpt lon="101.413980" lat="14.187427">
                <ele>28.496216</ele>
                <time>2006-03-25T06:47:48Z</time>
            </trkpt>
            <trkpt lon="101.414022" lat="14.187427">
                <ele>28.496216</ele>
                <time>2006-03-25T06:47:50Z</time>
            </trkpt>
            <trkpt lon="101.414022" lat="14.187427">
                <ele>28.496216</ele>
                <time>2006-03-25T06:47:50Z</time>
            </trkpt>
            <trkpt lon="101.414044" lat="14.187384">
                <ele>28.496216</ele>
                <time>2006-03-25T06:47:53Z</time>
            </trkpt>
            <trkpt lon="101.414044" lat="14.187384">
                <ele>28.496216</ele>
                <time>2006-03-25T06:47:53Z</time>
            </trkpt>
            <trkpt lon="101.414022" lat="14.187083">
                <ele>28.976929</ele>
                <time>2006-03-25T06:48:07Z</time>
            </trkpt>
            <trkpt lon="101.414022" lat="14.187083">
                <ele>28.976929</ele>
                <time>2006-03-25T06:48:07Z</time>
            </trkpt>
            <trkpt lon="101.414022" lat="14.187062">
                <ele>28.976929</ele>
                <time>2006-03-25T06:48:09Z</time>
            </trkpt>
            <trkpt lon="101.414022" lat="14.187062">
                <ele>28.976929</ele>
                <time>2006-03-25T06:48:09Z</time>
            </trkpt>
            <trkpt lon="101.413915" lat="14.186954">
                <ele>28.976929</ele>
                <time>2006-03-25T06:48:27Z</time>
            </trkpt>
            <trkpt lon="101.413915" lat="14.186954">
                <ele>28.976929</ele>
                <time>2006-03-25T06:48:27Z</time>
            </trkpt>
            <trkpt lon="101.413894" lat="14.186933">
                <ele>28.976929</ele>
                <time>2006-03-25T06:48:56Z</time>
            </trkpt>
            <trkpt lon="101.413894" lat="14.186933">
                <ele>28.976929</ele>
                <time>2006-03-25T06:48:56Z</time>
            </trkpt>
            <trkpt lon="101.413915" lat="14.186869">
                <ele>28.976929</ele>
                <time>2006-03-25T06:49:13Z</time>
            </trkpt>
            <trkpt lon="101.413915" lat="14.186869">
                <ele>28.976929</ele>
                <time>2006-03-25T06:49:13Z</time>
            </trkpt>
            <trkpt lon="101.413894" lat="14.186847">
                <ele>28.976929</ele>
                <time>2006-03-25T06:49:30Z</time>
            </trkpt>
            <trkpt lon="101.413894" lat="14.186847">
                <ele>28.976929</ele>
                <time>2006-03-25T06:49:30Z</time>
            </trkpt>
            <trkpt lon="101.413915" lat="14.186826">
                <ele>28.976929</ele>
                <time>2006-03-25T06:49:37Z</time>
            </trkpt>
            <trkpt lon="101.413915" lat="14.186826">
                <ele>28.976929</ele>
                <time>2006-03-25T06:49:37Z</time>
            </trkpt>
            <trkpt lon="101.413915" lat="14.186783">
                <ele>28.496216</ele>
                <time>2006-03-25T06:49:42Z</time>
            </trkpt>
            <trkpt lon="101.413915" lat="14.186783">
                <ele>28.496216</ele>
                <time>2006-03-25T06:49:42Z</time>
            </trkpt>
            <trkpt lon="101.413915" lat="14.186783">
                <ele>29.938110</ele>
                <time>2006-03-25T06:49:57Z</time>
            </trkpt>
            <trkpt lon="101.413915" lat="14.186783">
                <ele>29.938110</ele>
                <time>2006-03-25T06:49:57Z</time>
            </trkpt>
            <trkpt lon="101.413894" lat="14.186783">
                <ele>29.457520</ele>
                <time>2006-03-25T06:51:53Z</time>
            </trkpt>
            <trkpt lon="101.413894" lat="14.186783">
                <ele>29.457520</ele>
                <time>2006-03-25T06:51:53Z</time>
            </trkpt>
            <trkpt lon="101.413894" lat="14.186740">
                <ele>29.457520</ele>
                <time>2006-03-25T06:51:57Z</time>
            </trkpt>
            <trkpt lon="101.413894" lat="14.186740">
                <ele>29.457520</ele>
                <time>2006-03-25T06:51:57Z</time>
            </trkpt>
            <trkpt lon="101.413829" lat="14.186590">
                <ele>28.015503</ele>
                <time>2006-03-25T06:52:11Z</time>
            </trkpt>
            <trkpt lon="101.413829" lat="14.186590">
                <ele>28.015503</ele>
                <time>2006-03-25T06:52:11Z</time>
            </trkpt>
            <trkpt lon="101.413829" lat="14.186547">
                <ele>27.534912</ele>
                <time>2006-03-25T06:52:16Z</time>
            </trkpt>
            <trkpt lon="101.413829" lat="14.186547">
                <ele>27.534912</ele>
                <time>2006-03-25T06:52:16Z</time>
            </trkpt>
            <trkpt lon="101.413851" lat="14.186440">
                <ele>29.457520</ele>
                <time>2006-03-25T06:52:32Z</time>
            </trkpt>
            <trkpt lon="101.413851" lat="14.186440">
                <ele>29.457520</ele>
                <time>2006-03-25T06:52:32Z</time>
            </trkpt>
            <trkpt lon="101.413851" lat="14.186440">
                <ele>29.457520</ele>
                <time>2006-03-25T06:52:50Z</time>
            </trkpt>
            <trkpt lon="101.413851" lat="14.186440">
                <ele>29.457520</ele>
                <time>2006-03-25T06:52:50Z</time>
            </trkpt>
            <trkpt lon="101.413872" lat="14.186418">
                <ele>29.457520</ele>
                <time>2006-03-25T06:52:59Z</time>
            </trkpt>
            <trkpt lon="101.413872" lat="14.186418">
                <ele>29.457520</ele>
                <time>2006-03-25T06:52:59Z</time>
            </trkpt>
            <trkpt lon="101.414237" lat="14.186375">
                <ele>30.899536</ele>
                <time>2006-03-25T06:53:13Z</time>
            </trkpt>
            <trkpt lon="101.414237" lat="14.186375">
                <ele>30.899536</ele>
                <time>2006-03-25T06:53:13Z</time>
            </trkpt>
            <trkpt lon="101.414988" lat="14.186246">
                <ele>32.822266</ele>
                <time>2006-03-25T06:53:31Z</time>
            </trkpt>
            <trkpt lon="101.414988" lat="14.186246">
                <ele>32.822266</ele>
                <time>2006-03-25T06:53:31Z</time>
            </trkpt>
            <trkpt lon="101.415546" lat="14.186182">
                <ele>34.744873</ele>
                <time>2006-03-25T06:53:46Z</time>
            </trkpt>
            <trkpt lon="101.415546" lat="14.186182">
                <ele>34.744873</ele>
                <time>2006-03-25T06:53:46Z</time>
            </trkpt>
            <trkpt lon="101.416082" lat="14.186225">
                <ele>36.667480</ele>
                <time>2006-03-25T06:54:02Z</time>
            </trkpt>
            <trkpt lon="101.416082" lat="14.186225">
                <ele>36.667480</ele>
                <time>2006-03-25T06:54:02Z</time>
            </trkpt>
            <trkpt lon="101.416683" lat="14.186332">
                <ele>38.590088</ele>
                <time>2006-03-25T06:54:20Z</time>
            </trkpt>
            <trkpt lon="101.416683" lat="14.186332">
                <ele>38.590088</ele>
                <time>2006-03-25T06:54:20Z</time>
            </trkpt>
            <trkpt lon="101.417327" lat="14.186482">
                <ele>38.590088</ele>
                <time>2006-03-25T06:54:36Z</time>
            </trkpt>
            <trkpt lon="101.417327" lat="14.186482">
                <ele>38.590088</ele>
                <time>2006-03-25T06:54:36Z</time>
            </trkpt>
            <trkpt lon="101.417713" lat="14.186611">
                <ele>37.148071</ele>
                <time>2006-03-25T06:54:44Z</time>
            </trkpt>
            <trkpt lon="101.417713" lat="14.186611">
                <ele>37.148071</ele>
                <time>2006-03-25T06:54:44Z</time>
            </trkpt>
            <trkpt lon="101.418207" lat="14.186547">
                <ele>37.148071</ele>
                <time>2006-03-25T06:54:54Z</time>
            </trkpt>
            <trkpt lon="101.418207" lat="14.186547">
                <ele>37.148071</ele>
                <time>2006-03-25T06:54:54Z</time>
            </trkpt>
            <trkpt lon="101.418464" lat="14.186547">
                <ele>37.148071</ele>
                <time>2006-03-25T06:54:59Z</time>
            </trkpt>
            <trkpt lon="101.418464" lat="14.186547">
                <ele>37.148071</ele>
                <time>2006-03-25T06:54:59Z</time>
            </trkpt>
            <trkpt lon="101.419322" lat="14.186525">
                <ele>38.109375</ele>
                <time>2006-03-25T06:55:16Z</time>
            </trkpt>
            <trkpt lon="101.419322" lat="14.186525">
                <ele>38.109375</ele>
                <time>2006-03-25T06:55:16Z</time>
            </trkpt>
            <trkpt lon="101.419945" lat="14.186504">
                <ele>38.109375</ele>
                <time>2006-03-25T06:55:33Z</time>
            </trkpt>
            <trkpt lon="101.419945" lat="14.186504">
                <ele>38.109375</ele>
                <time>2006-03-25T06:55:33Z</time>
            </trkpt>
            <trkpt lon="101.420224" lat="14.186461">
                <ele>38.109375</ele>
                <time>2006-03-25T06:55:44Z</time>
            </trkpt>
            <trkpt lon="101.420224" lat="14.186461">
                <ele>38.109375</ele>
                <time>2006-03-25T06:55:44Z</time>
            </trkpt>
            <trkpt lon="101.420267" lat="14.186418">
                <ele>38.590088</ele>
                <time>2006-03-25T06:55:46Z</time>
            </trkpt>
            <trkpt lon="101.420267" lat="14.186418">
                <ele>38.590088</ele>
                <time>2006-03-25T06:55:46Z</time>
            </trkpt>
            <trkpt lon="101.420138" lat="14.186075">
                <ele>38.109375</ele>
                <time>2006-03-25T06:56:01Z</time>
            </trkpt>
            <trkpt lon="101.420138" lat="14.186075">
                <ele>38.109375</ele>
                <time>2006-03-25T06:56:01Z</time>
            </trkpt>
            <trkpt lon="101.420052" lat="14.185946">
                <ele>37.628662</ele>
                <time>2006-03-25T06:56:19Z</time>
            </trkpt>
            <trkpt lon="101.420052" lat="14.185946">
                <ele>37.628662</ele>
                <time>2006-03-25T06:56:19Z</time>
            </trkpt>
            <trkpt lon="101.419837" lat="14.185796">
                <ele>37.148071</ele>
                <time>2006-03-25T06:56:32Z</time>
            </trkpt>
            <trkpt lon="101.419837" lat="14.185796">
                <ele>37.148071</ele>
                <time>2006-03-25T06:56:32Z</time>
            </trkpt>
            <trkpt lon="101.419516" lat="14.185474">
                <ele>37.148071</ele>
                <time>2006-03-25T06:56:47Z</time>
            </trkpt>
            <trkpt lon="101.419516" lat="14.185474">
                <ele>37.148071</ele>
                <time>2006-03-25T06:56:47Z</time>
            </trkpt>
            <trkpt lon="101.419151" lat="14.185109">
                <ele>33.302856</ele>
                <time>2006-03-25T06:57:01Z</time>
            </trkpt>
            <trkpt lon="101.419151" lat="14.185109">
                <ele>33.302856</ele>
                <time>2006-03-25T06:57:01Z</time>
            </trkpt>
            <trkpt lon="101.418958" lat="14.184744">
                <ele>32.341553</ele>
                <time>2006-03-25T06:57:16Z</time>
            </trkpt>
            <trkpt lon="101.418958" lat="14.184744">
                <ele>32.341553</ele>
                <time>2006-03-25T06:57:16Z</time>
            </trkpt>
            <trkpt lon="101.418743" lat="14.184680">
                <ele>31.380127</ele>
                <time>2006-03-25T06:57:36Z</time>
            </trkpt>
            <trkpt lon="101.418743" lat="14.184680">
                <ele>31.380127</ele>
                <time>2006-03-25T06:57:36Z</time>
            </trkpt>
            <trkpt lon="101.418657" lat="14.184744">
                <ele>31.380127</ele>
                <time>2006-03-25T06:57:51Z</time>
            </trkpt>
            <trkpt lon="101.418657" lat="14.184744">
                <ele>31.380127</ele>
                <time>2006-03-25T06:57:51Z</time>
            </trkpt>
            <trkpt lon="101.418335" lat="14.184637">
                <ele>30.418823</ele>
                <time>2006-03-25T06:58:18Z</time>
            </trkpt>
            <trkpt lon="101.418335" lat="14.184637">
                <ele>30.418823</ele>
                <time>2006-03-25T06:58:18Z</time>
            </trkpt>
            <trkpt lon="101.417606" lat="14.184594">
                <ele>30.418823</ele>
                <time>2006-03-25T06:59:04Z</time>
            </trkpt>
            <trkpt lon="101.417606" lat="14.184594">
                <ele>30.418823</ele>
                <time>2006-03-25T06:59:04Z</time>
            </trkpt>
            <trkpt lon="101.417327" lat="14.184208">
                <ele>30.899536</ele>
                <time>2006-03-25T06:59:18Z</time>
            </trkpt>
            <trkpt lon="101.417327" lat="14.184208">
                <ele>30.899536</ele>
                <time>2006-03-25T06:59:18Z</time>
            </trkpt>
            <trkpt lon="101.417027" lat="14.184122">
                <ele>28.496216</ele>
                <time>2006-03-25T06:59:31Z</time>
            </trkpt>
            <trkpt lon="101.417027" lat="14.184122">
                <ele>28.496216</ele>
                <time>2006-03-25T06:59:31Z</time>
            </trkpt>
            <trkpt lon="101.416361" lat="14.184229">
                <ele>28.015503</ele>
                <time>2006-03-25T07:00:09Z</time>
            </trkpt>
            <trkpt lon="101.416361" lat="14.184229">
                <ele>28.015503</ele>
                <time>2006-03-25T07:00:09Z</time>
            </trkpt>
            <trkpt lon="101.415632" lat="14.184401">
                <ele>30.418823</ele>
                <time>2006-03-25T07:00:34Z</time>
            </trkpt>
            <trkpt lon="101.415632" lat="14.184401">
                <ele>30.418823</ele>
                <time>2006-03-25T07:00:34Z</time>
            </trkpt>
            <trkpt lon="101.415331" lat="14.184465">
                <ele>29.938110</ele>
                <time>2006-03-25T07:00:42Z</time>
            </trkpt>
            <trkpt lon="101.415331" lat="14.184465">
                <ele>29.938110</ele>
                <time>2006-03-25T07:00:42Z</time>
            </trkpt>
            <trkpt lon="101.415267" lat="14.184358">
                <ele>29.938110</ele>
                <time>2006-03-25T07:00:46Z</time>
            </trkpt>
            <trkpt lon="101.415267" lat="14.184358">
                <ele>29.938110</ele>
                <time>2006-03-25T07:00:46Z</time>
            </trkpt>
            <trkpt lon="101.415095" lat="14.183908">
                <ele>30.418823</ele>
                <time>2006-03-25T07:01:00Z</time>
            </trkpt>
            <trkpt lon="101.415095" lat="14.183908">
                <ele>30.418823</ele>
                <time>2006-03-25T07:01:00Z</time>
            </trkpt>
            <trkpt lon="101.414988" lat="14.183736">
                <ele>29.457520</ele>
                <time>2006-03-25T07:01:10Z</time>
            </trkpt>
            <trkpt lon="101.414988" lat="14.183736">
                <ele>29.457520</ele>
                <time>2006-03-25T07:01:10Z</time>
            </trkpt>
            <trkpt lon="101.414795" lat="14.183457">
                <ele>28.496216</ele>
                <time>2006-03-25T07:01:23Z</time>
            </trkpt>
            <trkpt lon="101.414795" lat="14.183457">
                <ele>28.496216</ele>
                <time>2006-03-25T07:01:23Z</time>
            </trkpt>
            <trkpt lon="101.414602" lat="14.183114">
                <ele>29.938110</ele>
                <time>2006-03-25T07:01:35Z</time>
            </trkpt>
            <trkpt lon="101.414602" lat="14.183114">
                <ele>29.938110</ele>
                <time>2006-03-25T07:01:35Z</time>
            </trkpt>
            <trkpt lon="101.414924" lat="14.182899">
                <ele>29.938110</ele>
                <time>2006-03-25T07:01:48Z</time>
            </trkpt>
            <trkpt lon="101.414924" lat="14.182899">
                <ele>29.938110</ele>
                <time>2006-03-25T07:01:48Z</time>
            </trkpt>
            <trkpt lon="101.415589" lat="14.182513">
                <ele>31.380127</ele>
                <time>2006-03-25T07:02:06Z</time>
            </trkpt>
            <trkpt lon="101.415589" lat="14.182513">
                <ele>31.380127</ele>
                <time>2006-03-25T07:02:06Z</time>
            </trkpt>
            <trkpt lon="101.416297" lat="14.182084">
                <ele>32.341553</ele>
                <time>2006-03-25T07:02:24Z</time>
            </trkpt>
            <trkpt lon="101.416297" lat="14.182084">
                <ele>32.341553</ele>
                <time>2006-03-25T07:02:24Z</time>
            </trkpt>
            <trkpt lon="101.417027" lat="14.181654">
                <ele>31.860718</ele>
                <time>2006-03-25T07:02:41Z</time>
            </trkpt>
            <trkpt lon="101.417027" lat="14.181654">
                <ele>31.860718</ele>
                <time>2006-03-25T07:02:41Z</time>
            </trkpt>
            <trkpt lon="101.417906" lat="14.181161">
                <ele>31.860718</ele>
                <time>2006-03-25T07:03:00Z</time>
            </trkpt>
            <trkpt lon="101.417906" lat="14.181161">
                <ele>31.860718</ele>
                <time>2006-03-25T07:03:00Z</time>
            </trkpt>
            <trkpt lon="101.418936" lat="14.180560">
                <ele>30.899536</ele>
                <time>2006-03-25T07:03:22Z</time>
            </trkpt>
            <trkpt lon="101.418936" lat="14.180560">
                <ele>30.899536</ele>
                <time>2006-03-25T07:03:22Z</time>
            </trkpt>
            <trkpt lon="101.419816" lat="14.180045">
                <ele>31.380127</ele>
                <time>2006-03-25T07:03:42Z</time>
            </trkpt>
            <trkpt lon="101.419816" lat="14.180045">
                <ele>31.380127</ele>
                <time>2006-03-25T07:03:42Z</time>
            </trkpt>
            <trkpt lon="101.420739" lat="14.179616">
                <ele>32.341553</ele>
                <time>2006-03-25T07:04:02Z</time>
            </trkpt>
            <trkpt lon="101.420739" lat="14.179616">
                <ele>32.341553</ele>
                <time>2006-03-25T07:04:02Z</time>
            </trkpt>
            <trkpt lon="101.421812" lat="14.179294">
                <ele>32.822266</ele>
                <time>2006-03-25T07:04:25Z</time>
            </trkpt>
            <trkpt lon="101.421812" lat="14.179294">
                <ele>32.822266</ele>
                <time>2006-03-25T07:04:25Z</time>
            </trkpt>
            <trkpt lon="101.422262" lat="14.179122">
                <ele>32.822266</ele>
                <time>2006-03-25T07:04:34Z</time>
            </trkpt>
            <trkpt lon="101.422262" lat="14.179122">
                <ele>32.822266</ele>
                <time>2006-03-25T07:04:34Z</time>
            </trkpt>
            <trkpt lon="101.422627" lat="14.178801">
                <ele>31.380127</ele>
                <time>2006-03-25T07:04:43Z</time>
            </trkpt>
            <trkpt lon="101.422627" lat="14.178801">
                <ele>31.380127</ele>
                <time>2006-03-25T07:04:43Z</time>
            </trkpt>
            <trkpt lon="101.422906" lat="14.177771">
                <ele>28.496216</ele>
                <time>2006-03-25T07:05:00Z</time>
            </trkpt>
            <trkpt lon="101.422906" lat="14.177771">
                <ele>28.496216</ele>
                <time>2006-03-25T07:05:00Z</time>
            </trkpt>
            <trkpt lon="101.423142" lat="14.176354">
                <ele>27.534912</ele>
                <time>2006-03-25T07:05:22Z</time>
            </trkpt>
            <trkpt lon="101.423142" lat="14.176354">
                <ele>27.534912</ele>
                <time>2006-03-25T07:05:22Z</time>
            </trkpt>
            <trkpt lon="101.423442" lat="14.175367">
                <ele>27.054321</ele>
                <time>2006-03-25T07:05:38Z</time>
            </trkpt>
            <trkpt lon="101.423442" lat="14.175367">
                <ele>27.054321</ele>
                <time>2006-03-25T07:05:38Z</time>
            </trkpt>
            <trkpt lon="101.423764" lat="14.174831">
                <ele>26.092896</ele>
                <time>2006-03-25T07:05:50Z</time>
            </trkpt>
            <trkpt lon="101.423764" lat="14.174831">
                <ele>26.092896</ele>
                <time>2006-03-25T07:05:50Z</time>
            </trkpt>
            <trkpt lon="101.424344" lat="14.174402">
                <ele>26.092896</ele>
                <time>2006-03-25T07:06:04Z</time>
            </trkpt>
            <trkpt lon="101.424344" lat="14.174402">
                <ele>26.092896</ele>
                <time>2006-03-25T07:06:04Z</time>
            </trkpt>
            <trkpt lon="101.424816" lat="14.174080">
                <ele>25.612305</ele>
                <time>2006-03-25T07:06:15Z</time>
            </trkpt>
            <trkpt lon="101.424816" lat="14.174080">
                <ele>25.612305</ele>
                <time>2006-03-25T07:06:15Z</time>
            </trkpt>
            <trkpt lon="101.425030" lat="14.174123">
                <ele>27.534912</ele>
                <time>2006-03-25T07:06:21Z</time>
            </trkpt>
            <trkpt lon="101.425030" lat="14.174123">
                <ele>27.534912</ele>
                <time>2006-03-25T07:06:21Z</time>
            </trkpt>
            <trkpt lon="101.425073" lat="14.174573">
                <ele>28.496216</ele>
                <time>2006-03-25T07:06:41Z</time>
            </trkpt>
            <trkpt lon="101.425073" lat="14.174573">
                <ele>28.496216</ele>
                <time>2006-03-25T07:06:41Z</time>
            </trkpt>
            <trkpt lon="101.425095" lat="14.174595">
                <ele>28.976929</ele>
                <time>2006-03-25T07:06:46Z</time>
            </trkpt>
            <trkpt lon="101.425095" lat="14.174595">
                <ele>28.976929</ele>
                <time>2006-03-25T07:06:46Z</time>
            </trkpt>
            <trkpt lon="101.425030" lat="14.174144">
                <ele>27.534912</ele>
                <time>2006-03-25T07:07:04Z</time>
            </trkpt>
            <trkpt lon="101.425030" lat="14.174144">
                <ele>27.534912</ele>
                <time>2006-03-25T07:07:04Z</time>
            </trkpt>
            <trkpt lon="101.424923" lat="14.173865">
                <ele>27.054321</ele>
                <time>2006-03-25T07:07:12Z</time>
            </trkpt>
            <trkpt lon="101.424923" lat="14.173865">
                <ele>27.054321</ele>
                <time>2006-03-25T07:07:12Z</time>
            </trkpt>
            <trkpt lon="101.425030" lat="14.173779">
                <ele>27.054321</ele>
                <time>2006-03-25T07:07:16Z</time>
            </trkpt>
            <trkpt lon="101.425030" lat="14.173779">
                <ele>27.054321</ele>
                <time>2006-03-25T07:07:16Z</time>
            </trkpt>
            <trkpt lon="101.425180" lat="14.173672">
                <ele>27.534912</ele>
                <time>2006-03-25T07:07:20Z</time>
            </trkpt>
            <trkpt lon="101.425180" lat="14.173672">
                <ele>27.534912</ele>
                <time>2006-03-25T07:07:20Z</time>
            </trkpt>
            <trkpt lon="101.425352" lat="14.173543">
                <ele>27.534912</ele>
                <time>2006-03-25T07:07:24Z</time>
            </trkpt>
            <trkpt lon="101.425352" lat="14.173543">
                <ele>27.534912</ele>
                <time>2006-03-25T07:07:24Z</time>
            </trkpt>
            <trkpt lon="101.426275" lat="14.173157">
                <ele>26.573608</ele>
                <time>2006-03-25T07:07:45Z</time>
            </trkpt>
            <trkpt lon="101.426275" lat="14.173157">
                <ele>26.573608</ele>
                <time>2006-03-25T07:07:45Z</time>
            </trkpt>
            <trkpt lon="101.426833" lat="14.172900">
                <ele>26.092896</ele>
                <time>2006-03-25T07:07:58Z</time>
            </trkpt>
            <trkpt lon="101.426833" lat="14.172900">
                <ele>26.092896</ele>
                <time>2006-03-25T07:07:58Z</time>
            </trkpt>
            <trkpt lon="101.427519" lat="14.172320">
                <ele>24.651001</ele>
                <time>2006-03-25T07:08:16Z</time>
            </trkpt>
            <trkpt lon="101.427519" lat="14.172320">
                <ele>24.651001</ele>
                <time>2006-03-25T07:08:16Z</time>
            </trkpt>
            <trkpt lon="101.428356" lat="14.171484">
                <ele>24.651001</ele>
                <time>2006-03-25T07:08:37Z</time>
            </trkpt>
            <trkpt lon="101.428356" lat="14.171484">
                <ele>24.651001</ele>
                <time>2006-03-25T07:08:37Z</time>
            </trkpt>
            <trkpt lon="101.429021" lat="14.170690">
                <ele>23.208984</ele>
                <time>2006-03-25T07:08:56Z</time>
            </trkpt>
            <trkpt lon="101.429021" lat="14.170690">
                <ele>23.208984</ele>
                <time>2006-03-25T07:08:56Z</time>
            </trkpt>
            <trkpt lon="101.429708" lat="14.169874">
                <ele>22.728271</ele>
                <time>2006-03-25T07:09:15Z</time>
            </trkpt>
            <trkpt lon="101.429708" lat="14.169874">
                <ele>22.728271</ele>
                <time>2006-03-25T07:09:15Z</time>
            </trkpt>
            <trkpt lon="101.430480" lat="14.169230">
                <ele>23.208984</ele>
                <time>2006-03-25T07:09:33Z</time>
            </trkpt>
            <trkpt lon="101.430480" lat="14.169230">
                <ele>23.208984</ele>
                <time>2006-03-25T07:09:33Z</time>
            </trkpt>
            <trkpt lon="101.430802" lat="14.168994">
                <ele>22.728271</ele>
                <time>2006-03-25T07:09:40Z</time>
            </trkpt>
            <trkpt lon="101.430802" lat="14.168994">
                <ele>22.728271</ele>
                <time>2006-03-25T07:09:40Z</time>
            </trkpt>
            <trkpt lon="101.431489" lat="14.168243">
                <ele>22.728271</ele>
                <time>2006-03-25T07:09:58Z</time>
            </trkpt>
            <trkpt lon="101.431489" lat="14.168243">
                <ele>22.728271</ele>
                <time>2006-03-25T07:09:58Z</time>
            </trkpt>
            <trkpt lon="101.432197" lat="14.167407">
                <ele>23.208984</ele>
                <time>2006-03-25T07:10:19Z</time>
            </trkpt>
            <trkpt lon="101.432197" lat="14.167407">
                <ele>23.208984</ele>
                <time>2006-03-25T07:10:19Z</time>
            </trkpt>
            <trkpt lon="101.432884" lat="14.166763">
                <ele>23.208984</ele>
                <time>2006-03-25T07:10:36Z</time>
            </trkpt>
            <trkpt lon="101.432884" lat="14.166763">
                <ele>23.208984</ele>
                <time>2006-03-25T07:10:36Z</time>
            </trkpt>
            <trkpt lon="101.433527" lat="14.166183">
                <ele>22.728271</ele>
                <time>2006-03-25T07:10:55Z</time>
            </trkpt>
            <trkpt lon="101.433527" lat="14.166183">
                <ele>22.728271</ele>
                <time>2006-03-25T07:10:55Z</time>
            </trkpt>
            <trkpt lon="101.433892" lat="14.165733">
                <ele>23.689575</ele>
                <time>2006-03-25T07:11:09Z</time>
            </trkpt>
            <trkpt lon="101.433892" lat="14.165733">
                <ele>23.689575</ele>
                <time>2006-03-25T07:11:09Z</time>
            </trkpt>
            <trkpt lon="101.434214" lat="14.165218">
                <ele>23.208984</ele>
                <time>2006-03-25T07:11:22Z</time>
            </trkpt>
            <trkpt lon="101.434214" lat="14.165218">
                <ele>23.208984</ele>
                <time>2006-03-25T07:11:22Z</time>
            </trkpt>
            <trkpt lon="101.434107" lat="14.165111">
                <ele>23.689575</ele>
                <time>2006-03-25T07:11:28Z</time>
            </trkpt>
            <trkpt lon="101.434107" lat="14.165111">
                <ele>23.689575</ele>
                <time>2006-03-25T07:11:28Z</time>
            </trkpt>
            <trkpt lon="101.434128" lat="14.164617">
                <ele>23.689575</ele>
                <time>2006-03-25T07:11:40Z</time>
            </trkpt>
            <trkpt lon="101.434128" lat="14.164617">
                <ele>23.689575</ele>
                <time>2006-03-25T07:11:40Z</time>
            </trkpt>
            <trkpt lon="101.434085" lat="14.164081">
                <ele>23.208984</ele>
                <time>2006-03-25T07:11:51Z</time>
            </trkpt>
            <trkpt lon="101.434085" lat="14.164081">
                <ele>23.208984</ele>
                <time>2006-03-25T07:11:51Z</time>
            </trkpt>
            <trkpt lon="101.434000" lat="14.163930">
                <ele>23.208984</ele>
                <time>2006-03-25T07:11:55Z</time>
            </trkpt>
            <trkpt lon="101.434000" lat="14.163930">
                <ele>23.208984</ele>
                <time>2006-03-25T07:11:55Z</time>
            </trkpt>
            <trkpt lon="101.433570" lat="14.163308">
                <ele>23.208984</ele>
                <time>2006-03-25T07:12:10Z</time>
            </trkpt>
            <trkpt lon="101.433570" lat="14.163308">
                <ele>23.208984</ele>
                <time>2006-03-25T07:12:10Z</time>
            </trkpt>
            <trkpt lon="101.433377" lat="14.162707">
                <ele>21.766968</ele>
                <time>2006-03-25T07:12:22Z</time>
            </trkpt>
            <trkpt lon="101.433377" lat="14.162707">
                <ele>21.766968</ele>
                <time>2006-03-25T07:12:22Z</time>
            </trkpt>
            <trkpt lon="101.433270" lat="14.162536">
                <ele>22.247559</ele>
                <time>2006-03-25T07:12:26Z</time>
            </trkpt>
            <trkpt lon="101.433270" lat="14.162536">
                <ele>22.247559</ele>
                <time>2006-03-25T07:12:26Z</time>
            </trkpt>
            <trkpt lon="101.433098" lat="14.162407">
                <ele>22.247559</ele>
                <time>2006-03-25T07:12:30Z</time>
            </trkpt>
            <trkpt lon="101.433098" lat="14.162407">
                <ele>22.247559</ele>
                <time>2006-03-25T07:12:30Z</time>
            </trkpt>
            <trkpt lon="101.432948" lat="14.162343">
                <ele>21.766968</ele>
                <time>2006-03-25T07:12:33Z</time>
            </trkpt>
            <trkpt lon="101.432948" lat="14.162343">
                <ele>21.766968</ele>
                <time>2006-03-25T07:12:33Z</time>
            </trkpt>
            <trkpt lon="101.432819" lat="14.162300">
                <ele>21.766968</ele>
                <time>2006-03-25T07:12:36Z</time>
            </trkpt>
            <trkpt lon="101.432819" lat="14.162300">
                <ele>21.766968</ele>
                <time>2006-03-25T07:12:36Z</time>
            </trkpt>
            <trkpt lon="101.432712" lat="14.162278">
                <ele>21.766968</ele>
                <time>2006-03-25T07:12:38Z</time>
            </trkpt>
            <trkpt lon="101.432712" lat="14.162278">
                <ele>21.766968</ele>
                <time>2006-03-25T07:12:38Z</time>
            </trkpt>
            <trkpt lon="101.432562" lat="14.162257">
                <ele>21.766968</ele>
                <time>2006-03-25T07:12:41Z</time>
            </trkpt>
            <trkpt lon="101.432562" lat="14.162257">
                <ele>21.766968</ele>
                <time>2006-03-25T07:12:41Z</time>
            </trkpt>
            <trkpt lon="101.432390" lat="14.162042">
                <ele>22.247559</ele>
                <time>2006-03-25T07:12:48Z</time>
            </trkpt>
            <trkpt lon="101.432390" lat="14.162042">
                <ele>22.247559</ele>
                <time>2006-03-25T07:12:48Z</time>
            </trkpt>
            <trkpt lon="101.432390" lat="14.161034">
                <ele>21.766968</ele>
                <time>2006-03-25T07:13:08Z</time>
            </trkpt>
            <trkpt lon="101.432390" lat="14.161034">
                <ele>21.766968</ele>
                <time>2006-03-25T07:13:08Z</time>
            </trkpt>
            <trkpt lon="101.432390" lat="14.160926">
                <ele>21.766968</ele>
                <time>2006-03-25T07:13:10Z</time>
            </trkpt>
            <trkpt lon="101.432390" lat="14.160926">
                <ele>21.766968</ele>
                <time>2006-03-25T07:13:10Z</time>
            </trkpt>
            <trkpt lon="101.432133" lat="14.160283">
                <ele>21.766968</ele>
                <time>2006-03-25T07:13:25Z</time>
            </trkpt>
            <trkpt lon="101.432133" lat="14.160283">
                <ele>21.766968</ele>
                <time>2006-03-25T07:13:25Z</time>
            </trkpt>
            <trkpt lon="101.432133" lat="14.160004">
                <ele>21.286377</ele>
                <time>2006-03-25T07:13:31Z</time>
            </trkpt>
            <trkpt lon="101.432133" lat="14.160004">
                <ele>21.286377</ele>
                <time>2006-03-25T07:13:31Z</time>
            </trkpt>
            <trkpt lon="101.432455" lat="14.159188">
                <ele>20.805664</ele>
                <time>2006-03-25T07:13:48Z</time>
            </trkpt>
            <trkpt lon="101.432455" lat="14.159188">
                <ele>20.805664</ele>
                <time>2006-03-25T07:13:48Z</time>
            </trkpt>
            <trkpt lon="101.432798" lat="14.158201">
                <ele>19.844360</ele>
                <time>2006-03-25T07:14:08Z</time>
            </trkpt>
            <trkpt lon="101.432798" lat="14.158201">
                <ele>19.844360</ele>
                <time>2006-03-25T07:14:08Z</time>
            </trkpt>
            <trkpt lon="101.432862" lat="14.157836">
                <ele>19.844360</ele>
                <time>2006-03-25T07:14:15Z</time>
            </trkpt>
            <trkpt lon="101.432862" lat="14.157836">
                <ele>19.844360</ele>
                <time>2006-03-25T07:14:15Z</time>
            </trkpt>
            <trkpt lon="101.432798" lat="14.157386">
                <ele>19.844360</ele>
                <time>2006-03-25T07:14:24Z</time>
            </trkpt>
            <trkpt lon="101.432798" lat="14.157386">
                <ele>19.844360</ele>
                <time>2006-03-25T07:14:24Z</time>
            </trkpt>
            <trkpt lon="101.432605" lat="14.157000">
                <ele>18.883057</ele>
                <time>2006-03-25T07:14:33Z</time>
            </trkpt>
            <trkpt lon="101.432605" lat="14.157000">
                <ele>18.883057</ele>
                <time>2006-03-25T07:14:33Z</time>
            </trkpt>
            <trkpt lon="101.432583" lat="14.156849">
                <ele>18.402344</ele>
                <time>2006-03-25T07:14:36Z</time>
            </trkpt>
            <trkpt lon="101.432583" lat="14.156849">
                <ele>18.402344</ele>
                <time>2006-03-25T07:14:36Z</time>
            </trkpt>
            <trkpt lon="101.432712" lat="14.156034">
                <ele>18.402344</ele>
                <time>2006-03-25T07:14:52Z</time>
            </trkpt>
            <trkpt lon="101.432712" lat="14.156034">
                <ele>18.402344</ele>
                <time>2006-03-25T07:14:52Z</time>
            </trkpt>
            <trkpt lon="101.432734" lat="14.154918">
                <ele>18.883057</ele>
                <time>2006-03-25T07:15:13Z</time>
            </trkpt>
            <trkpt lon="101.432734" lat="14.154918">
                <ele>18.883057</ele>
                <time>2006-03-25T07:15:13Z</time>
            </trkpt>
            <trkpt lon="101.432755" lat="14.154532">
                <ele>18.402344</ele>
                <time>2006-03-25T07:15:20Z</time>
            </trkpt>
            <trkpt lon="101.432755" lat="14.154532">
                <ele>18.402344</ele>
                <time>2006-03-25T07:15:20Z</time>
            </trkpt>
            <trkpt lon="101.432562" lat="14.154360">
                <ele>17.921753</ele>
                <time>2006-03-25T07:15:26Z</time>
            </trkpt>
            <trkpt lon="101.432562" lat="14.154360">
                <ele>17.921753</ele>
                <time>2006-03-25T07:15:26Z</time>
            </trkpt>
            <trkpt lon="101.432326" lat="14.154339">
                <ele>17.441162</ele>
                <time>2006-03-25T07:15:31Z</time>
            </trkpt>
            <trkpt lon="101.432326" lat="14.154339">
                <ele>17.441162</ele>
                <time>2006-03-25T07:15:31Z</time>
            </trkpt>
            <trkpt lon="101.432219" lat="14.154339">
                <ele>17.441162</ele>
                <time>2006-03-25T07:15:33Z</time>
            </trkpt>
            <trkpt lon="101.432219" lat="14.154339">
                <ele>17.441162</ele>
                <time>2006-03-25T07:15:33Z</time>
            </trkpt>
            <trkpt lon="101.432111" lat="14.154189">
                <ele>18.402344</ele>
                <time>2006-03-25T07:15:37Z</time>
            </trkpt>
            <trkpt lon="101.432111" lat="14.154189">
                <ele>18.402344</ele>
                <time>2006-03-25T07:15:37Z</time>
            </trkpt>
            <trkpt lon="101.431940" lat="14.153910">
                <ele>19.363770</ele>
                <time>2006-03-25T07:15:44Z</time>
            </trkpt>
            <trkpt lon="101.431940" lat="14.153910">
                <ele>19.363770</ele>
                <time>2006-03-25T07:15:44Z</time>
            </trkpt>
            <trkpt lon="101.431854" lat="14.153738">
                <ele>19.363770</ele>
                <time>2006-03-25T07:15:48Z</time>
            </trkpt>
            <trkpt lon="101.431854" lat="14.153738">
                <ele>19.363770</ele>
                <time>2006-03-25T07:15:48Z</time>
            </trkpt>
            <trkpt lon="101.431489" lat="14.153159">
                <ele>19.844360</ele>
                <time>2006-03-25T07:16:04Z</time>
            </trkpt>
            <trkpt lon="101.431489" lat="14.153159">
                <ele>19.844360</ele>
                <time>2006-03-25T07:16:04Z</time>
            </trkpt>
            <trkpt lon="101.431296" lat="14.152966">
                <ele>19.844360</ele>
                <time>2006-03-25T07:16:10Z</time>
            </trkpt>
            <trkpt lon="101.431296" lat="14.152966">
                <ele>19.844360</ele>
                <time>2006-03-25T07:16:10Z</time>
            </trkpt>
            <trkpt lon="101.430931" lat="14.152987">
                <ele>19.844360</ele>
                <time>2006-03-25T07:16:17Z</time>
            </trkpt>
            <trkpt lon="101.430931" lat="14.152987">
                <ele>19.844360</ele>
                <time>2006-03-25T07:16:17Z</time>
            </trkpt>
            <trkpt lon="101.430717" lat="14.152880">
                <ele>19.844360</ele>
                <time>2006-03-25T07:16:22Z</time>
            </trkpt>
            <trkpt lon="101.430717" lat="14.152880">
                <ele>19.844360</ele>
                <time>2006-03-25T07:16:22Z</time>
            </trkpt>
            <trkpt lon="101.430330" lat="14.152129">
                <ele>20.324951</ele>
                <time>2006-03-25T07:16:40Z</time>
            </trkpt>
            <trkpt lon="101.430330" lat="14.152129">
                <ele>20.324951</ele>
                <time>2006-03-25T07:16:40Z</time>
            </trkpt>
            <trkpt lon="101.430309" lat="14.152021">
                <ele>20.324951</ele>
                <time>2006-03-25T07:16:42Z</time>
            </trkpt>
            <trkpt lon="101.430309" lat="14.152021">
                <ele>20.324951</ele>
                <time>2006-03-25T07:16:42Z</time>
            </trkpt>
            <trkpt lon="101.430438" lat="14.151142">
                <ele>19.363770</ele>
                <time>2006-03-25T07:17:01Z</time>
            </trkpt>
            <trkpt lon="101.430438" lat="14.151142">
                <ele>19.363770</ele>
                <time>2006-03-25T07:17:01Z</time>
            </trkpt>
            <trkpt lon="101.430588" lat="14.150198">
                <ele>19.363770</ele>
                <time>2006-03-25T07:17:21Z</time>
            </trkpt>
            <trkpt lon="101.430588" lat="14.150198">
                <ele>19.363770</ele>
                <time>2006-03-25T07:17:21Z</time>
            </trkpt>
            <trkpt lon="101.430824" lat="14.149404">
                <ele>18.883057</ele>
                <time>2006-03-25T07:17:41Z</time>
            </trkpt>
            <trkpt lon="101.430824" lat="14.149404">
                <ele>18.883057</ele>
                <time>2006-03-25T07:17:41Z</time>
            </trkpt>
            <trkpt lon="101.430995" lat="14.148717">
                <ele>17.921753</ele>
                <time>2006-03-25T07:17:58Z</time>
            </trkpt>
            <trkpt lon="101.430995" lat="14.148717">
                <ele>17.921753</ele>
                <time>2006-03-25T07:17:58Z</time>
            </trkpt>
            <trkpt lon="101.430995" lat="14.148438">
                <ele>18.402344</ele>
                <time>2006-03-25T07:18:05Z</time>
            </trkpt>
            <trkpt lon="101.430995" lat="14.148438">
                <ele>18.402344</ele>
                <time>2006-03-25T07:18:05Z</time>
            </trkpt>
            <trkpt lon="101.430995" lat="14.148352">
                <ele>18.402344</ele>
                <time>2006-03-25T07:18:07Z</time>
            </trkpt>
            <trkpt lon="101.430995" lat="14.148352">
                <ele>18.402344</ele>
                <time>2006-03-25T07:18:07Z</time>
            </trkpt>
            <trkpt lon="101.430995" lat="14.148052">
                <ele>18.402344</ele>
                <time>2006-03-25T07:18:14Z</time>
            </trkpt>
            <trkpt lon="101.430995" lat="14.148052">
                <ele>18.402344</ele>
                <time>2006-03-25T07:18:14Z</time>
            </trkpt>
            <trkpt lon="101.431017" lat="14.147666">
                <ele>18.402344</ele>
                <time>2006-03-25T07:18:23Z</time>
            </trkpt>
            <trkpt lon="101.431017" lat="14.147666">
                <ele>18.402344</ele>
                <time>2006-03-25T07:18:23Z</time>
            </trkpt>
            <trkpt lon="101.430953" lat="14.147537">
                <ele>18.402344</ele>
                <time>2006-03-25T07:18:31Z</time>
            </trkpt>
            <trkpt lon="101.430953" lat="14.147537">
                <ele>18.402344</ele>
                <time>2006-03-25T07:18:31Z</time>
            </trkpt>
            <trkpt lon="101.430953" lat="14.147537">
                <ele>16.960449</ele>
                <time>2006-03-25T07:20:07Z</time>
            </trkpt>
            <trkpt lon="101.430953" lat="14.147537">
                <ele>16.960449</ele>
                <time>2006-03-25T07:20:07Z</time>
            </trkpt>
            <trkpt lon="101.430953" lat="14.147494">
                <ele>16.960449</ele>
                <time>2006-03-25T07:20:45Z</time>
            </trkpt>
            <trkpt lon="101.430953" lat="14.147494">
                <ele>16.960449</ele>
                <time>2006-03-25T07:20:45Z</time>
            </trkpt>
            <trkpt lon="101.430931" lat="14.147387">
                <ele>17.441162</ele>
                <time>2006-03-25T07:20:51Z</time>
            </trkpt>
            <trkpt lon="101.430931" lat="14.147387">
                <ele>17.441162</ele>
                <time>2006-03-25T07:20:51Z</time>
            </trkpt>
            <trkpt lon="101.430717" lat="14.147086">
                <ele>17.441162</ele>
                <time>2006-03-25T07:21:02Z</time>
            </trkpt>
            <trkpt lon="101.430717" lat="14.147086">
                <ele>17.441162</ele>
                <time>2006-03-25T07:21:02Z</time>
            </trkpt>
            <trkpt lon="101.429987" lat="14.147022">
                <ele>18.883057</ele>
                <time>2006-03-25T07:21:19Z</time>
            </trkpt>
            <trkpt lon="101.429987" lat="14.147022">
                <ele>18.883057</ele>
                <time>2006-03-25T07:21:19Z</time>
            </trkpt>
            <trkpt lon="101.429343" lat="14.146957">
                <ele>21.286377</ele>
                <time>2006-03-25T07:21:37Z</time>
            </trkpt>
            <trkpt lon="101.429343" lat="14.146957">
                <ele>21.286377</ele>
                <time>2006-03-25T07:21:37Z</time>
            </trkpt>
            <trkpt lon="101.428871" lat="14.146893">
                <ele>24.170288</ele>
                <time>2006-03-25T07:21:55Z</time>
            </trkpt>
            <trkpt lon="101.428871" lat="14.146893">
                <ele>24.170288</ele>
                <time>2006-03-25T07:21:55Z</time>
            </trkpt>
            <trkpt lon="101.428785" lat="14.146850">
                <ele>24.170288</ele>
                <time>2006-03-25T07:21:59Z</time>
            </trkpt>
            <trkpt lon="101.428785" lat="14.146850">
                <ele>24.170288</ele>
                <time>2006-03-25T07:21:59Z</time>
            </trkpt>
            <trkpt lon="101.428850" lat="14.146399">
                <ele>24.651001</ele>
                <time>2006-03-25T07:22:12Z</time>
            </trkpt>
            <trkpt lon="101.428850" lat="14.146399">
                <ele>24.651001</ele>
                <time>2006-03-25T07:22:12Z</time>
            </trkpt>
            <trkpt lon="101.428807" lat="14.145713">
                <ele>24.170288</ele>
                <time>2006-03-25T07:22:25Z</time>
            </trkpt>
            <trkpt lon="101.428807" lat="14.145713">
                <ele>24.170288</ele>
                <time>2006-03-25T07:22:25Z</time>
            </trkpt>
            <trkpt lon="101.428678" lat="14.145584">
                <ele>24.170288</ele>
                <time>2006-03-25T07:22:29Z</time>
            </trkpt>
            <trkpt lon="101.428678" lat="14.145584">
                <ele>24.170288</ele>
                <time>2006-03-25T07:22:29Z</time>
            </trkpt>
            <trkpt lon="101.427884" lat="14.145541">
                <ele>26.092896</ele>
                <time>2006-03-25T07:22:50Z</time>
            </trkpt>
            <trkpt lon="101.427884" lat="14.145541">
                <ele>26.092896</ele>
                <time>2006-03-25T07:22:50Z</time>
            </trkpt>
            <trkpt lon="101.427112" lat="14.145327">
                <ele>29.457520</ele>
                <time>2006-03-25T07:23:20Z</time>
            </trkpt>
            <trkpt lon="101.427112" lat="14.145327">
                <ele>29.457520</ele>
                <time>2006-03-25T07:23:20Z</time>
            </trkpt>
            <trkpt lon="101.426682" lat="14.144962">
                <ele>30.418823</ele>
                <time>2006-03-25T07:23:37Z</time>
            </trkpt>
            <trkpt lon="101.426682" lat="14.144962">
                <ele>30.418823</ele>
                <time>2006-03-25T07:23:37Z</time>
            </trkpt>
            <trkpt lon="101.426082" lat="14.144726">
                <ele>28.976929</ele>
                <time>2006-03-25T07:23:50Z</time>
            </trkpt>
            <trkpt lon="101.426082" lat="14.144726">
                <ele>28.976929</ele>
                <time>2006-03-25T07:23:50Z</time>
            </trkpt>
            <trkpt lon="101.424859" lat="14.144769">
                <ele>25.612305</ele>
                <time>2006-03-25T07:24:11Z</time>
            </trkpt>
            <trkpt lon="101.424859" lat="14.144769">
                <ele>25.612305</ele>
                <time>2006-03-25T07:24:11Z</time>
            </trkpt>
            <trkpt lon="101.424365" lat="14.144833">
                <ele>22.247559</ele>
                <time>2006-03-25T07:24:19Z</time>
            </trkpt>
            <trkpt lon="101.424365" lat="14.144833">
                <ele>22.247559</ele>
                <time>2006-03-25T07:24:19Z</time>
            </trkpt>
            <trkpt lon="101.424043" lat="14.145091">
                <ele>23.208984</ele>
                <time>2006-03-25T07:24:29Z</time>
            </trkpt>
            <trkpt lon="101.424043" lat="14.145091">
                <ele>23.208984</ele>
                <time>2006-03-25T07:24:29Z</time>
            </trkpt>
            <trkpt lon="101.423507" lat="14.145348">
                <ele>26.573608</ele>
                <time>2006-03-25T07:24:51Z</time>
            </trkpt>
            <trkpt lon="101.423507" lat="14.145348">
                <ele>26.573608</ele>
                <time>2006-03-25T07:24:51Z</time>
            </trkpt>
            <trkpt lon="101.423099" lat="14.145584">
                <ele>26.092896</ele>
                <time>2006-03-25T07:25:12Z</time>
            </trkpt>
            <trkpt lon="101.423099" lat="14.145584">
                <ele>26.092896</ele>
                <time>2006-03-25T07:25:12Z</time>
            </trkpt>
            <trkpt lon="101.422756" lat="14.146099">
                <ele>25.131714</ele>
                <time>2006-03-25T07:25:37Z</time>
            </trkpt>
            <trkpt lon="101.422756" lat="14.146099">
                <ele>25.131714</ele>
                <time>2006-03-25T07:25:37Z</time>
            </trkpt>
            <trkpt lon="101.422369" lat="14.146206">
                <ele>28.015503</ele>
                <time>2006-03-25T07:25:53Z</time>
            </trkpt>
            <trkpt lon="101.422369" lat="14.146206">
                <ele>28.015503</ele>
                <time>2006-03-25T07:25:53Z</time>
            </trkpt>
            <trkpt lon="101.421747" lat="14.146142">
                <ele>24.651001</ele>
                <time>2006-03-25T07:26:10Z</time>
            </trkpt>
            <trkpt lon="101.421747" lat="14.146142">
                <ele>24.651001</ele>
                <time>2006-03-25T07:26:10Z</time>
            </trkpt>
            <trkpt lon="101.421554" lat="14.146185">
                <ele>24.651001</ele>
                <time>2006-03-25T07:26:13Z</time>
            </trkpt>
            <trkpt lon="101.421554" lat="14.146185">
                <ele>24.651001</ele>
                <time>2006-03-25T07:26:13Z</time>
            </trkpt>
            <trkpt lon="101.421146" lat="14.146314">
                <ele>23.689575</ele>
                <time>2006-03-25T07:26:23Z</time>
            </trkpt>
            <trkpt lon="101.421146" lat="14.146314">
                <ele>23.689575</ele>
                <time>2006-03-25T07:26:23Z</time>
            </trkpt>
            <trkpt lon="101.420867" lat="14.146464">
                <ele>22.247559</ele>
                <time>2006-03-25T07:26:34Z</time>
            </trkpt>
            <trkpt lon="101.420867" lat="14.146464">
                <ele>22.247559</ele>
                <time>2006-03-25T07:26:34Z</time>
            </trkpt>
            <trkpt lon="101.420739" lat="14.146636">
                <ele>23.208984</ele>
                <time>2006-03-25T07:26:46Z</time>
            </trkpt>
            <trkpt lon="101.420739" lat="14.146636">
                <ele>23.208984</ele>
                <time>2006-03-25T07:26:46Z</time>
            </trkpt>
            <trkpt lon="101.420717" lat="14.146678">
                <ele>23.208984</ele>
                <time>2006-03-25T07:26:51Z</time>
            </trkpt>
            <trkpt lon="101.420717" lat="14.146678">
                <ele>23.208984</ele>
                <time>2006-03-25T07:26:51Z</time>
            </trkpt>
            <trkpt lon="101.420610" lat="14.146764">
                <ele>23.208984</ele>
                <time>2006-03-25T07:27:07Z</time>
            </trkpt>
            <trkpt lon="101.420610" lat="14.146764">
                <ele>23.208984</ele>
                <time>2006-03-25T07:27:07Z</time>
            </trkpt>
            <trkpt lon="101.420546" lat="14.146850">
                <ele>23.689575</ele>
                <time>2006-03-25T07:27:24Z</time>
            </trkpt>
            <trkpt lon="101.420546" lat="14.146850">
                <ele>23.689575</ele>
                <time>2006-03-25T07:27:24Z</time>
            </trkpt>
            <trkpt lon="101.420503" lat="14.146936">
                <ele>22.247559</ele>
                <time>2006-03-25T07:27:35Z</time>
            </trkpt>
            <trkpt lon="101.420503" lat="14.146936">
                <ele>22.247559</ele>
                <time>2006-03-25T07:27:35Z</time>
            </trkpt>
            <trkpt lon="101.420481" lat="14.146936">
                <ele>22.728271</ele>
                <time>2006-03-25T07:27:54Z</time>
            </trkpt>
            <trkpt lon="101.420481" lat="14.146936">
                <ele>22.728271</ele>
                <time>2006-03-25T07:27:54Z</time>
            </trkpt>
            <trkpt lon="101.420352" lat="14.147065">
                <ele>20.324951</ele>
                <time>2006-03-25T07:29:07Z</time>
            </trkpt>
            <trkpt lon="101.420352" lat="14.147065">
                <ele>20.324951</ele>
                <time>2006-03-25T07:29:07Z</time>
            </trkpt>
            <trkpt lon="101.420224" lat="14.147086">
                <ele>19.844360</ele>
                <time>2006-03-25T07:29:10Z</time>
            </trkpt>
            <trkpt lon="101.420224" lat="14.147086">
                <ele>19.844360</ele>
                <time>2006-03-25T07:29:10Z</time>
            </trkpt>
            <trkpt lon="101.420159" lat="14.147129">
                <ele>19.844360</ele>
                <time>2006-03-25T07:29:12Z</time>
            </trkpt>
            <trkpt lon="101.420159" lat="14.147129">
                <ele>19.844360</ele>
                <time>2006-03-25T07:29:12Z</time>
            </trkpt>
            <trkpt lon="101.419559" lat="14.147365">
                <ele>18.883057</ele>
                <time>2006-03-25T07:29:27Z</time>
            </trkpt>
            <trkpt lon="101.419559" lat="14.147365">
                <ele>18.883057</ele>
                <time>2006-03-25T07:29:27Z</time>
            </trkpt>
            <trkpt lon="101.419516" lat="14.147387">
                <ele>19.363770</ele>
                <time>2006-03-25T07:29:28Z</time>
            </trkpt>
            <trkpt lon="101.419516" lat="14.147387">
                <ele>19.363770</ele>
                <time>2006-03-25T07:29:28Z</time>
            </trkpt>
            <trkpt lon="101.419365" lat="14.147451">
                <ele>19.363770</ele>
                <time>2006-03-25T07:29:32Z</time>
            </trkpt>
            <trkpt lon="101.419365" lat="14.147451">
                <ele>19.363770</ele>
                <time>2006-03-25T07:29:32Z</time>
            </trkpt>
            <trkpt lon="101.418443" lat="14.147730">
                <ele>17.441162</ele>
                <time>2006-03-25T07:29:53Z</time>
            </trkpt>
            <trkpt lon="101.418443" lat="14.147730">
                <ele>17.441162</ele>
                <time>2006-03-25T07:29:53Z</time>
            </trkpt>
            <trkpt lon="101.418164" lat="14.147816">
                <ele>16.960449</ele>
                <time>2006-03-25T07:30:00Z</time>
            </trkpt>
            <trkpt lon="101.418164" lat="14.147816">
                <ele>16.960449</ele>
                <time>2006-03-25T07:30:00Z</time>
            </trkpt>
            <trkpt lon="101.418035" lat="14.147279">
                <ele>19.363770</ele>
                <time>2006-03-25T07:30:16Z</time>
            </trkpt>
            <trkpt lon="101.418035" lat="14.147279">
                <ele>19.363770</ele>
                <time>2006-03-25T07:30:16Z</time>
            </trkpt>
            <trkpt lon="101.417992" lat="14.146678">
                <ele>18.883057</ele>
                <time>2006-03-25T07:30:31Z</time>
            </trkpt>
            <trkpt lon="101.417992" lat="14.146678">
                <ele>18.883057</ele>
                <time>2006-03-25T07:30:31Z</time>
            </trkpt>
            <trkpt lon="101.417971" lat="14.146528">
                <ele>18.883057</ele>
                <time>2006-03-25T07:30:35Z</time>
            </trkpt>
            <trkpt lon="101.417971" lat="14.146528">
                <ele>18.883057</ele>
                <time>2006-03-25T07:30:35Z</time>
            </trkpt>
            <trkpt lon="101.417863" lat="14.146464">
                <ele>18.402344</ele>
                <time>2006-03-25T07:30:39Z</time>
            </trkpt>
            <trkpt lon="101.417863" lat="14.146464">
                <ele>18.402344</ele>
                <time>2006-03-25T07:30:39Z</time>
            </trkpt>
            <trkpt lon="101.417542" lat="14.146507">
                <ele>18.883057</ele>
                <time>2006-03-25T07:30:46Z</time>
            </trkpt>
            <trkpt lon="101.417542" lat="14.146507">
                <ele>18.883057</ele>
                <time>2006-03-25T07:30:46Z</time>
            </trkpt>
            <trkpt lon="101.416554" lat="14.146528">
                <ele>18.402344</ele>
                <time>2006-03-25T07:31:09Z</time>
            </trkpt>
            <trkpt lon="101.416554" lat="14.146528">
                <ele>18.402344</ele>
                <time>2006-03-25T07:31:09Z</time>
            </trkpt>
            <trkpt lon="101.415696" lat="14.146421">
                <ele>16.960449</ele>
                <time>2006-03-25T07:31:30Z</time>
            </trkpt>
            <trkpt lon="101.415696" lat="14.146421">
                <ele>16.960449</ele>
                <time>2006-03-25T07:31:30Z</time>
            </trkpt>
            <trkpt lon="101.415524" lat="14.146314">
                <ele>16.960449</ele>
                <time>2006-03-25T07:31:35Z</time>
            </trkpt>
            <trkpt lon="101.415524" lat="14.146314">
                <ele>16.960449</ele>
                <time>2006-03-25T07:31:35Z</time>
            </trkpt>
            <trkpt lon="101.415353" lat="14.146314">
                <ele>17.441162</ele>
                <time>2006-03-25T07:31:40Z</time>
            </trkpt>
            <trkpt lon="101.415353" lat="14.146314">
                <ele>17.441162</ele>
                <time>2006-03-25T07:31:40Z</time>
            </trkpt>
            <trkpt lon="101.415246" lat="14.146528">
                <ele>18.883057</ele>
                <time>2006-03-25T07:31:48Z</time>
            </trkpt>
            <trkpt lon="101.415246" lat="14.146528">
                <ele>18.883057</ele>
                <time>2006-03-25T07:31:48Z</time>
            </trkpt>
            <trkpt lon="101.414967" lat="14.146678">
                <ele>19.363770</ele>
                <time>2006-03-25T07:31:57Z</time>
            </trkpt>
            <trkpt lon="101.414967" lat="14.146678">
                <ele>19.363770</ele>
                <time>2006-03-25T07:31:57Z</time>
            </trkpt>
            <trkpt lon="101.414731" lat="14.146764">
                <ele>19.844360</ele>
                <time>2006-03-25T07:32:05Z</time>
            </trkpt>
            <trkpt lon="101.414731" lat="14.146764">
                <ele>19.844360</ele>
                <time>2006-03-25T07:32:05Z</time>
            </trkpt>
            <trkpt lon="101.414537" lat="14.146893">
                <ele>19.844360</ele>
                <time>2006-03-25T07:32:10Z</time>
            </trkpt>
            <trkpt lon="101.414537" lat="14.146893">
                <ele>19.844360</ele>
                <time>2006-03-25T07:32:10Z</time>
            </trkpt>
            <trkpt lon="101.414301" lat="14.147108">
                <ele>19.844360</ele>
                <time>2006-03-25T07:32:17Z</time>
            </trkpt>
            <trkpt lon="101.414301" lat="14.147108">
                <ele>19.844360</ele>
                <time>2006-03-25T07:32:17Z</time>
            </trkpt>
            <trkpt lon="101.414194" lat="14.147601">
                <ele>18.402344</ele>
                <time>2006-03-25T07:32:30Z</time>
            </trkpt>
            <trkpt lon="101.414194" lat="14.147601">
                <ele>18.402344</ele>
                <time>2006-03-25T07:32:30Z</time>
            </trkpt>
            <trkpt lon="101.414065" lat="14.148202">
                <ele>18.883057</ele>
                <time>2006-03-25T07:32:50Z</time>
            </trkpt>
            <trkpt lon="101.414065" lat="14.148202">
                <ele>18.883057</ele>
                <time>2006-03-25T07:32:50Z</time>
            </trkpt>
            <trkpt lon="101.413679" lat="14.148309">
                <ele>19.363770</ele>
                <time>2006-03-25T07:33:04Z</time>
            </trkpt>
            <trkpt lon="101.413679" lat="14.148309">
                <ele>19.363770</ele>
                <time>2006-03-25T07:33:04Z</time>
            </trkpt>
            <trkpt lon="101.413229" lat="14.148374">
                <ele>20.324951</ele>
                <time>2006-03-25T07:33:17Z</time>
            </trkpt>
            <trkpt lon="101.413229" lat="14.148374">
                <ele>20.324951</ele>
                <time>2006-03-25T07:33:17Z</time>
            </trkpt>
            <trkpt lon="101.412563" lat="14.148374">
                <ele>21.766968</ele>
                <time>2006-03-25T07:33:36Z</time>
            </trkpt>
            <trkpt lon="101.412563" lat="14.148374">
                <ele>21.766968</ele>
                <time>2006-03-25T07:33:36Z</time>
            </trkpt>
            <trkpt lon="101.411941" lat="14.148502">
                <ele>23.208984</ele>
                <time>2006-03-25T07:33:55Z</time>
            </trkpt>
            <trkpt lon="101.411941" lat="14.148502">
                <ele>23.208984</ele>
                <time>2006-03-25T07:33:55Z</time>
            </trkpt>
            <trkpt lon="101.411426" lat="14.148524">
                <ele>25.131714</ele>
                <time>2006-03-25T07:34:16Z</time>
            </trkpt>
            <trkpt lon="101.411426" lat="14.148524">
                <ele>25.131714</ele>
                <time>2006-03-25T07:34:16Z</time>
            </trkpt>
            <trkpt lon="101.411405" lat="14.148567">
                <ele>26.573608</ele>
                <time>2006-03-25T07:34:29Z</time>
            </trkpt>
            <trkpt lon="101.411405" lat="14.148567">
                <ele>26.573608</ele>
                <time>2006-03-25T07:34:29Z</time>
            </trkpt>
            <trkpt lon="101.411211" lat="14.148974">
                <ele>29.938110</ele>
                <time>2006-03-25T07:34:57Z</time>
            </trkpt>
            <trkpt lon="101.411211" lat="14.148974">
                <ele>29.938110</ele>
                <time>2006-03-25T07:34:57Z</time>
            </trkpt>
            <trkpt lon="101.410890" lat="14.149382">
                <ele>29.938110</ele>
                <time>2006-03-25T07:35:44Z</time>
            </trkpt>
            <trkpt lon="101.410890" lat="14.149382">
                <ele>29.938110</ele>
                <time>2006-03-25T07:35:44Z</time>
            </trkpt>
            <trkpt lon="101.410632" lat="14.149382">
                <ele>29.938110</ele>
                <time>2006-03-25T07:36:40Z</time>
            </trkpt>
            <trkpt lon="101.410632" lat="14.149382">
                <ele>29.938110</ele>
                <time>2006-03-25T07:36:40Z</time>
            </trkpt>
            <trkpt lon="101.410675" lat="14.149489">
                <ele>29.938110</ele>
                <time>2006-03-25T07:36:48Z</time>
            </trkpt>
            <trkpt lon="101.410675" lat="14.149489">
                <ele>29.938110</ele>
                <time>2006-03-25T07:36:48Z</time>
            </trkpt>
            <trkpt lon="101.410825" lat="14.149168">
                <ele>28.976929</ele>
                <time>2006-03-25T07:37:08Z</time>
            </trkpt>
            <trkpt lon="101.410825" lat="14.149168">
                <ele>28.976929</ele>
                <time>2006-03-25T07:37:08Z</time>
            </trkpt>
            <trkpt lon="101.411211" lat="14.148803">
                <ele>28.976929</ele>
                <time>2006-03-25T07:37:28Z</time>
            </trkpt>
            <trkpt lon="101.411211" lat="14.148803">
                <ele>28.976929</ele>
                <time>2006-03-25T07:37:28Z</time>
            </trkpt>
            <trkpt lon="101.411405" lat="14.148459">
                <ele>28.496216</ele>
                <time>2006-03-25T07:37:47Z</time>
            </trkpt>
            <trkpt lon="101.411405" lat="14.148459">
                <ele>28.496216</ele>
                <time>2006-03-25T07:37:47Z</time>
            </trkpt>
            <trkpt lon="101.411340" lat="14.148223">
                <ele>27.534912</ele>
                <time>2006-03-25T07:38:01Z</time>
            </trkpt>
            <trkpt lon="101.411340" lat="14.148223">
                <ele>27.534912</ele>
                <time>2006-03-25T07:38:01Z</time>
            </trkpt>
            <trkpt lon="101.410890" lat="14.148052">
                <ele>27.534912</ele>
                <time>2006-03-25T07:38:38Z</time>
            </trkpt>
            <trkpt lon="101.410890" lat="14.148052">
                <ele>27.534912</ele>
                <time>2006-03-25T07:38:38Z</time>
            </trkpt>
            <trkpt lon="101.410568" lat="14.148095">
                <ele>31.860718</ele>
                <time>2006-03-25T07:39:11Z</time>
            </trkpt>
            <trkpt lon="101.410568" lat="14.148095">
                <ele>31.860718</ele>
                <time>2006-03-25T07:39:11Z</time>
            </trkpt>
            <trkpt lon="101.410418" lat="14.148159">
                <ele>27.054321</ele>
                <time>2006-03-25T07:39:28Z</time>
            </trkpt>
            <trkpt lon="101.410418" lat="14.148159">
                <ele>27.054321</ele>
                <time>2006-03-25T07:39:28Z</time>
            </trkpt>
            <trkpt lon="101.409624" lat="14.148459">
                <ele>30.418823</ele>
                <time>2006-03-25T07:40:32Z</time>
            </trkpt>
            <trkpt lon="101.409624" lat="14.148459">
                <ele>30.418823</ele>
                <time>2006-03-25T07:40:32Z</time>
            </trkpt>
            <trkpt lon="101.408916" lat="14.148781">
                <ele>32.341553</ele>
                <time>2006-03-25T07:41:03Z</time>
            </trkpt>
            <trkpt lon="101.408916" lat="14.148781">
                <ele>32.341553</ele>
                <time>2006-03-25T07:41:03Z</time>
            </trkpt>
            <trkpt lon="101.408551" lat="14.148824">
                <ele>32.822266</ele>
                <time>2006-03-25T07:41:23Z</time>
            </trkpt>
            <trkpt lon="101.408551" lat="14.148824">
                <ele>32.822266</ele>
                <time>2006-03-25T07:41:23Z</time>
            </trkpt>
            <trkpt lon="101.408508" lat="14.148567">
                <ele>35.706055</ele>
                <time>2006-03-25T07:41:33Z</time>
            </trkpt>
            <trkpt lon="101.408508" lat="14.148567">
                <ele>35.706055</ele>
                <time>2006-03-25T07:41:33Z</time>
            </trkpt>
            <trkpt lon="101.408079" lat="14.148524">
                <ele>40.032104</ele>
                <time>2006-03-25T07:41:50Z</time>
            </trkpt>
            <trkpt lon="101.408079" lat="14.148524">
                <ele>40.032104</ele>
                <time>2006-03-25T07:41:50Z</time>
            </trkpt>
            <trkpt lon="101.407800" lat="14.148567">
                <ele>40.512817</ele>
                <time>2006-03-25T07:41:59Z</time>
            </trkpt>
            <trkpt lon="101.407800" lat="14.148567">
                <ele>40.512817</ele>
                <time>2006-03-25T07:41:59Z</time>
            </trkpt>
            <trkpt lon="101.407800" lat="14.149060">
                <ele>41.473999</ele>
                <time>2006-03-25T07:42:09Z</time>
            </trkpt>
            <trkpt lon="101.407800" lat="14.149060">
                <ele>41.473999</ele>
                <time>2006-03-25T07:42:09Z</time>
            </trkpt>
            <trkpt lon="101.407843" lat="14.149704">
                <ele>41.954712</ele>
                <time>2006-03-25T07:42:19Z</time>
            </trkpt>
            <trkpt lon="101.407843" lat="14.149704">
                <ele>41.954712</ele>
                <time>2006-03-25T07:42:19Z</time>
            </trkpt>
            <trkpt lon="101.407993" lat="14.149768">
                <ele>42.435425</ele>
                <time>2006-03-25T07:42:22Z</time>
            </trkpt>
            <trkpt lon="101.407993" lat="14.149768">
                <ele>42.435425</ele>
                <time>2006-03-25T07:42:22Z</time>
            </trkpt>
            <trkpt lon="101.408122" lat="14.149811">
                <ele>42.435425</ele>
                <time>2006-03-25T07:42:24Z</time>
            </trkpt>
            <trkpt lon="101.408122" lat="14.149811">
                <ele>42.435425</ele>
                <time>2006-03-25T07:42:24Z</time>
            </trkpt>
            <trkpt lon="101.408379" lat="14.149961">
                <ele>43.877319</ele>
                <time>2006-03-25T07:42:29Z</time>
            </trkpt>
            <trkpt lon="101.408379" lat="14.149961">
                <ele>43.877319</ele>
                <time>2006-03-25T07:42:29Z</time>
            </trkpt>
            <trkpt lon="101.408615" lat="14.150176">
                <ele>42.916016</ele>
                <time>2006-03-25T07:42:34Z</time>
            </trkpt>
            <trkpt lon="101.408615" lat="14.150176">
                <ele>42.916016</ele>
                <time>2006-03-25T07:42:34Z</time>
            </trkpt>
            <trkpt lon="101.408744" lat="14.150305">
                <ele>42.435425</ele>
                <time>2006-03-25T07:42:37Z</time>
            </trkpt>
            <trkpt lon="101.408744" lat="14.150305">
                <ele>42.435425</ele>
                <time>2006-03-25T07:42:37Z</time>
            </trkpt>
            <trkpt lon="101.409173" lat="14.150755">
                <ele>38.109375</ele>
                <time>2006-03-25T07:42:49Z</time>
            </trkpt>
            <trkpt lon="101.409173" lat="14.150755">
                <ele>38.109375</ele>
                <time>2006-03-25T07:42:49Z</time>
            </trkpt>
            <trkpt lon="101.409173" lat="14.150777">
                <ele>38.590088</ele>
                <time>2006-03-25T07:43:05Z</time>
            </trkpt>
            <trkpt lon="101.409173" lat="14.150777">
                <ele>38.590088</ele>
                <time>2006-03-25T07:43:05Z</time>
            </trkpt>
            <trkpt lon="101.409173" lat="14.150777">
                <ele>37.148071</ele>
                <time>2006-03-25T08:06:24Z</time>
            </trkpt>
            <trkpt lon="101.409173" lat="14.150777">
                <ele>37.148071</ele>
                <time>2006-03-25T08:06:24Z</time>
            </trkpt>
            <trkpt lon="101.408894" lat="14.150455">
                <ele>37.628662</ele>
                <time>2006-03-25T08:06:40Z</time>
            </trkpt>
            <trkpt lon="101.408894" lat="14.150455">
                <ele>37.628662</ele>
                <time>2006-03-25T08:06:40Z</time>
            </trkpt>
            <trkpt lon="101.408229" lat="14.149854">
                <ele>41.473999</ele>
                <time>2006-03-25T08:07:02Z</time>
            </trkpt>
            <trkpt lon="101.408229" lat="14.149854">
                <ele>41.473999</ele>
                <time>2006-03-25T08:07:02Z</time>
            </trkpt>
            <trkpt lon="101.408186" lat="14.149811">
                <ele>41.473999</ele>
                <time>2006-03-25T08:07:03Z</time>
            </trkpt>
            <trkpt lon="101.408186" lat="14.149811">
                <ele>41.473999</ele>
                <time>2006-03-25T08:07:03Z</time>
            </trkpt>
            <trkpt lon="101.407907" lat="14.149683">
                <ele>42.435425</ele>
                <time>2006-03-25T08:07:10Z</time>
            </trkpt>
            <trkpt lon="101.407907" lat="14.149683">
                <ele>42.435425</ele>
                <time>2006-03-25T08:07:10Z</time>
            </trkpt>
            <trkpt lon="101.407800" lat="14.149446">
                <ele>42.916016</ele>
                <time>2006-03-25T08:07:16Z</time>
            </trkpt>
            <trkpt lon="101.407800" lat="14.149446">
                <ele>42.916016</ele>
                <time>2006-03-25T08:07:16Z</time>
            </trkpt>
            <trkpt lon="101.407714" lat="14.148695">
                <ele>48.203369</ele>
                <time>2006-03-25T08:07:37Z</time>
            </trkpt>
            <trkpt lon="101.407714" lat="14.148695">
                <ele>48.203369</ele>
                <time>2006-03-25T08:07:37Z</time>
            </trkpt>
            <trkpt lon="101.407650" lat="14.148073">
                <ele>50.125977</ele>
                <time>2006-03-25T08:08:00Z</time>
            </trkpt>
            <trkpt lon="101.407650" lat="14.148073">
                <ele>50.125977</ele>
                <time>2006-03-25T08:08:00Z</time>
            </trkpt>
            <trkpt lon="101.407456" lat="14.147623">
                <ele>54.932373</ele>
                <time>2006-03-25T08:08:18Z</time>
            </trkpt>
            <trkpt lon="101.407456" lat="14.147623">
                <ele>54.932373</ele>
                <time>2006-03-25T08:08:18Z</time>
            </trkpt>
            <trkpt lon="101.407027" lat="14.147365">
                <ele>59.739136</ele>
                <time>2006-03-25T08:08:37Z</time>
            </trkpt>
            <trkpt lon="101.407027" lat="14.147365">
                <ele>59.739136</ele>
                <time>2006-03-25T08:08:37Z</time>
            </trkpt>
            <trkpt lon="101.406555" lat="14.147215">
                <ele>62.142334</ele>
                <time>2006-03-25T08:09:01Z</time>
            </trkpt>
            <trkpt lon="101.406555" lat="14.147215">
                <ele>62.142334</ele>
                <time>2006-03-25T08:09:01Z</time>
            </trkpt>
            <trkpt lon="101.406448" lat="14.147172">
                <ele>64.065063</ele>
                <time>2006-03-25T08:09:06Z</time>
            </trkpt>
            <trkpt lon="101.406448" lat="14.147172">
                <ele>64.065063</ele>
                <time>2006-03-25T08:09:06Z</time>
            </trkpt>
            <trkpt lon="101.406384" lat="14.147129">
                <ele>64.065063</ele>
                <time>2006-03-25T08:09:10Z</time>
            </trkpt>
            <trkpt lon="101.406384" lat="14.147129">
                <ele>64.065063</ele>
                <time>2006-03-25T08:09:10Z</time>
            </trkpt>
            <trkpt lon="101.405804" lat="14.147193">
                <ele>64.065063</ele>
                <time>2006-03-25T08:09:35Z</time>
            </trkpt>
            <trkpt lon="101.405804" lat="14.147193">
                <ele>64.065063</ele>
                <time>2006-03-25T08:09:35Z</time>
            </trkpt>
            <trkpt lon="101.405053" lat="14.147322">
                <ele>64.065063</ele>
                <time>2006-03-25T08:09:55Z</time>
            </trkpt>
            <trkpt lon="101.405053" lat="14.147322">
                <ele>64.065063</ele>
                <time>2006-03-25T08:09:55Z</time>
            </trkpt>
            <trkpt lon="101.403894" lat="14.147494">
                <ele>64.545654</ele>
                <time>2006-03-25T08:10:20Z</time>
            </trkpt>
            <trkpt lon="101.403894" lat="14.147494">
                <ele>64.545654</ele>
                <time>2006-03-25T08:10:20Z</time>
            </trkpt>
            <trkpt lon="101.403787" lat="14.147494">
                <ele>64.545654</ele>
                <time>2006-03-25T08:10:26Z</time>
            </trkpt>
            <trkpt lon="101.403787" lat="14.147494">
                <ele>64.545654</ele>
                <time>2006-03-25T08:10:26Z</time>
            </trkpt>
            <trkpt lon="101.404045" lat="14.147580">
                <ele>67.429688</ele>
                <time>2006-03-25T08:10:42Z</time>
            </trkpt>
            <trkpt lon="101.404045" lat="14.147580">
                <ele>67.429688</ele>
                <time>2006-03-25T08:10:42Z</time>
            </trkpt>
            <trkpt lon="101.404066" lat="14.147601">
                <ele>69.352295</ele>
                <time>2006-03-25T08:11:05Z</time>
            </trkpt>
            <trkpt lon="101.404066" lat="14.147601">
                <ele>69.352295</ele>
                <time>2006-03-25T08:11:05Z</time>
            </trkpt>
            <trkpt lon="101.404023" lat="14.147751">
                <ele>69.352295</ele>
                <time>2006-03-25T08:11:13Z</time>
            </trkpt>
            <trkpt lon="101.404023" lat="14.147751">
                <ele>69.352295</ele>
                <time>2006-03-25T08:11:13Z</time>
            </trkpt>
            <trkpt lon="101.403809" lat="14.147794">
                <ele>69.352295</ele>
                <time>2006-03-25T08:11:19Z</time>
            </trkpt>
            <trkpt lon="101.403809" lat="14.147794">
                <ele>69.352295</ele>
                <time>2006-03-25T08:11:19Z</time>
            </trkpt>
            <trkpt lon="101.402929" lat="14.147558">
                <ele>69.352295</ele>
                <time>2006-03-25T08:11:46Z</time>
            </trkpt>
            <trkpt lon="101.402929" lat="14.147558">
                <ele>69.352295</ele>
                <time>2006-03-25T08:11:46Z</time>
            </trkpt>
            <trkpt lon="101.402843" lat="14.147515">
                <ele>70.313477</ele>
                <time>2006-03-25T08:11:57Z</time>
            </trkpt>
            <trkpt lon="101.402843" lat="14.147515">
                <ele>70.313477</ele>
                <time>2006-03-25T08:11:57Z</time>
            </trkpt>
            <trkpt lon="101.402843" lat="14.147515">
                <ele>70.313477</ele>
                <time>2006-03-25T08:12:01Z</time>
            </trkpt>
            <trkpt lon="101.402843" lat="14.147515">
                <ele>70.313477</ele>
                <time>2006-03-25T08:12:01Z</time>
            </trkpt>
            <trkpt lon="101.403208" lat="14.147687">
                <ele>72.236206</ele>
                <time>2006-03-25T08:12:16Z</time>
            </trkpt>
            <trkpt lon="101.403208" lat="14.147687">
                <ele>72.236206</ele>
                <time>2006-03-25T08:12:16Z</time>
            </trkpt>
            <trkpt lon="101.403766" lat="14.147880">
                <ele>71.755493</ele>
                <time>2006-03-25T08:12:30Z</time>
            </trkpt>
            <trkpt lon="101.403766" lat="14.147880">
                <ele>71.755493</ele>
                <time>2006-03-25T08:12:30Z</time>
            </trkpt>
            <trkpt lon="101.403937" lat="14.147751">
                <ele>69.352295</ele>
                <time>2006-03-25T08:12:36Z</time>
            </trkpt>
            <trkpt lon="101.403937" lat="14.147751">
                <ele>69.352295</ele>
                <time>2006-03-25T08:12:36Z</time>
            </trkpt>
            <trkpt lon="101.404023" lat="14.147580">
                <ele>69.352295</ele>
                <time>2006-03-25T08:12:51Z</time>
            </trkpt>
            <trkpt lon="101.404023" lat="14.147580">
                <ele>69.352295</ele>
                <time>2006-03-25T08:12:51Z</time>
            </trkpt>
            <trkpt lon="101.404045" lat="14.147537">
                <ele>69.832886</ele>
                <time>2006-03-25T08:13:10Z</time>
            </trkpt>
            <trkpt lon="101.404045" lat="14.147537">
                <ele>69.832886</ele>
                <time>2006-03-25T08:13:10Z</time>
            </trkpt>
            <trkpt lon="101.403508" lat="14.147344">
                <ele>70.313477</ele>
                <time>2006-03-25T08:13:24Z</time>
            </trkpt>
            <trkpt lon="101.403508" lat="14.147344">
                <ele>70.313477</ele>
                <time>2006-03-25T08:13:24Z</time>
            </trkpt>
            <trkpt lon="101.402521" lat="14.146979">
                <ele>67.910278</ele>
                <time>2006-03-25T08:13:47Z</time>
            </trkpt>
            <trkpt lon="101.402521" lat="14.146979">
                <ele>67.910278</ele>
                <time>2006-03-25T08:13:47Z</time>
            </trkpt>
            <trkpt lon="101.402113" lat="14.146829">
                <ele>68.390869</ele>
                <time>2006-03-25T08:14:00Z</time>
            </trkpt>
            <trkpt lon="101.402113" lat="14.146829">
                <ele>68.390869</ele>
                <time>2006-03-25T08:14:00Z</time>
            </trkpt>
            <trkpt lon="101.401534" lat="14.146678">
                <ele>69.352295</ele>
                <time>2006-03-25T08:14:19Z</time>
            </trkpt>
            <trkpt lon="101.401534" lat="14.146678">
                <ele>69.352295</ele>
                <time>2006-03-25T08:14:19Z</time>
            </trkpt>
            <trkpt lon="101.401126" lat="14.146850">
                <ele>68.871582</ele>
                <time>2006-03-25T08:14:31Z</time>
            </trkpt>
            <trkpt lon="101.401126" lat="14.146850">
                <ele>68.871582</ele>
                <time>2006-03-25T08:14:31Z</time>
            </trkpt>
            <trkpt lon="101.400719" lat="14.147172">
                <ele>67.429688</ele>
                <time>2006-03-25T08:14:46Z</time>
            </trkpt>
            <trkpt lon="101.400719" lat="14.147172">
                <ele>67.429688</ele>
                <time>2006-03-25T08:14:46Z</time>
            </trkpt>
            <trkpt lon="101.400139" lat="14.147215">
                <ele>67.910278</ele>
                <time>2006-03-25T08:15:02Z</time>
            </trkpt>
            <trkpt lon="101.400139" lat="14.147215">
                <ele>67.910278</ele>
                <time>2006-03-25T08:15:02Z</time>
            </trkpt>
            <trkpt lon="101.399131" lat="14.146957">
                <ele>72.236206</ele>
                <time>2006-03-25T08:15:33Z</time>
            </trkpt>
            <trkpt lon="101.399131" lat="14.146957">
                <ele>72.236206</ele>
                <time>2006-03-25T08:15:33Z</time>
            </trkpt>
            <trkpt lon="101.398165" lat="14.146764">
                <ele>72.236206</ele>
                <time>2006-03-25T08:15:59Z</time>
            </trkpt>
            <trkpt lon="101.398165" lat="14.146764">
                <ele>72.236206</ele>
                <time>2006-03-25T08:15:59Z</time>
            </trkpt>
            <trkpt lon="101.397371" lat="14.146721">
                <ele>73.678223</ele>
                <time>2006-03-25T08:16:20Z</time>
            </trkpt>
            <trkpt lon="101.397371" lat="14.146721">
                <ele>73.678223</ele>
                <time>2006-03-25T08:16:20Z</time>
            </trkpt>
            <trkpt lon="101.396062" lat="14.146657">
                <ele>74.158813</ele>
                <time>2006-03-25T08:16:57Z</time>
            </trkpt>
            <trkpt lon="101.396062" lat="14.146657">
                <ele>74.158813</ele>
                <time>2006-03-25T08:16:57Z</time>
            </trkpt>
            <trkpt lon="101.396041" lat="14.146636">
                <ele>74.158813</ele>
                <time>2006-03-25T08:16:58Z</time>
            </trkpt>
            <trkpt lon="101.396041" lat="14.146636">
                <ele>74.158813</ele>
                <time>2006-03-25T08:16:58Z</time>
            </trkpt>
            <trkpt lon="101.396105" lat="14.146593">
                <ele>78.484741</ele>
                <time>2006-03-25T08:17:16Z</time>
            </trkpt>
            <trkpt lon="101.396105" lat="14.146593">
                <ele>78.484741</ele>
                <time>2006-03-25T08:17:16Z</time>
            </trkpt>
            <trkpt lon="101.396127" lat="14.146636">
                <ele>87.136597</ele>
                <time>2006-03-25T08:18:05Z</time>
            </trkpt>
            <trkpt lon="101.396127" lat="14.146636">
                <ele>87.136597</ele>
                <time>2006-03-25T08:18:05Z</time>
            </trkpt>
            <trkpt lon="101.396148" lat="14.145906">
                <ele>89.539917</ele>
                <time>2006-03-25T08:18:40Z</time>
            </trkpt>
            <trkpt lon="101.396148" lat="14.145906">
                <ele>89.539917</ele>
                <time>2006-03-25T08:18:40Z</time>
            </trkpt>
            <trkpt lon="101.396105" lat="14.145477">
                <ele>90.020630</ele>
                <time>2006-03-25T08:19:01Z</time>
            </trkpt>
            <trkpt lon="101.396105" lat="14.145477">
                <ele>90.020630</ele>
                <time>2006-03-25T08:19:01Z</time>
            </trkpt>
            <trkpt lon="101.395698" lat="14.145370">
                <ele>90.020630</ele>
                <time>2006-03-25T08:19:27Z</time>
            </trkpt>
            <trkpt lon="101.395698" lat="14.145370">
                <ele>90.020630</ele>
                <time>2006-03-25T08:19:27Z</time>
            </trkpt>
            <trkpt lon="101.394989" lat="14.145262">
                <ele>90.020630</ele>
                <time>2006-03-25T08:20:07Z</time>
            </trkpt>
            <trkpt lon="101.394989" lat="14.145262">
                <ele>90.020630</ele>
                <time>2006-03-25T08:20:07Z</time>
            </trkpt>
            <trkpt lon="101.394389" lat="14.145305">
                <ele>90.020630</ele>
                <time>2006-03-25T08:20:28Z</time>
            </trkpt>
            <trkpt lon="101.394389" lat="14.145305">
                <ele>90.020630</ele>
                <time>2006-03-25T08:20:28Z</time>
            </trkpt>
            <trkpt lon="101.393895" lat="14.145327">
                <ele>90.501343</ele>
                <time>2006-03-25T08:20:50Z</time>
            </trkpt>
            <trkpt lon="101.393895" lat="14.145327">
                <ele>90.501343</ele>
                <time>2006-03-25T08:20:50Z</time>
            </trkpt>
            <trkpt lon="101.393638" lat="14.145391">
                <ele>102.037109</ele>
                <time>2006-03-25T08:22:57Z</time>
            </trkpt>
            <trkpt lon="101.393638" lat="14.145391">
                <ele>102.037109</ele>
                <time>2006-03-25T08:22:57Z</time>
            </trkpt>
            <trkpt lon="101.393359" lat="14.145477">
                <ele>101.556396</ele>
                <time>2006-03-25T08:23:57Z</time>
            </trkpt>
            <trkpt lon="101.393359" lat="14.145477">
                <ele>101.556396</ele>
                <time>2006-03-25T08:23:57Z</time>
            </trkpt>
            <trkpt lon="101.393058" lat="14.145563">
                <ele>102.037109</ele>
                <time>2006-03-25T08:24:16Z</time>
            </trkpt>
            <trkpt lon="101.393058" lat="14.145563">
                <ele>102.037109</ele>
                <time>2006-03-25T08:24:16Z</time>
            </trkpt>
            <trkpt lon="101.392801" lat="14.145541">
                <ele>102.037109</ele>
                <time>2006-03-25T08:24:31Z</time>
            </trkpt>
            <trkpt lon="101.392801" lat="14.145541">
                <ele>102.037109</ele>
                <time>2006-03-25T08:24:31Z</time>
            </trkpt>
            <trkpt lon="101.392243" lat="14.145348">
                <ele>102.517700</ele>
                <time>2006-03-25T08:24:56Z</time>
            </trkpt>
            <trkpt lon="101.392243" lat="14.145348">
                <ele>102.517700</ele>
                <time>2006-03-25T08:24:56Z</time>
            </trkpt>
            <trkpt lon="101.391685" lat="14.145348">
                <ele>102.517700</ele>
                <time>2006-03-25T08:25:20Z</time>
            </trkpt>
            <trkpt lon="101.391685" lat="14.145348">
                <ele>102.517700</ele>
                <time>2006-03-25T08:25:20Z</time>
            </trkpt>
            <trkpt lon="101.390762" lat="14.145219">
                <ele>102.517700</ele>
                <time>2006-03-25T08:26:07Z</time>
            </trkpt>
            <trkpt lon="101.390762" lat="14.145219">
                <ele>102.517700</ele>
                <time>2006-03-25T08:26:07Z</time>
            </trkpt>
            <trkpt lon="101.390462" lat="14.145112">
                <ele>102.517700</ele>
                <time>2006-03-25T08:26:27Z</time>
            </trkpt>
            <trkpt lon="101.390462" lat="14.145112">
                <ele>102.517700</ele>
                <time>2006-03-25T08:26:27Z</time>
            </trkpt>
            <trkpt lon="101.390569" lat="14.145348">
                <ele>102.517700</ele>
                <time>2006-03-25T08:26:49Z</time>
            </trkpt>
            <trkpt lon="101.390569" lat="14.145348">
                <ele>102.517700</ele>
                <time>2006-03-25T08:26:49Z</time>
            </trkpt>
            <trkpt lon="101.390548" lat="14.145370">
                <ele>102.517700</ele>
                <time>2006-03-25T08:26:55Z</time>
            </trkpt>
            <trkpt lon="101.390548" lat="14.145370">
                <ele>102.517700</ele>
                <time>2006-03-25T08:26:55Z</time>
            </trkpt>
            <trkpt lon="101.390140" lat="14.145541">
                <ele>102.998291</ele>
                <time>2006-03-25T08:27:23Z</time>
            </trkpt>
            <trkpt lon="101.390140" lat="14.145541">
                <ele>102.998291</ele>
                <time>2006-03-25T08:27:23Z</time>
            </trkpt>
            <trkpt lon="101.389668" lat="14.145670">
                <ele>102.998291</ele>
                <time>2006-03-25T08:27:58Z</time>
            </trkpt>
            <trkpt lon="101.389668" lat="14.145670">
                <ele>102.998291</ele>
                <time>2006-03-25T08:27:58Z</time>
            </trkpt>
            <trkpt lon="101.389647" lat="14.145670">
                <ele>102.037109</ele>
                <time>2006-03-25T08:28:13Z</time>
            </trkpt>
            <trkpt lon="101.389647" lat="14.145670">
                <ele>102.037109</ele>
                <time>2006-03-25T08:28:13Z</time>
            </trkpt>
            <trkpt lon="101.389368" lat="14.145648">
                <ele>103.479004</ele>
                <time>2006-03-25T08:28:38Z</time>
            </trkpt>
            <trkpt lon="101.389368" lat="14.145648">
                <ele>103.479004</ele>
                <time>2006-03-25T08:28:38Z</time>
            </trkpt>
            <trkpt lon="101.388960" lat="14.145498">
                <ele>104.440430</ele>
                <time>2006-03-25T08:29:09Z</time>
            </trkpt>
            <trkpt lon="101.388960" lat="14.145498">
                <ele>104.440430</ele>
                <time>2006-03-25T08:29:09Z</time>
            </trkpt>
            <trkpt lon="101.388617" lat="14.145520">
                <ele>104.440430</ele>
                <time>2006-03-25T08:29:26Z</time>
            </trkpt>
            <trkpt lon="101.388617" lat="14.145520">
                <ele>104.440430</ele>
                <time>2006-03-25T08:29:26Z</time>
            </trkpt>
            <trkpt lon="101.388381" lat="14.145627">
                <ele>106.843628</ele>
                <time>2006-03-25T08:29:38Z</time>
            </trkpt>
            <trkpt lon="101.388381" lat="14.145627">
                <ele>106.843628</ele>
                <time>2006-03-25T08:29:38Z</time>
            </trkpt>
            <trkpt lon="101.388466" lat="14.145584">
                <ele>107.324341</ele>
                <time>2006-03-25T08:29:41Z</time>
            </trkpt>
            <trkpt lon="101.388466" lat="14.145584">
                <ele>107.324341</ele>
                <time>2006-03-25T08:29:41Z</time>
            </trkpt>
            <trkpt lon="101.387951" lat="14.145842">
                <ele>108.766235</ele>
                <time>2006-03-25T08:30:09Z</time>
            </trkpt>
            <trkpt lon="101.387951" lat="14.145842">
                <ele>108.766235</ele>
                <time>2006-03-25T08:30:09Z</time>
            </trkpt>
            <trkpt lon="101.387479" lat="14.145885">
                <ele>108.285645</ele>
                <time>2006-03-25T08:30:46Z</time>
            </trkpt>
            <trkpt lon="101.387479" lat="14.145885">
                <ele>108.285645</ele>
                <time>2006-03-25T08:30:46Z</time>
            </trkpt>
            <trkpt lon="101.387093" lat="14.145885">
                <ele>108.285645</ele>
                <time>2006-03-25T08:31:08Z</time>
            </trkpt>
            <trkpt lon="101.387093" lat="14.145885">
                <ele>108.285645</ele>
                <time>2006-03-25T08:31:08Z</time>
            </trkpt>
            <trkpt lon="101.386449" lat="14.145885">
                <ele>108.285645</ele>
                <time>2006-03-25T08:31:35Z</time>
            </trkpt>
            <trkpt lon="101.386449" lat="14.145885">
                <ele>108.285645</ele>
                <time>2006-03-25T08:31:35Z</time>
            </trkpt>
            <trkpt lon="101.385763" lat="14.145885">
                <ele>108.766235</ele>
                <time>2006-03-25T08:32:03Z</time>
            </trkpt>
            <trkpt lon="101.385763" lat="14.145885">
                <ele>108.766235</ele>
                <time>2006-03-25T08:32:03Z</time>
            </trkpt>
            <trkpt lon="101.385591" lat="14.145842">
                <ele>110.208252</ele>
                <time>2006-03-25T08:32:17Z</time>
            </trkpt>
            <trkpt lon="101.385591" lat="14.145842">
                <ele>110.208252</ele>
                <time>2006-03-25T08:32:17Z</time>
            </trkpt>
            <trkpt lon="101.385162" lat="14.145842">
                <ele>117.418213</ele>
                <time>2006-03-25T08:37:03Z</time>
            </trkpt>
            <trkpt lon="101.385162" lat="14.145842">
                <ele>117.418213</ele>
                <time>2006-03-25T08:37:03Z</time>
            </trkpt>
            <trkpt lon="101.384540" lat="14.145906">
                <ele>114.053589</ele>
                <time>2006-03-25T08:37:28Z</time>
            </trkpt>
            <trkpt lon="101.384540" lat="14.145906">
                <ele>114.053589</ele>
                <time>2006-03-25T08:37:28Z</time>
            </trkpt>
            <trkpt lon="101.383960" lat="14.146249">
                <ele>114.053589</ele>
                <time>2006-03-25T08:38:02Z</time>
            </trkpt>
            <trkpt lon="101.383960" lat="14.146249">
                <ele>114.053589</ele>
                <time>2006-03-25T08:38:02Z</time>
            </trkpt>
            <trkpt lon="101.383317" lat="14.146228">
                <ele>114.053589</ele>
                <time>2006-03-25T08:38:29Z</time>
            </trkpt>
            <trkpt lon="101.383317" lat="14.146228">
                <ele>114.053589</ele>
                <time>2006-03-25T08:38:29Z</time>
            </trkpt>
            <trkpt lon="101.382523" lat="14.146121">
                <ele>116.937500</ele>
                <time>2006-03-25T08:39:07Z</time>
            </trkpt>
            <trkpt lon="101.382523" lat="14.146121">
                <ele>116.937500</ele>
                <time>2006-03-25T08:39:07Z</time>
            </trkpt>
            <trkpt lon="101.381943" lat="14.146249">
                <ele>122.224731</ele>
                <time>2006-03-25T08:39:28Z</time>
            </trkpt>
            <trkpt lon="101.381943" lat="14.146249">
                <ele>122.224731</ele>
                <time>2006-03-25T08:39:28Z</time>
            </trkpt>
            <trkpt lon="101.381428" lat="14.146399">
                <ele>121.744141</ele>
                <time>2006-03-25T08:39:49Z</time>
            </trkpt>
            <trkpt lon="101.381428" lat="14.146399">
                <ele>121.744141</ele>
                <time>2006-03-25T08:39:49Z</time>
            </trkpt>
            <trkpt lon="101.380849" lat="14.146528">
                <ele>123.666748</ele>
                <time>2006-03-25T08:40:09Z</time>
            </trkpt>
            <trkpt lon="101.380849" lat="14.146528">
                <ele>123.666748</ele>
                <time>2006-03-25T08:40:09Z</time>
            </trkpt>
            <trkpt lon="101.380076" lat="14.146636">
                <ele>128.473389</ele>
                <time>2006-03-25T08:40:31Z</time>
            </trkpt>
            <trkpt lon="101.380076" lat="14.146636">
                <ele>128.473389</ele>
                <time>2006-03-25T08:40:31Z</time>
            </trkpt>
            <trkpt lon="101.379304" lat="14.146700">
                <ele>129.915283</ele>
                <time>2006-03-25T08:40:50Z</time>
            </trkpt>
            <trkpt lon="101.379304" lat="14.146700">
                <ele>129.915283</ele>
                <time>2006-03-25T08:40:50Z</time>
            </trkpt>
            <trkpt lon="101.378918" lat="14.146786">
                <ele>127.511963</ele>
                <time>2006-03-25T08:41:01Z</time>
            </trkpt>
            <trkpt lon="101.378918" lat="14.146786">
                <ele>127.511963</ele>
                <time>2006-03-25T08:41:01Z</time>
            </trkpt>
            <trkpt lon="101.378767" lat="14.146850">
                <ele>127.511963</ele>
                <time>2006-03-25T08:41:06Z</time>
            </trkpt>
            <trkpt lon="101.378767" lat="14.146850">
                <ele>127.511963</ele>
                <time>2006-03-25T08:41:06Z</time>
            </trkpt>
            <trkpt lon="101.378574" lat="14.146914">
                <ele>127.992554</ele>
                <time>2006-03-25T08:41:11Z</time>
            </trkpt>
            <trkpt lon="101.378574" lat="14.146914">
                <ele>127.992554</ele>
                <time>2006-03-25T08:41:11Z</time>
            </trkpt>
            <trkpt lon="101.378467" lat="14.146979">
                <ele>128.473389</ele>
                <time>2006-03-25T08:41:14Z</time>
            </trkpt>
            <trkpt lon="101.378467" lat="14.146979">
                <ele>128.473389</ele>
                <time>2006-03-25T08:41:14Z</time>
            </trkpt>
            <trkpt lon="101.378467" lat="14.147151">
                <ele>128.473389</ele>
                <time>2006-03-25T08:41:18Z</time>
            </trkpt>
            <trkpt lon="101.378467" lat="14.147151">
                <ele>128.473389</ele>
                <time>2006-03-25T08:41:18Z</time>
            </trkpt>
            <trkpt lon="101.378510" lat="14.147258">
                <ele>127.031372</ele>
                <time>2006-03-25T08:41:21Z</time>
            </trkpt>
            <trkpt lon="101.378510" lat="14.147258">
                <ele>127.031372</ele>
                <time>2006-03-25T08:41:21Z</time>
            </trkpt>
            <trkpt lon="101.378553" lat="14.147451">
                <ele>127.511963</ele>
                <time>2006-03-25T08:41:27Z</time>
            </trkpt>
            <trkpt lon="101.378553" lat="14.147451">
                <ele>127.511963</ele>
                <time>2006-03-25T08:41:27Z</time>
            </trkpt>
            <trkpt lon="101.378660" lat="14.147537">
                <ele>126.069946</ele>
                <time>2006-03-25T08:41:33Z</time>
            </trkpt>
            <trkpt lon="101.378660" lat="14.147537">
                <ele>126.069946</ele>
                <time>2006-03-25T08:41:33Z</time>
            </trkpt>
            <trkpt lon="101.379240" lat="14.147515">
                <ele>126.069946</ele>
                <time>2006-03-25T08:41:55Z</time>
            </trkpt>
            <trkpt lon="101.379240" lat="14.147515">
                <ele>126.069946</ele>
                <time>2006-03-25T08:41:55Z</time>
            </trkpt>
            <trkpt lon="101.379604" lat="14.147558">
                <ele>124.147339</ele>
                <time>2006-03-25T08:42:15Z</time>
            </trkpt>
            <trkpt lon="101.379604" lat="14.147558">
                <ele>124.147339</ele>
                <time>2006-03-25T08:42:15Z</time>
            </trkpt>
            <trkpt lon="101.379926" lat="14.147730">
                <ele>129.915283</ele>
                <time>2006-03-25T08:42:38Z</time>
            </trkpt>
            <trkpt lon="101.379926" lat="14.147730">
                <ele>129.915283</ele>
                <time>2006-03-25T08:42:38Z</time>
            </trkpt>
            <trkpt lon="101.379926" lat="14.148095">
                <ele>133.279907</ele>
                <time>2006-03-25T08:42:57Z</time>
            </trkpt>
            <trkpt lon="101.379926" lat="14.148095">
                <ele>133.279907</ele>
                <time>2006-03-25T08:42:57Z</time>
            </trkpt>
            <trkpt lon="101.379840" lat="14.148695">
                <ele>126.550659</ele>
                <time>2006-03-25T08:43:19Z</time>
            </trkpt>
            <trkpt lon="101.379840" lat="14.148695">
                <ele>126.550659</ele>
                <time>2006-03-25T08:43:19Z</time>
            </trkpt>
            <trkpt lon="101.379776" lat="14.149597">
                <ele>126.069946</ele>
                <time>2006-03-25T08:43:43Z</time>
            </trkpt>
            <trkpt lon="101.379776" lat="14.149597">
                <ele>126.069946</ele>
                <time>2006-03-25T08:43:43Z</time>
            </trkpt>
            <trkpt lon="101.379733" lat="14.150326">
                <ele>126.069946</ele>
                <time>2006-03-25T08:44:02Z</time>
            </trkpt>
            <trkpt lon="101.379733" lat="14.150326">
                <ele>126.069946</ele>
                <time>2006-03-25T08:44:02Z</time>
            </trkpt>
            <trkpt lon="101.379862" lat="14.150884">
                <ele>127.031372</ele>
                <time>2006-03-25T08:44:18Z</time>
            </trkpt>
            <trkpt lon="101.379862" lat="14.150884">
                <ele>127.031372</ele>
                <time>2006-03-25T08:44:18Z</time>
            </trkpt>
            <trkpt lon="101.380098" lat="14.151571">
                <ele>127.992554</ele>
                <time>2006-03-25T08:44:35Z</time>
            </trkpt>
            <trkpt lon="101.380098" lat="14.151571">
                <ele>127.992554</ele>
                <time>2006-03-25T08:44:35Z</time>
            </trkpt>
            <trkpt lon="101.380377" lat="14.152665">
                <ele>134.721924</ele>
                <time>2006-03-25T08:45:02Z</time>
            </trkpt>
            <trkpt lon="101.380377" lat="14.152665">
                <ele>134.721924</ele>
                <time>2006-03-25T08:45:02Z</time>
            </trkpt>
            <trkpt lon="101.380420" lat="14.153266">
                <ele>135.683105</ele>
                <time>2006-03-25T08:45:19Z</time>
            </trkpt>
            <trkpt lon="101.380420" lat="14.153266">
                <ele>135.683105</ele>
                <time>2006-03-25T08:45:19Z</time>
            </trkpt>
            <trkpt lon="101.380484" lat="14.153395">
                <ele>137.605835</ele>
                <time>2006-03-25T08:45:30Z</time>
            </trkpt>
            <trkpt lon="101.380484" lat="14.153395">
                <ele>137.605835</ele>
                <time>2006-03-25T08:45:30Z</time>
            </trkpt>
            <trkpt lon="101.380506" lat="14.153395">
                <ele>138.567261</ele>
                <time>2006-03-25T08:45:38Z</time>
            </trkpt>
            <trkpt lon="101.380506" lat="14.153395">
                <ele>138.567261</ele>
                <time>2006-03-25T08:45:38Z</time>
            </trkpt>
            <trkpt lon="101.380570" lat="14.153395">
                <ele>139.047852</ele>
                <time>2006-03-25T08:45:40Z</time>
            </trkpt>
            <trkpt lon="101.380570" lat="14.153395">
                <ele>139.047852</ele>
                <time>2006-03-25T08:45:40Z</time>
            </trkpt>
            <trkpt lon="101.380742" lat="14.153373">
                <ele>137.605835</ele>
                <time>2006-03-25T08:45:46Z</time>
            </trkpt>
            <trkpt lon="101.380742" lat="14.153373">
                <ele>137.605835</ele>
                <time>2006-03-25T08:45:46Z</time>
            </trkpt>
            <trkpt lon="101.380785" lat="14.153438">
                <ele>134.241211</ele>
                <time>2006-03-25T08:46:06Z</time>
            </trkpt>
            <trkpt lon="101.380785" lat="14.153438">
                <ele>134.241211</ele>
                <time>2006-03-25T08:46:06Z</time>
            </trkpt>
            <trkpt lon="101.380870" lat="14.153459">
                <ele>127.511963</ele>
                <time>2006-03-25T08:47:43Z</time>
            </trkpt>
            <trkpt lon="101.380870" lat="14.153459">
                <ele>127.511963</ele>
                <time>2006-03-25T08:47:43Z</time>
            </trkpt>
            <trkpt lon="101.381321" lat="14.153438">
                <ele>128.473389</ele>
                <time>2006-03-25T08:47:58Z</time>
            </trkpt>
            <trkpt lon="101.381321" lat="14.153438">
                <ele>128.473389</ele>
                <time>2006-03-25T08:47:58Z</time>
            </trkpt>
            <trkpt lon="101.382523" lat="14.153223">
                <ele>129.915283</ele>
                <time>2006-03-25T08:48:27Z</time>
            </trkpt>
            <trkpt lon="101.382523" lat="14.153223">
                <ele>129.915283</ele>
                <time>2006-03-25T08:48:27Z</time>
            </trkpt>
            <trkpt lon="101.384668" lat="14.152815">
                <ele>130.395996</ele>
                <time>2006-03-25T08:49:19Z</time>
            </trkpt>
            <trkpt lon="101.384668" lat="14.152815">
                <ele>130.395996</ele>
                <time>2006-03-25T08:49:19Z</time>
            </trkpt>
            <trkpt lon="101.386943" lat="14.152944">
                <ele>130.876709</ele>
                <time>2006-03-25T08:49:53Z</time>
            </trkpt>
            <trkpt lon="101.386943" lat="14.152944">
                <ele>130.876709</ele>
                <time>2006-03-25T08:49:53Z</time>
            </trkpt>
            <trkpt lon="101.387651" lat="14.152837">
                <ele>128.954102</ele>
                <time>2006-03-25T08:50:17Z</time>
            </trkpt>
            <trkpt lon="101.387651" lat="14.152837">
                <ele>128.954102</ele>
                <time>2006-03-25T08:50:17Z</time>
            </trkpt>
            <trkpt lon="101.387780" lat="14.153008">
                <ele>125.589355</ele>
                <time>2006-03-25T08:50:23Z</time>
            </trkpt>
            <trkpt lon="101.387780" lat="14.153008">
                <ele>125.589355</ele>
                <time>2006-03-25T08:50:23Z</time>
            </trkpt>
            <trkpt lon="101.387844" lat="14.153588">
                <ele>117.898804</ele>
                <time>2006-03-25T08:50:37Z</time>
            </trkpt>
            <trkpt lon="101.387844" lat="14.153588">
                <ele>117.898804</ele>
                <time>2006-03-25T08:50:37Z</time>
            </trkpt>
            <trkpt lon="101.388080" lat="14.154425">
                <ele>118.379395</ele>
                <time>2006-03-25T08:50:59Z</time>
            </trkpt>
            <trkpt lon="101.388080" lat="14.154425">
                <ele>118.379395</ele>
                <time>2006-03-25T08:50:59Z</time>
            </trkpt>
            <trkpt lon="101.388080" lat="14.154468">
                <ele>118.379395</ele>
                <time>2006-03-25T08:51:00Z</time>
            </trkpt>
            <trkpt lon="101.388080" lat="14.154468">
                <ele>118.379395</ele>
                <time>2006-03-25T08:51:00Z</time>
            </trkpt>
            <trkpt lon="101.388466" lat="14.154768">
                <ele>118.379395</ele>
                <time>2006-03-25T08:51:09Z</time>
            </trkpt>
            <trkpt lon="101.388466" lat="14.154768">
                <ele>118.379395</ele>
                <time>2006-03-25T08:51:09Z</time>
            </trkpt>
            <trkpt lon="101.390247" lat="14.155025">
                <ele>118.379395</ele>
                <time>2006-03-25T08:51:58Z</time>
            </trkpt>
            <trkpt lon="101.390247" lat="14.155025">
                <ele>118.379395</ele>
                <time>2006-03-25T08:51:58Z</time>
            </trkpt>
            <trkpt lon="101.390290" lat="14.155240">
                <ele>118.379395</ele>
                <time>2006-03-25T08:52:03Z</time>
            </trkpt>
            <trkpt lon="101.390290" lat="14.155240">
                <ele>118.379395</ele>
                <time>2006-03-25T08:52:03Z</time>
            </trkpt>
            <trkpt lon="101.390290" lat="14.155755">
                <ele>118.379395</ele>
                <time>2006-03-25T08:52:14Z</time>
            </trkpt>
            <trkpt lon="101.390290" lat="14.155755">
                <ele>118.379395</ele>
                <time>2006-03-25T08:52:14Z</time>
            </trkpt>
            <trkpt lon="101.390119" lat="14.156485">
                <ele>111.169556</ele>
                <time>2006-03-25T08:52:31Z</time>
            </trkpt>
            <trkpt lon="101.390119" lat="14.156485">
                <ele>111.169556</ele>
                <time>2006-03-25T08:52:31Z</time>
            </trkpt>
            <trkpt lon="101.390140" lat="14.156506">
                <ele>122.224731</ele>
                <time>2006-03-25T08:52:54Z</time>
            </trkpt>
            <trkpt lon="101.390140" lat="14.156506">
                <ele>122.224731</ele>
                <time>2006-03-25T08:52:54Z</time>
            </trkpt>
            <trkpt lon="101.390140" lat="14.156592">
                <ele>124.628052</ele>
                <time>2006-03-25T08:53:24Z</time>
            </trkpt>
            <trkpt lon="101.390140" lat="14.156592">
                <ele>124.628052</ele>
                <time>2006-03-25T08:53:24Z</time>
            </trkpt>
            <trkpt lon="101.390162" lat="14.156635">
                <ele>124.628052</ele>
                <time>2006-03-25T08:53:28Z</time>
            </trkpt>
            <trkpt lon="101.390162" lat="14.156635">
                <ele>124.628052</ele>
                <time>2006-03-25T08:53:28Z</time>
            </trkpt>
            <trkpt lon="101.390419" lat="14.157064">
                <ele>124.628052</ele>
                <time>2006-03-25T08:54:00Z</time>
            </trkpt>
            <trkpt lon="101.390419" lat="14.157064">
                <ele>124.628052</ele>
                <time>2006-03-25T08:54:00Z</time>
            </trkpt>
            <trkpt lon="101.390762" lat="14.157493">
                <ele>124.628052</ele>
                <time>2006-03-25T08:54:40Z</time>
            </trkpt>
            <trkpt lon="101.390762" lat="14.157493">
                <ele>124.628052</ele>
                <time>2006-03-25T08:54:40Z</time>
            </trkpt>
            <trkpt lon="101.393015" lat="14.157128">
                <ele>72.716919</ele>
                <time>2006-03-25T08:58:53Z</time>
            </trkpt>
            <trkpt lon="101.393015" lat="14.157128">
                <ele>72.716919</ele>
                <time>2006-03-25T08:58:53Z</time>
            </trkpt>
            <trkpt lon="101.393123" lat="14.157150">
                <ele>72.236206</ele>
                <time>2006-03-25T08:59:10Z</time>
            </trkpt>
            <trkpt lon="101.393123" lat="14.157150">
                <ele>72.236206</ele>
                <time>2006-03-25T08:59:10Z</time>
            </trkpt>
            <trkpt lon="101.393209" lat="14.157150">
                <ele>72.236206</ele>
                <time>2006-03-25T08:59:25Z</time>
            </trkpt>
            <trkpt lon="101.393209" lat="14.157150">
                <ele>72.236206</ele>
                <time>2006-03-25T08:59:25Z</time>
            </trkpt>
            <trkpt lon="101.393359" lat="14.157236">
                <ele>90.981934</ele>
                <time>2006-03-25T08:59:28Z</time>
            </trkpt>
            <trkpt lon="101.393359" lat="14.157236">
                <ele>90.981934</ele>
                <time>2006-03-25T08:59:28Z</time>
            </trkpt>
            <trkpt lon="101.394110" lat="14.157236">
                <ele>64.065063</ele>
                <time>2006-03-25T08:59:52Z</time>
            </trkpt>
            <trkpt lon="101.394110" lat="14.157236">
                <ele>64.065063</ele>
                <time>2006-03-25T08:59:52Z</time>
            </trkpt>
            <trkpt lon="101.394432" lat="14.157515">
                <ele>65.507080</ele>
                <time>2006-03-25T09:00:13Z</time>
            </trkpt>
            <trkpt lon="101.394432" lat="14.157515">
                <ele>65.507080</ele>
                <time>2006-03-25T09:00:13Z</time>
            </trkpt>
            <trkpt lon="101.394689" lat="14.157407">
                <ele>70.313477</ele>
                <time>2006-03-25T09:00:29Z</time>
            </trkpt>
            <trkpt lon="101.394689" lat="14.157407">
                <ele>70.313477</ele>
                <time>2006-03-25T09:00:29Z</time>
            </trkpt>
            <trkpt lon="101.395097" lat="14.157236">
                <ele>72.236206</ele>
                <time>2006-03-25T09:00:49Z</time>
            </trkpt>
            <trkpt lon="101.395097" lat="14.157236">
                <ele>72.236206</ele>
                <time>2006-03-25T09:00:49Z</time>
            </trkpt>
            <trkpt lon="101.395590" lat="14.157364">
                <ele>72.236206</ele>
                <time>2006-03-25T09:01:04Z</time>
            </trkpt>
            <trkpt lon="101.395590" lat="14.157364">
                <ele>72.236206</ele>
                <time>2006-03-25T09:01:04Z</time>
            </trkpt>
            <trkpt lon="101.396062" lat="14.157279">
                <ele>73.678223</ele>
                <time>2006-03-25T09:01:16Z</time>
            </trkpt>
            <trkpt lon="101.396062" lat="14.157279">
                <ele>73.678223</ele>
                <time>2006-03-25T09:01:16Z</time>
            </trkpt>
            <trkpt lon="101.396577" lat="14.157150">
                <ele>74.158813</ele>
                <time>2006-03-25T09:01:34Z</time>
            </trkpt>
            <trkpt lon="101.396577" lat="14.157150">
                <ele>74.158813</ele>
                <time>2006-03-25T09:01:34Z</time>
            </trkpt>
            <trkpt lon="101.396878" lat="14.157171">
                <ele>72.716919</ele>
                <time>2006-03-25T09:01:45Z</time>
            </trkpt>
            <trkpt lon="101.396878" lat="14.157171">
                <ele>72.716919</ele>
                <time>2006-03-25T09:01:45Z</time>
            </trkpt>
            <trkpt lon="101.397028" lat="14.157515">
                <ele>67.910278</ele>
                <time>2006-03-25T09:01:59Z</time>
            </trkpt>
            <trkpt lon="101.397028" lat="14.157515">
                <ele>67.910278</ele>
                <time>2006-03-25T09:01:59Z</time>
            </trkpt>
            <trkpt lon="101.397114" lat="14.158030">
                <ele>72.236206</ele>
                <time>2006-03-25T09:02:22Z</time>
            </trkpt>
            <trkpt lon="101.397114" lat="14.158030">
                <ele>72.236206</ele>
                <time>2006-03-25T09:02:22Z</time>
            </trkpt>
            <trkpt lon="101.397350" lat="14.158351">
                <ele>74.158813</ele>
                <time>2006-03-25T09:02:46Z</time>
            </trkpt>
            <trkpt lon="101.397350" lat="14.158351">
                <ele>74.158813</ele>
                <time>2006-03-25T09:02:46Z</time>
            </trkpt>
            <trkpt lon="101.397607" lat="14.158609">
                <ele>74.158813</ele>
                <time>2006-03-25T09:03:04Z</time>
            </trkpt>
            <trkpt lon="101.397607" lat="14.158609">
                <ele>74.158813</ele>
                <time>2006-03-25T09:03:04Z</time>
            </trkpt>
            <trkpt lon="101.397758" lat="14.158866">
                <ele>76.081421</ele>
                <time>2006-03-25T09:03:21Z</time>
            </trkpt>
            <trkpt lon="101.397758" lat="14.158866">
                <ele>76.081421</ele>
                <time>2006-03-25T09:03:21Z</time>
            </trkpt>
            <trkpt lon="101.397736" lat="14.159489">
                <ele>79.446045</ele>
                <time>2006-03-25T09:03:47Z</time>
            </trkpt>
            <trkpt lon="101.397736" lat="14.159489">
                <ele>79.446045</ele>
                <time>2006-03-25T09:03:47Z</time>
            </trkpt>
            <trkpt lon="101.398015" lat="14.159639">
                <ele>81.368774</ele>
                <time>2006-03-25T09:04:04Z</time>
            </trkpt>
            <trkpt lon="101.398015" lat="14.159639">
                <ele>81.368774</ele>
                <time>2006-03-25T09:04:04Z</time>
            </trkpt>
            <trkpt lon="101.398401" lat="14.159982">
                <ele>80.888184</ele>
                <time>2006-03-25T09:04:23Z</time>
            </trkpt>
            <trkpt lon="101.398401" lat="14.159982">
                <ele>80.888184</ele>
                <time>2006-03-25T09:04:23Z</time>
            </trkpt>
            <trkpt lon="101.398680" lat="14.160540">
                <ele>82.810791</ele>
                <time>2006-03-25T09:04:43Z</time>
            </trkpt>
            <trkpt lon="101.398680" lat="14.160540">
                <ele>82.810791</ele>
                <time>2006-03-25T09:04:43Z</time>
            </trkpt>
            <trkpt lon="101.398787" lat="14.160862">
                <ele>84.252686</ele>
                <time>2006-03-25T09:04:54Z</time>
            </trkpt>
            <trkpt lon="101.398787" lat="14.160862">
                <ele>84.252686</ele>
                <time>2006-03-25T09:04:54Z</time>
            </trkpt>
            <trkpt lon="101.398959" lat="14.160819">
                <ele>85.213989</ele>
                <time>2006-03-25T09:04:59Z</time>
            </trkpt>
            <trkpt lon="101.398959" lat="14.160819">
                <ele>85.213989</ele>
                <time>2006-03-25T09:04:59Z</time>
            </trkpt>
            <trkpt lon="101.399345" lat="14.160283">
                <ele>83.771973</ele>
                <time>2006-03-25T09:05:15Z</time>
            </trkpt>
            <trkpt lon="101.399345" lat="14.160283">
                <ele>83.771973</ele>
                <time>2006-03-25T09:05:15Z</time>
            </trkpt>
            <trkpt lon="101.399410" lat="14.160197">
                <ele>81.849365</ele>
                <time>2006-03-25T09:05:17Z</time>
            </trkpt>
            <trkpt lon="101.399410" lat="14.160197">
                <ele>81.849365</ele>
                <time>2006-03-25T09:05:17Z</time>
            </trkpt>
            <trkpt lon="101.399539" lat="14.160068">
                <ele>79.926636</ele>
                <time>2006-03-25T09:05:21Z</time>
            </trkpt>
            <trkpt lon="101.399539" lat="14.160068">
                <ele>79.926636</ele>
                <time>2006-03-25T09:05:21Z</time>
            </trkpt>
            <trkpt lon="101.400247" lat="14.159682">
                <ele>77.042847</ele>
                <time>2006-03-25T09:05:38Z</time>
            </trkpt>
            <trkpt lon="101.400247" lat="14.159682">
                <ele>77.042847</ele>
                <time>2006-03-25T09:05:38Z</time>
            </trkpt>
            <trkpt lon="101.401298" lat="14.159296">
                <ele>76.562134</ele>
                <time>2006-03-25T09:06:05Z</time>
            </trkpt>
            <trkpt lon="101.401298" lat="14.159296">
                <ele>76.562134</ele>
                <time>2006-03-25T09:06:05Z</time>
            </trkpt>
            <trkpt lon="101.401577" lat="14.158480">
                <ele>76.562134</ele>
                <time>2006-03-25T09:06:34Z</time>
            </trkpt>
            <trkpt lon="101.401577" lat="14.158480">
                <ele>76.562134</ele>
                <time>2006-03-25T09:06:34Z</time>
            </trkpt>
            <trkpt lon="101.401813" lat="14.158201">
                <ele>72.236206</ele>
                <time>2006-03-25T09:06:45Z</time>
            </trkpt>
            <trkpt lon="101.401813" lat="14.158201">
                <ele>72.236206</ele>
                <time>2006-03-25T09:06:45Z</time>
            </trkpt>
            <trkpt lon="101.402221" lat="14.158008">
                <ele>79.446045</ele>
                <time>2006-03-25T09:06:59Z</time>
            </trkpt>
            <trkpt lon="101.402221" lat="14.158008">
                <ele>79.446045</ele>
                <time>2006-03-25T09:06:59Z</time>
            </trkpt>
            <trkpt lon="101.403079" lat="14.157665">
                <ele>74.158813</ele>
                <time>2006-03-25T09:07:29Z</time>
            </trkpt>
            <trkpt lon="101.403079" lat="14.157665">
                <ele>74.158813</ele>
                <time>2006-03-25T09:07:29Z</time>
            </trkpt>
            <trkpt lon="101.403594" lat="14.157257">
                <ele>73.197632</ele>
                <time>2006-03-25T09:07:50Z</time>
            </trkpt>
            <trkpt lon="101.403594" lat="14.157257">
                <ele>73.197632</ele>
                <time>2006-03-25T09:07:50Z</time>
            </trkpt>
            <trkpt lon="101.403744" lat="14.157600">
                <ele>73.197632</ele>
                <time>2006-03-25T09:08:03Z</time>
            </trkpt>
            <trkpt lon="101.403744" lat="14.157600">
                <ele>73.197632</ele>
                <time>2006-03-25T09:08:03Z</time>
            </trkpt>
            <trkpt lon="101.404002" lat="14.158502">
                <ele>77.523438</ele>
                <time>2006-03-25T09:08:30Z</time>
            </trkpt>
            <trkpt lon="101.404002" lat="14.158502">
                <ele>77.523438</ele>
                <time>2006-03-25T09:08:30Z</time>
            </trkpt>
            <trkpt lon="101.404066" lat="14.159725">
                <ele>78.484741</ele>
                <time>2006-03-25T09:09:05Z</time>
            </trkpt>
            <trkpt lon="101.404066" lat="14.159725">
                <ele>78.484741</ele>
                <time>2006-03-25T09:09:05Z</time>
            </trkpt>
            <trkpt lon="101.404238" lat="14.160497">
                <ele>79.446045</ele>
                <time>2006-03-25T09:09:29Z</time>
            </trkpt>
            <trkpt lon="101.404238" lat="14.160497">
                <ele>79.446045</ele>
                <time>2006-03-25T09:09:29Z</time>
            </trkpt>
            <trkpt lon="101.404409" lat="14.160948">
                <ele>79.926636</ele>
                <time>2006-03-25T09:09:43Z</time>
            </trkpt>
            <trkpt lon="101.404409" lat="14.160948">
                <ele>79.926636</ele>
                <time>2006-03-25T09:09:43Z</time>
            </trkpt>
            <trkpt lon="101.404474" lat="14.160948">
                <ele>79.926636</ele>
                <time>2006-03-25T09:09:45Z</time>
            </trkpt>
            <trkpt lon="101.404474" lat="14.160948">
                <ele>79.926636</ele>
                <time>2006-03-25T09:09:45Z</time>
            </trkpt>
            <trkpt lon="101.404667" lat="14.160926">
                <ele>79.926636</ele>
                <time>2006-03-25T09:09:50Z</time>
            </trkpt>
            <trkpt lon="101.404667" lat="14.160926">
                <ele>79.926636</ele>
                <time>2006-03-25T09:09:50Z</time>
            </trkpt>
            <trkpt lon="101.404753" lat="14.160926">
                <ele>79.926636</ele>
                <time>2006-03-25T09:09:52Z</time>
            </trkpt>
            <trkpt lon="101.404753" lat="14.160926">
                <ele>79.926636</ele>
                <time>2006-03-25T09:09:52Z</time>
            </trkpt>
            <trkpt lon="101.405418" lat="14.161034">
                <ele>76.562134</ele>
                <time>2006-03-25T09:10:09Z</time>
            </trkpt>
            <trkpt lon="101.405418" lat="14.161034">
                <ele>76.562134</ele>
                <time>2006-03-25T09:10:09Z</time>
            </trkpt>
            <trkpt lon="101.405482" lat="14.160905">
                <ele>76.081421</ele>
                <time>2006-03-25T09:10:22Z</time>
            </trkpt>
            <trkpt lon="101.405482" lat="14.160905">
                <ele>76.081421</ele>
                <time>2006-03-25T09:10:22Z</time>
            </trkpt>
            <trkpt lon="101.405504" lat="14.160798">
                <ele>76.081421</ele>
                <time>2006-03-25T09:10:31Z</time>
            </trkpt>
            <trkpt lon="101.405504" lat="14.160798">
                <ele>76.081421</ele>
                <time>2006-03-25T09:10:31Z</time>
            </trkpt>
            <trkpt lon="101.405933" lat="14.160368">
                <ele>75.120239</ele>
                <time>2006-03-25T09:10:56Z</time>
            </trkpt>
            <trkpt lon="101.405933" lat="14.160368">
                <ele>75.120239</ele>
                <time>2006-03-25T09:10:56Z</time>
            </trkpt>
            <trkpt lon="101.406147" lat="14.160175">
                <ele>75.120239</ele>
                <time>2006-03-25T09:11:06Z</time>
            </trkpt>
            <trkpt lon="101.406147" lat="14.160175">
                <ele>75.120239</ele>
                <time>2006-03-25T09:11:06Z</time>
            </trkpt>
            <trkpt lon="101.406276" lat="14.160240">
                <ele>74.158813</ele>
                <time>2006-03-25T09:11:18Z</time>
            </trkpt>
            <trkpt lon="101.406276" lat="14.160240">
                <ele>74.158813</ele>
                <time>2006-03-25T09:11:18Z</time>
            </trkpt>
            <trkpt lon="101.406426" lat="14.160368">
                <ele>72.716919</ele>
                <time>2006-03-25T09:12:00Z</time>
            </trkpt>
            <trkpt lon="101.406426" lat="14.160368">
                <ele>72.716919</ele>
                <time>2006-03-25T09:12:00Z</time>
            </trkpt>
            <trkpt lon="101.406512" lat="14.160411">
                <ele>65.987671</ele>
                <time>2006-03-25T09:12:45Z</time>
            </trkpt>
            <trkpt lon="101.406512" lat="14.160411">
                <ele>65.987671</ele>
                <time>2006-03-25T09:12:45Z</time>
            </trkpt>
            <trkpt lon="101.406577" lat="14.160540">
                <ele>67.429688</ele>
                <time>2006-03-25T09:13:22Z</time>
            </trkpt>
            <trkpt lon="101.406577" lat="14.160540">
                <ele>67.429688</ele>
                <time>2006-03-25T09:13:22Z</time>
            </trkpt>
            <trkpt lon="101.406727" lat="14.160497">
                <ele>67.429688</ele>
                <time>2006-03-25T09:13:42Z</time>
            </trkpt>
            <trkpt lon="101.406727" lat="14.160497">
                <ele>67.429688</ele>
                <time>2006-03-25T09:13:42Z</time>
            </trkpt>
            <trkpt lon="101.406856" lat="14.160497">
                <ele>67.429688</ele>
                <time>2006-03-25T09:14:03Z</time>
            </trkpt>
            <trkpt lon="101.406856" lat="14.160497">
                <ele>67.429688</ele>
                <time>2006-03-25T09:14:03Z</time>
            </trkpt>
            <trkpt lon="101.406920" lat="14.160476">
                <ele>67.429688</ele>
                <time>2006-03-25T09:14:25Z</time>
            </trkpt>
            <trkpt lon="101.406920" lat="14.160476">
                <ele>67.429688</ele>
                <time>2006-03-25T09:14:25Z</time>
            </trkpt>
            <trkpt lon="101.407070" lat="14.159961">
                <ele>66.948975</ele>
                <time>2006-03-25T09:15:02Z</time>
            </trkpt>
            <trkpt lon="101.407070" lat="14.159961">
                <ele>66.948975</ele>
                <time>2006-03-25T09:15:02Z</time>
            </trkpt>
            <trkpt lon="101.407070" lat="14.158995">
                <ele>66.468262</ele>
                <time>2006-03-25T09:15:42Z</time>
            </trkpt>
            <trkpt lon="101.407070" lat="14.158995">
                <ele>66.468262</ele>
                <time>2006-03-25T09:15:42Z</time>
            </trkpt>
            <trkpt lon="101.407328" lat="14.158545">
                <ele>65.987671</ele>
                <time>2006-03-25T09:16:16Z</time>
            </trkpt>
            <trkpt lon="101.407328" lat="14.158545">
                <ele>65.987671</ele>
                <time>2006-03-25T09:16:16Z</time>
            </trkpt>
            <trkpt lon="101.407714" lat="14.158309">
                <ele>65.987671</ele>
                <time>2006-03-25T09:16:38Z</time>
            </trkpt>
            <trkpt lon="101.407714" lat="14.158309">
                <ele>65.987671</ele>
                <time>2006-03-25T09:16:38Z</time>
            </trkpt>
            <trkpt lon="101.407757" lat="14.158351">
                <ele>65.987671</ele>
                <time>2006-03-25T09:16:40Z</time>
            </trkpt>
            <trkpt lon="101.407757" lat="14.158351">
                <ele>65.987671</ele>
                <time>2006-03-25T09:16:40Z</time>
            </trkpt>
            <trkpt lon="101.407886" lat="14.158823">
                <ele>65.987671</ele>
                <time>2006-03-25T09:16:58Z</time>
            </trkpt>
            <trkpt lon="101.407886" lat="14.158823">
                <ele>65.987671</ele>
                <time>2006-03-25T09:16:58Z</time>
            </trkpt>
            <trkpt lon="101.408293" lat="14.159832">
                <ele>67.910278</ele>
                <time>2006-03-25T09:17:45Z</time>
            </trkpt>
            <trkpt lon="101.408293" lat="14.159832">
                <ele>67.910278</ele>
                <time>2006-03-25T09:17:45Z</time>
            </trkpt>
            <trkpt lon="101.408615" lat="14.160261">
                <ele>68.871582</ele>
                <time>2006-03-25T09:18:09Z</time>
            </trkpt>
            <trkpt lon="101.408615" lat="14.160261">
                <ele>68.871582</ele>
                <time>2006-03-25T09:18:09Z</time>
            </trkpt>
            <trkpt lon="101.409194" lat="14.160454">
                <ele>67.910278</ele>
                <time>2006-03-25T09:18:30Z</time>
            </trkpt>
            <trkpt lon="101.409194" lat="14.160454">
                <ele>67.910278</ele>
                <time>2006-03-25T09:18:30Z</time>
            </trkpt>
            <trkpt lon="101.409581" lat="14.160626">
                <ele>66.948975</ele>
                <time>2006-03-25T09:18:45Z</time>
            </trkpt>
            <trkpt lon="101.409581" lat="14.160626">
                <ele>66.948975</ele>
                <time>2006-03-25T09:18:45Z</time>
            </trkpt>
            <trkpt lon="101.409731" lat="14.160604">
                <ele>66.468262</ele>
                <time>2006-03-25T09:18:49Z</time>
            </trkpt>
            <trkpt lon="101.409731" lat="14.160604">
                <ele>66.468262</ele>
                <time>2006-03-25T09:18:49Z</time>
            </trkpt>
            <trkpt lon="101.410031" lat="14.160411">
                <ele>65.987671</ele>
                <time>2006-03-25T09:19:02Z</time>
            </trkpt>
            <trkpt lon="101.410031" lat="14.160411">
                <ele>65.987671</ele>
                <time>2006-03-25T09:19:02Z</time>
            </trkpt>
            <trkpt lon="101.410589" lat="14.159875">
                <ele>63.103638</ele>
                <time>2006-03-25T09:19:34Z</time>
            </trkpt>
            <trkpt lon="101.410589" lat="14.159875">
                <ele>63.103638</ele>
                <time>2006-03-25T09:19:34Z</time>
            </trkpt>
            <trkpt lon="101.412327" lat="14.159575">
                <ele>62.142334</ele>
                <time>2006-03-25T09:20:35Z</time>
            </trkpt>
            <trkpt lon="101.412327" lat="14.159575">
                <ele>62.142334</ele>
                <time>2006-03-25T09:20:35Z</time>
            </trkpt>
            <trkpt lon="101.412756" lat="14.159575">
                <ele>60.700317</ele>
                <time>2006-03-25T09:20:54Z</time>
            </trkpt>
            <trkpt lon="101.412756" lat="14.159575">
                <ele>60.700317</ele>
                <time>2006-03-25T09:20:54Z</time>
            </trkpt>
            <trkpt lon="101.412756" lat="14.159575">
                <ele>60.700317</ele>
                <time>2006-03-25T09:20:56Z</time>
            </trkpt>
            <trkpt lon="101.412756" lat="14.159575">
                <ele>60.700317</ele>
                <time>2006-03-25T09:20:56Z</time>
            </trkpt>
            <trkpt lon="101.412799" lat="14.159961">
                <ele>60.700317</ele>
                <time>2006-03-25T09:21:15Z</time>
            </trkpt>
            <trkpt lon="101.412799" lat="14.159961">
                <ele>60.700317</ele>
                <time>2006-03-25T09:21:15Z</time>
            </trkpt>
            <trkpt lon="101.413336" lat="14.160476">
                <ele>60.700317</ele>
                <time>2006-03-25T09:21:40Z</time>
            </trkpt>
            <trkpt lon="101.413336" lat="14.160476">
                <ele>60.700317</ele>
                <time>2006-03-25T09:21:40Z</time>
            </trkpt>
            <trkpt lon="101.413336" lat="14.160476">
                <ele>60.700317</ele>
                <time>2006-03-25T09:21:41Z</time>
            </trkpt>
            <trkpt lon="101.413336" lat="14.160476">
                <ele>60.700317</ele>
                <time>2006-03-25T09:21:41Z</time>
            </trkpt>
            <trkpt lon="101.413314" lat="14.160454">
                <ele>60.700317</ele>
                <time>2006-03-25T09:21:44Z</time>
            </trkpt>
            <trkpt lon="101.413314" lat="14.160454">
                <ele>60.700317</ele>
                <time>2006-03-25T09:21:44Z</time>
            </trkpt>
            <trkpt lon="101.413486" lat="14.160712">
                <ele>45.799927</ele>
                <time>2006-03-25T09:22:00Z</time>
            </trkpt>
            <trkpt lon="101.413486" lat="14.160712">
                <ele>45.799927</ele>
                <time>2006-03-25T09:22:00Z</time>
            </trkpt>
            <trkpt lon="101.413550" lat="14.160712">
                <ele>45.319214</ele>
                <time>2006-03-25T09:22:20Z</time>
            </trkpt>
            <trkpt lon="101.413550" lat="14.160712">
                <ele>45.319214</ele>
                <time>2006-03-25T09:22:20Z</time>
            </trkpt>
            <trkpt lon="101.413572" lat="14.160669">
                <ele>43.396606</ele>
                <time>2006-03-25T09:24:49Z</time>
            </trkpt>
            <trkpt lon="101.413572" lat="14.160669">
                <ele>43.396606</ele>
                <time>2006-03-25T09:24:49Z</time>
            </trkpt>
            <trkpt lon="101.413829" lat="14.160733">
                <ele>45.319214</ele>
                <time>2006-03-25T09:25:19Z</time>
            </trkpt>
            <trkpt lon="101.413829" lat="14.160733">
                <ele>45.319214</ele>
                <time>2006-03-25T09:25:19Z</time>
            </trkpt>
            <trkpt lon="101.414366" lat="14.160755">
                <ele>44.838623</ele>
                <time>2006-03-25T09:25:43Z</time>
            </trkpt>
            <trkpt lon="101.414366" lat="14.160755">
                <ele>44.838623</ele>
                <time>2006-03-25T09:25:43Z</time>
            </trkpt>
            <trkpt lon="101.414473" lat="14.160841">
                <ele>47.241821</ele>
                <time>2006-03-25T09:25:55Z</time>
            </trkpt>
            <trkpt lon="101.414473" lat="14.160841">
                <ele>47.241821</ele>
                <time>2006-03-25T09:25:55Z</time>
            </trkpt>
            <trkpt lon="101.414602" lat="14.160948">
                <ele>49.164551</ele>
                <time>2006-03-25T09:26:10Z</time>
            </trkpt>
            <trkpt lon="101.414602" lat="14.160948">
                <ele>49.164551</ele>
                <time>2006-03-25T09:26:10Z</time>
            </trkpt>
            <trkpt lon="101.414602" lat="14.160969">
                <ele>49.164551</ele>
                <time>2006-03-25T09:26:11Z</time>
            </trkpt>
            <trkpt lon="101.414602" lat="14.160969">
                <ele>49.164551</ele>
                <time>2006-03-25T09:26:11Z</time>
            </trkpt>
            <trkpt lon="101.414623" lat="14.160991">
                <ele>49.164551</ele>
                <time>2006-03-25T09:26:14Z</time>
            </trkpt>
            <trkpt lon="101.414623" lat="14.160991">
                <ele>49.164551</ele>
                <time>2006-03-25T09:26:14Z</time>
            </trkpt>
            <trkpt lon="101.414645" lat="14.161055">
                <ele>54.451782</ele>
                <time>2006-03-25T09:26:32Z</time>
            </trkpt>
            <trkpt lon="101.414645" lat="14.161055">
                <ele>54.451782</ele>
                <time>2006-03-25T09:26:32Z</time>
            </trkpt>
            <trkpt lon="101.414709" lat="14.161077">
                <ele>56.374512</ele>
                <time>2006-03-25T09:27:09Z</time>
            </trkpt>
            <trkpt lon="101.414709" lat="14.161077">
                <ele>56.374512</ele>
                <time>2006-03-25T09:27:09Z</time>
            </trkpt>
            <trkpt lon="101.414838" lat="14.161077">
                <ele>53.971191</ele>
                <time>2006-03-25T09:27:23Z</time>
            </trkpt>
            <trkpt lon="101.414838" lat="14.161077">
                <ele>53.971191</ele>
                <time>2006-03-25T09:27:23Z</time>
            </trkpt>
            <trkpt lon="101.414924" lat="14.161055">
                <ele>53.971191</ele>
                <time>2006-03-25T09:27:31Z</time>
            </trkpt>
            <trkpt lon="101.414924" lat="14.161055">
                <ele>53.971191</ele>
                <time>2006-03-25T09:27:31Z</time>
            </trkpt>
            <trkpt lon="101.415009" lat="14.161119">
                <ele>54.451782</ele>
                <time>2006-03-25T09:27:45Z</time>
            </trkpt>
            <trkpt lon="101.415009" lat="14.161119">
                <ele>54.451782</ele>
                <time>2006-03-25T09:27:45Z</time>
            </trkpt>
            <trkpt lon="101.415203" lat="14.161184">
                <ele>52.048584</ele>
                <time>2006-03-25T09:28:01Z</time>
            </trkpt>
            <trkpt lon="101.415203" lat="14.161184">
                <ele>52.048584</ele>
                <time>2006-03-25T09:28:01Z</time>
            </trkpt>
            <trkpt lon="101.415460" lat="14.161077">
                <ele>49.164551</ele>
                <time>2006-03-25T09:28:17Z</time>
            </trkpt>
            <trkpt lon="101.415460" lat="14.161077">
                <ele>49.164551</ele>
                <time>2006-03-25T09:28:17Z</time>
            </trkpt>
            <trkpt lon="101.415524" lat="14.161055">
                <ele>48.203369</ele>
                <time>2006-03-25T09:28:23Z</time>
            </trkpt>
            <trkpt lon="101.415524" lat="14.161055">
                <ele>48.203369</ele>
                <time>2006-03-25T09:28:23Z</time>
            </trkpt>
            <trkpt lon="101.415803" lat="14.160755">
                <ele>45.319214</ele>
                <time>2006-03-25T09:28:43Z</time>
            </trkpt>
            <trkpt lon="101.415803" lat="14.160755">
                <ele>45.319214</ele>
                <time>2006-03-25T09:28:43Z</time>
            </trkpt>
            <trkpt lon="101.416039" lat="14.160540">
                <ele>44.838623</ele>
                <time>2006-03-25T09:29:00Z</time>
            </trkpt>
            <trkpt lon="101.416039" lat="14.160540">
                <ele>44.838623</ele>
                <time>2006-03-25T09:29:00Z</time>
            </trkpt>
            <trkpt lon="101.416233" lat="14.160368">
                <ele>43.877319</ele>
                <time>2006-03-25T09:29:10Z</time>
            </trkpt>
            <trkpt lon="101.416233" lat="14.160368">
                <ele>43.877319</ele>
                <time>2006-03-25T09:29:10Z</time>
            </trkpt>
            <trkpt lon="101.416276" lat="14.160368">
                <ele>41.954712</ele>
                <time>2006-03-25T09:29:26Z</time>
            </trkpt>
            <trkpt lon="101.416276" lat="14.160368">
                <ele>41.954712</ele>
                <time>2006-03-25T09:29:26Z</time>
            </trkpt>
            <trkpt lon="101.416297" lat="14.160390">
                <ele>37.628662</ele>
                <time>2006-03-25T09:29:59Z</time>
            </trkpt>
            <trkpt lon="101.416297" lat="14.160390">
                <ele>37.628662</ele>
                <time>2006-03-25T09:29:59Z</time>
            </trkpt>
            <trkpt lon="101.416597" lat="14.160604">
                <ele>36.667480</ele>
                <time>2006-03-25T09:30:13Z</time>
            </trkpt>
            <trkpt lon="101.416597" lat="14.160604">
                <ele>36.667480</ele>
                <time>2006-03-25T09:30:13Z</time>
            </trkpt>
            <trkpt lon="101.417220" lat="14.161162">
                <ele>36.667480</ele>
                <time>2006-03-25T09:30:33Z</time>
            </trkpt>
            <trkpt lon="101.417220" lat="14.161162">
                <ele>36.667480</ele>
                <time>2006-03-25T09:30:33Z</time>
            </trkpt>
            <trkpt lon="101.417284" lat="14.161227">
                <ele>36.667480</ele>
                <time>2006-03-25T09:30:35Z</time>
            </trkpt>
            <trkpt lon="101.417284" lat="14.161227">
                <ele>36.667480</ele>
                <time>2006-03-25T09:30:35Z</time>
            </trkpt>
            <trkpt lon="101.417735" lat="14.161892">
                <ele>36.667480</ele>
                <time>2006-03-25T09:30:52Z</time>
            </trkpt>
            <trkpt lon="101.417735" lat="14.161892">
                <ele>36.667480</ele>
                <time>2006-03-25T09:30:52Z</time>
            </trkpt>
            <trkpt lon="101.418035" lat="14.162321">
                <ele>36.186768</ele>
                <time>2006-03-25T09:31:07Z</time>
            </trkpt>
            <trkpt lon="101.418035" lat="14.162321">
                <ele>36.186768</ele>
                <time>2006-03-25T09:31:07Z</time>
            </trkpt>
            <trkpt lon="101.418507" lat="14.163008">
                <ele>33.302856</ele>
                <time>2006-03-25T09:31:23Z</time>
            </trkpt>
            <trkpt lon="101.418507" lat="14.163008">
                <ele>33.302856</ele>
                <time>2006-03-25T09:31:23Z</time>
            </trkpt>
            <trkpt lon="101.418550" lat="14.163115">
                <ele>31.860718</ele>
                <time>2006-03-25T09:31:25Z</time>
            </trkpt>
            <trkpt lon="101.418550" lat="14.163115">
                <ele>31.860718</ele>
                <time>2006-03-25T09:31:25Z</time>
            </trkpt>
            <trkpt lon="101.418507" lat="14.163845">
                <ele>29.457520</ele>
                <time>2006-03-25T09:31:41Z</time>
            </trkpt>
            <trkpt lon="101.418507" lat="14.163845">
                <ele>29.457520</ele>
                <time>2006-03-25T09:31:41Z</time>
            </trkpt>
            <trkpt lon="101.418464" lat="14.164724">
                <ele>26.573608</ele>
                <time>2006-03-25T09:31:59Z</time>
            </trkpt>
            <trkpt lon="101.418464" lat="14.164724">
                <ele>26.573608</ele>
                <time>2006-03-25T09:31:59Z</time>
            </trkpt>
            <trkpt lon="101.418378" lat="14.165797">
                <ele>25.612305</ele>
                <time>2006-03-25T09:32:16Z</time>
            </trkpt>
            <trkpt lon="101.418378" lat="14.165797">
                <ele>25.612305</ele>
                <time>2006-03-25T09:32:16Z</time>
            </trkpt>
            <trkpt lon="101.418271" lat="14.166999">
                <ele>24.651001</ele>
                <time>2006-03-25T09:32:35Z</time>
            </trkpt>
            <trkpt lon="101.418271" lat="14.166999">
                <ele>24.651001</ele>
                <time>2006-03-25T09:32:35Z</time>
            </trkpt>
            <trkpt lon="101.418056" lat="14.168050">
                <ele>24.170288</ele>
                <time>2006-03-25T09:32:53Z</time>
            </trkpt>
            <trkpt lon="101.418056" lat="14.168050">
                <ele>24.170288</ele>
                <time>2006-03-25T09:32:53Z</time>
            </trkpt>
            <trkpt lon="101.417992" lat="14.168265">
                <ele>24.170288</ele>
                <time>2006-03-25T09:32:57Z</time>
            </trkpt>
            <trkpt lon="101.417992" lat="14.168265">
                <ele>24.170288</ele>
                <time>2006-03-25T09:32:57Z</time>
            </trkpt>
            <trkpt lon="101.417842" lat="14.169745">
                <ele>22.728271</ele>
                <time>2006-03-25T09:33:23Z</time>
            </trkpt>
            <trkpt lon="101.417842" lat="14.169745">
                <ele>22.728271</ele>
                <time>2006-03-25T09:33:23Z</time>
            </trkpt>
            <trkpt lon="101.417692" lat="14.170904">
                <ele>23.208984</ele>
                <time>2006-03-25T09:33:45Z</time>
            </trkpt>
            <trkpt lon="101.417692" lat="14.170904">
                <ele>23.208984</ele>
                <time>2006-03-25T09:33:45Z</time>
            </trkpt>
            <trkpt lon="101.417177" lat="14.171762">
                <ele>21.766968</ele>
                <time>2006-03-25T09:34:04Z</time>
            </trkpt>
            <trkpt lon="101.417177" lat="14.171762">
                <ele>21.766968</ele>
                <time>2006-03-25T09:34:04Z</time>
            </trkpt>
            <trkpt lon="101.416383" lat="14.172256">
                <ele>24.651001</ele>
                <time>2006-03-25T09:34:21Z</time>
            </trkpt>
            <trkpt lon="101.416383" lat="14.172256">
                <ele>24.651001</ele>
                <time>2006-03-25T09:34:21Z</time>
            </trkpt>
            <trkpt lon="101.415524" lat="14.172728">
                <ele>25.612305</ele>
                <time>2006-03-25T09:34:39Z</time>
            </trkpt>
            <trkpt lon="101.415524" lat="14.172728">
                <ele>25.612305</ele>
                <time>2006-03-25T09:34:39Z</time>
            </trkpt>
            <trkpt lon="101.414323" lat="14.173243">
                <ele>26.573608</ele>
                <time>2006-03-25T09:35:02Z</time>
            </trkpt>
            <trkpt lon="101.414323" lat="14.173243">
                <ele>26.573608</ele>
                <time>2006-03-25T09:35:02Z</time>
            </trkpt>
            <trkpt lon="101.413615" lat="14.173672">
                <ele>26.092896</ele>
                <time>2006-03-25T09:35:17Z</time>
            </trkpt>
            <trkpt lon="101.413615" lat="14.173672">
                <ele>26.092896</ele>
                <time>2006-03-25T09:35:17Z</time>
            </trkpt>
            <trkpt lon="101.412735" lat="14.174531">
                <ele>27.534912</ele>
                <time>2006-03-25T09:35:38Z</time>
            </trkpt>
            <trkpt lon="101.412735" lat="14.174531">
                <ele>27.534912</ele>
                <time>2006-03-25T09:35:38Z</time>
            </trkpt>
            <trkpt lon="101.411963" lat="14.175324">
                <ele>25.612305</ele>
                <time>2006-03-25T09:35:58Z</time>
            </trkpt>
            <trkpt lon="101.411963" lat="14.175324">
                <ele>25.612305</ele>
                <time>2006-03-25T09:35:58Z</time>
            </trkpt>
            <trkpt lon="101.411490" lat="14.175818">
                <ele>27.534912</ele>
                <time>2006-03-25T09:36:11Z</time>
            </trkpt>
            <trkpt lon="101.411490" lat="14.175818">
                <ele>27.534912</ele>
                <time>2006-03-25T09:36:11Z</time>
            </trkpt>
            <trkpt lon="101.411083" lat="14.176590">
                <ele>25.131714</ele>
                <time>2006-03-25T09:36:26Z</time>
            </trkpt>
            <trkpt lon="101.411083" lat="14.176590">
                <ele>25.131714</ele>
                <time>2006-03-25T09:36:26Z</time>
            </trkpt>
            <trkpt lon="101.411018" lat="14.177620">
                <ele>24.170288</ele>
                <time>2006-03-25T09:36:45Z</time>
            </trkpt>
            <trkpt lon="101.411018" lat="14.177620">
                <ele>24.170288</ele>
                <time>2006-03-25T09:36:45Z</time>
            </trkpt>
            <trkpt lon="101.411083" lat="14.178050">
                <ele>25.131714</ele>
                <time>2006-03-25T09:36:59Z</time>
            </trkpt>
            <trkpt lon="101.411083" lat="14.178050">
                <ele>25.131714</ele>
                <time>2006-03-25T09:36:59Z</time>
            </trkpt>
            <trkpt lon="101.411147" lat="14.178329">
                <ele>24.651001</ele>
                <time>2006-03-25T09:37:14Z</time>
            </trkpt>
            <trkpt lon="101.411147" lat="14.178329">
                <ele>24.651001</ele>
                <time>2006-03-25T09:37:14Z</time>
            </trkpt>
            <trkpt lon="101.411276" lat="14.178886">
                <ele>25.131714</ele>
                <time>2006-03-25T09:37:28Z</time>
            </trkpt>
            <trkpt lon="101.411276" lat="14.178886">
                <ele>25.131714</ele>
                <time>2006-03-25T09:37:28Z</time>
            </trkpt>
            <trkpt lon="101.411211" lat="14.179702">
                <ele>26.573608</ele>
                <time>2006-03-25T09:37:48Z</time>
            </trkpt>
            <trkpt lon="101.411211" lat="14.179702">
                <ele>26.573608</ele>
                <time>2006-03-25T09:37:48Z</time>
            </trkpt>
            <trkpt lon="101.411383" lat="14.180517">
                <ele>26.573608</ele>
                <time>2006-03-25T09:38:05Z</time>
            </trkpt>
            <trkpt lon="101.411383" lat="14.180517">
                <ele>26.573608</ele>
                <time>2006-03-25T09:38:05Z</time>
            </trkpt>
            <trkpt lon="101.411490" lat="14.180710">
                <ele>27.054321</ele>
                <time>2006-03-25T09:38:10Z</time>
            </trkpt>
            <trkpt lon="101.411490" lat="14.180710">
                <ele>27.054321</ele>
                <time>2006-03-25T09:38:10Z</time>
            </trkpt>
            <trkpt lon="101.411383" lat="14.180775">
                <ele>28.976929</ele>
                <time>2006-03-25T09:38:14Z</time>
            </trkpt>
            <trkpt lon="101.411383" lat="14.180775">
                <ele>28.976929</ele>
                <time>2006-03-25T09:38:14Z</time>
            </trkpt>
            <trkpt lon="101.410568" lat="14.180989">
                <ele>29.938110</ele>
                <time>2006-03-25T09:38:31Z</time>
            </trkpt>
            <trkpt lon="101.410568" lat="14.180989">
                <ele>29.938110</ele>
                <time>2006-03-25T09:38:31Z</time>
            </trkpt>
            <trkpt lon="101.410418" lat="14.181032">
                <ele>28.976929</ele>
                <time>2006-03-25T09:38:34Z</time>
            </trkpt>
            <trkpt lon="101.410418" lat="14.181032">
                <ele>28.976929</ele>
                <time>2006-03-25T09:38:34Z</time>
            </trkpt>
            <trkpt lon="101.410246" lat="14.181054">
                <ele>29.938110</ele>
                <time>2006-03-25T09:38:43Z</time>
            </trkpt>
            <trkpt lon="101.410246" lat="14.181054">
                <ele>29.938110</ele>
                <time>2006-03-25T09:38:43Z</time>
            </trkpt>
            <trkpt lon="101.410246" lat="14.181054">
                <ele>29.938110</ele>
                <time>2006-03-25T09:38:44Z</time>
            </trkpt>
            <trkpt lon="101.410246" lat="14.181054">
                <ele>29.938110</ele>
                <time>2006-03-25T09:38:44Z</time>
            </trkpt>
            <trkpt lon="101.410353" lat="14.181054">
                <ele>29.938110</ele>
                <time>2006-03-25T09:38:49Z</time>
            </trkpt>
            <trkpt lon="101.410353" lat="14.181054">
                <ele>29.938110</ele>
                <time>2006-03-25T09:38:49Z</time>
            </trkpt>
            <trkpt lon="101.410997" lat="14.180839">
                <ele>29.938110</ele>
                <time>2006-03-25T09:39:06Z</time>
            </trkpt>
            <trkpt lon="101.410997" lat="14.180839">
                <ele>29.938110</ele>
                <time>2006-03-25T09:39:06Z</time>
            </trkpt>
            <trkpt lon="101.411448" lat="14.180732">
                <ele>29.938110</ele>
                <time>2006-03-25T09:39:16Z</time>
            </trkpt>
            <trkpt lon="101.411448" lat="14.180732">
                <ele>29.938110</ele>
                <time>2006-03-25T09:39:16Z</time>
            </trkpt>
            <trkpt lon="101.411598" lat="14.180839">
                <ele>29.938110</ele>
                <time>2006-03-25T09:39:21Z</time>
            </trkpt>
            <trkpt lon="101.411598" lat="14.180839">
                <ele>29.938110</ele>
                <time>2006-03-25T09:39:21Z</time>
            </trkpt>
            <trkpt lon="101.412005" lat="14.181762">
                <ele>28.976929</ele>
                <time>2006-03-25T09:39:41Z</time>
            </trkpt>
            <trkpt lon="101.412005" lat="14.181762">
                <ele>28.976929</ele>
                <time>2006-03-25T09:39:41Z</time>
            </trkpt>
            <trkpt lon="101.412199" lat="14.182663">
                <ele>29.457520</ele>
                <time>2006-03-25T09:39:58Z</time>
            </trkpt>
            <trkpt lon="101.412199" lat="14.182663">
                <ele>29.457520</ele>
                <time>2006-03-25T09:39:58Z</time>
            </trkpt>
            <trkpt lon="101.412349" lat="14.184015">
                <ele>28.496216</ele>
                <time>2006-03-25T09:40:22Z</time>
            </trkpt>
            <trkpt lon="101.412349" lat="14.184015">
                <ele>28.496216</ele>
                <time>2006-03-25T09:40:22Z</time>
            </trkpt>
            <trkpt lon="101.412349" lat="14.185131">
                <ele>28.976929</ele>
                <time>2006-03-25T09:40:43Z</time>
            </trkpt>
            <trkpt lon="101.412349" lat="14.185131">
                <ele>28.976929</ele>
                <time>2006-03-25T09:40:43Z</time>
            </trkpt>
            <trkpt lon="101.412199" lat="14.186590">
                <ele>29.457520</ele>
                <time>2006-03-25T09:41:09Z</time>
            </trkpt>
            <trkpt lon="101.412199" lat="14.186590">
                <ele>29.457520</ele>
                <time>2006-03-25T09:41:09Z</time>
            </trkpt>
            <trkpt lon="101.412113" lat="14.187212">
                <ele>28.976929</ele>
                <time>2006-03-25T09:41:23Z</time>
            </trkpt>
            <trkpt lon="101.412113" lat="14.187212">
                <ele>28.976929</ele>
                <time>2006-03-25T09:41:23Z</time>
            </trkpt>
            <trkpt lon="101.411791" lat="14.187834">
                <ele>31.380127</ele>
                <time>2006-03-25T09:41:39Z</time>
            </trkpt>
            <trkpt lon="101.411791" lat="14.187834">
                <ele>31.380127</ele>
                <time>2006-03-25T09:41:39Z</time>
            </trkpt>
            <trkpt lon="101.411598" lat="14.188027">
                <ele>30.899536</ele>
                <time>2006-03-25T09:41:44Z</time>
            </trkpt>
            <trkpt lon="101.411598" lat="14.188027">
                <ele>30.899536</ele>
                <time>2006-03-25T09:41:44Z</time>
            </trkpt>
            <trkpt lon="101.411512" lat="14.188113">
                <ele>31.380127</ele>
                <time>2006-03-25T09:41:46Z</time>
            </trkpt>
            <trkpt lon="101.411512" lat="14.188113">
                <ele>31.380127</ele>
                <time>2006-03-25T09:41:46Z</time>
            </trkpt>
            <trkpt lon="101.410868" lat="14.188671">
                <ele>31.860718</ele>
                <time>2006-03-25T09:42:01Z</time>
            </trkpt>
            <trkpt lon="101.410868" lat="14.188671">
                <ele>31.860718</ele>
                <time>2006-03-25T09:42:01Z</time>
            </trkpt>
            <trkpt lon="101.410031" lat="14.189465">
                <ele>28.015503</ele>
                <time>2006-03-25T09:42:21Z</time>
            </trkpt>
            <trkpt lon="101.410031" lat="14.189465">
                <ele>28.015503</ele>
                <time>2006-03-25T09:42:21Z</time>
            </trkpt>
            <trkpt lon="101.409817" lat="14.190431">
                <ele>27.054321</ele>
                <time>2006-03-25T09:42:38Z</time>
            </trkpt>
            <trkpt lon="101.409817" lat="14.190431">
                <ele>27.054321</ele>
                <time>2006-03-25T09:42:38Z</time>
            </trkpt>
            <trkpt lon="101.409774" lat="14.190753">
                <ele>27.534912</ele>
                <time>2006-03-25T09:42:47Z</time>
            </trkpt>
            <trkpt lon="101.409774" lat="14.190753">
                <ele>27.534912</ele>
                <time>2006-03-25T09:42:47Z</time>
            </trkpt>
            <trkpt lon="101.409752" lat="14.190753">
                <ele>27.534912</ele>
                <time>2006-03-25T09:42:49Z</time>
            </trkpt>
            <trkpt lon="101.409752" lat="14.190753">
                <ele>27.534912</ele>
                <time>2006-03-25T09:42:49Z</time>
            </trkpt>
            <trkpt lon="101.409709" lat="14.190710">
                <ele>27.534912</ele>
                <time>2006-03-25T09:42:53Z</time>
            </trkpt>
            <trkpt lon="101.409709" lat="14.190710">
                <ele>27.534912</ele>
                <time>2006-03-25T09:42:53Z</time>
            </trkpt>
            <trkpt lon="101.409688" lat="14.190688">
                <ele>27.534912</ele>
                <time>2006-03-25T09:42:55Z</time>
            </trkpt>
            <trkpt lon="101.409688" lat="14.190688">
                <ele>27.534912</ele>
                <time>2006-03-25T09:42:55Z</time>
            </trkpt>
            <trkpt lon="101.409645" lat="14.190624">
                <ele>27.054321</ele>
                <time>2006-03-25T09:42:59Z</time>
            </trkpt>
            <trkpt lon="101.409645" lat="14.190624">
                <ele>27.054321</ele>
                <time>2006-03-25T09:42:59Z</time>
            </trkpt>
            <trkpt lon="101.409645" lat="14.190474">
                <ele>27.534912</ele>
                <time>2006-03-25T09:43:04Z</time>
            </trkpt>
            <trkpt lon="101.409645" lat="14.190474">
                <ele>27.534912</ele>
                <time>2006-03-25T09:43:04Z</time>
            </trkpt>
            <trkpt lon="101.409109" lat="14.190474">
                <ele>26.573608</ele>
                <time>2006-03-25T09:43:18Z</time>
            </trkpt>
            <trkpt lon="101.409109" lat="14.190474">
                <ele>26.573608</ele>
                <time>2006-03-25T09:43:18Z</time>
            </trkpt>
            <trkpt lon="101.408787" lat="14.190474">
                <ele>27.054321</ele>
                <time>2006-03-25T09:43:26Z</time>
            </trkpt>
            <trkpt lon="101.408787" lat="14.190474">
                <ele>27.054321</ele>
                <time>2006-03-25T09:43:26Z</time>
            </trkpt>
            <trkpt lon="101.408036" lat="14.190538">
                <ele>28.015503</ele>
                <time>2006-03-25T09:43:44Z</time>
            </trkpt>
            <trkpt lon="101.408036" lat="14.190538">
                <ele>28.015503</ele>
                <time>2006-03-25T09:43:44Z</time>
            </trkpt>
            <trkpt lon="101.408036" lat="14.190516">
                <ele>28.976929</ele>
                <time>2006-03-25T09:43:51Z</time>
            </trkpt>
            <trkpt lon="101.408036" lat="14.190516">
                <ele>28.976929</ele>
                <time>2006-03-25T09:43:51Z</time>
            </trkpt>
            <trkpt lon="101.408014" lat="14.190495">
                <ele>28.976929</ele>
                <time>2006-03-25T09:43:54Z</time>
            </trkpt>
            <trkpt lon="101.408014" lat="14.190495">
                <ele>28.976929</ele>
                <time>2006-03-25T09:43:54Z</time>
            </trkpt>
            <trkpt lon="101.407864" lat="14.190280">
                <ele>28.496216</ele>
                <time>2006-03-25T09:44:05Z</time>
            </trkpt>
            <trkpt lon="101.407864" lat="14.190280">
                <ele>28.496216</ele>
                <time>2006-03-25T09:44:05Z</time>
            </trkpt>
            <trkpt lon="101.407800" lat="14.190216">
                <ele>28.496216</ele>
                <time>2006-03-25T09:44:10Z</time>
            </trkpt>
            <trkpt lon="101.407800" lat="14.190216">
                <ele>28.496216</ele>
                <time>2006-03-25T09:44:10Z</time>
            </trkpt>
            <trkpt lon="101.407671" lat="14.190216">
                <ele>28.015503</ele>
                <time>2006-03-25T09:44:16Z</time>
            </trkpt>
            <trkpt lon="101.407671" lat="14.190216">
                <ele>28.015503</ele>
                <time>2006-03-25T09:44:16Z</time>
            </trkpt>
            <trkpt lon="101.407499" lat="14.190023">
                <ele>28.015503</ele>
                <time>2006-03-25T09:44:30Z</time>
            </trkpt>
            <trkpt lon="101.407499" lat="14.190023">
                <ele>28.015503</ele>
                <time>2006-03-25T09:44:30Z</time>
            </trkpt>
            <trkpt lon="101.407263" lat="14.189830">
                <ele>27.534912</ele>
                <time>2006-03-25T09:44:45Z</time>
            </trkpt>
            <trkpt lon="101.407263" lat="14.189830">
                <ele>27.534912</ele>
                <time>2006-03-25T09:44:45Z</time>
            </trkpt>
            <trkpt lon="101.406984" lat="14.189701">
                <ele>28.496216</ele>
                <time>2006-03-25T09:44:59Z</time>
            </trkpt>
            <trkpt lon="101.406984" lat="14.189701">
                <ele>28.496216</ele>
                <time>2006-03-25T09:44:59Z</time>
            </trkpt>
            <trkpt lon="101.406877" lat="14.189658">
                <ele>28.976929</ele>
                <time>2006-03-25T09:45:05Z</time>
            </trkpt>
            <trkpt lon="101.406877" lat="14.189658">
                <ele>28.976929</ele>
                <time>2006-03-25T09:45:05Z</time>
            </trkpt>
            <trkpt lon="101.406856" lat="14.189658">
                <ele>28.976929</ele>
                <time>2006-03-25T09:45:21Z</time>
            </trkpt>
            <trkpt lon="101.406856" lat="14.189658">
                <ele>28.976929</ele>
                <time>2006-03-25T09:45:21Z</time>
            </trkpt>
            <trkpt lon="101.406856" lat="14.189680">
                <ele>30.418823</ele>
                <time>2006-03-25T09:46:00Z</time>
            </trkpt>
            <trkpt lon="101.406856" lat="14.189680">
                <ele>30.418823</ele>
                <time>2006-03-25T09:46:00Z</time>
            </trkpt>
            <trkpt lon="101.406834" lat="14.189680">
                <ele>30.418823</ele>
                <time>2006-03-25T09:46:02Z</time>
            </trkpt>
            <trkpt lon="101.406834" lat="14.189680">
                <ele>30.418823</ele>
                <time>2006-03-25T09:46:02Z</time>
            </trkpt>
            <trkpt lon="101.406598" lat="14.190044">
                <ele>30.418823</ele>
                <time>2006-03-25T09:46:26Z</time>
            </trkpt>
            <trkpt lon="101.406598" lat="14.190044">
                <ele>30.418823</ele>
                <time>2006-03-25T09:46:26Z</time>
            </trkpt>
            <trkpt lon="101.406276" lat="14.190345">
                <ele>31.380127</ele>
                <time>2006-03-25T09:46:49Z</time>
            </trkpt>
            <trkpt lon="101.406276" lat="14.190345">
                <ele>31.380127</ele>
                <time>2006-03-25T09:46:49Z</time>
            </trkpt>
            <trkpt lon="101.405654" lat="14.190624">
                <ele>30.899536</ele>
                <time>2006-03-25T09:47:27Z</time>
            </trkpt>
            <trkpt lon="101.405654" lat="14.190624">
                <ele>30.899536</ele>
                <time>2006-03-25T09:47:27Z</time>
            </trkpt>
            <trkpt lon="101.404967" lat="14.190602">
                <ele>31.380127</ele>
                <time>2006-03-25T09:47:46Z</time>
            </trkpt>
            <trkpt lon="101.404967" lat="14.190602">
                <ele>31.380127</ele>
                <time>2006-03-25T09:47:46Z</time>
            </trkpt>
            <trkpt lon="101.404688" lat="14.190538">
                <ele>31.380127</ele>
                <time>2006-03-25T09:47:53Z</time>
            </trkpt>
            <trkpt lon="101.404688" lat="14.190538">
                <ele>31.380127</ele>
                <time>2006-03-25T09:47:53Z</time>
            </trkpt>
            <trkpt lon="101.404388" lat="14.190602">
                <ele>29.938110</ele>
                <time>2006-03-25T09:48:00Z</time>
            </trkpt>
            <trkpt lon="101.404388" lat="14.190602">
                <ele>29.938110</ele>
                <time>2006-03-25T09:48:00Z</time>
            </trkpt>
            <trkpt lon="101.404216" lat="14.190731">
                <ele>28.496216</ele>
                <time>2006-03-25T09:48:05Z</time>
            </trkpt>
            <trkpt lon="101.404216" lat="14.190731">
                <ele>28.496216</ele>
                <time>2006-03-25T09:48:05Z</time>
            </trkpt>
            <trkpt lon="101.403787" lat="14.190903">
                <ele>29.457520</ele>
                <time>2006-03-25T09:48:16Z</time>
            </trkpt>
            <trkpt lon="101.403787" lat="14.190903">
                <ele>29.457520</ele>
                <time>2006-03-25T09:48:16Z</time>
            </trkpt>
            <trkpt lon="101.403379" lat="14.191289">
                <ele>28.496216</ele>
                <time>2006-03-25T09:48:28Z</time>
            </trkpt>
            <trkpt lon="101.403379" lat="14.191289">
                <ele>28.496216</ele>
                <time>2006-03-25T09:48:28Z</time>
            </trkpt>
            <trkpt lon="101.403315" lat="14.191375">
                <ele>28.496216</ele>
                <time>2006-03-25T09:48:30Z</time>
            </trkpt>
            <trkpt lon="101.403315" lat="14.191375">
                <ele>28.496216</ele>
                <time>2006-03-25T09:48:30Z</time>
            </trkpt>
            <trkpt lon="101.402864" lat="14.191482">
                <ele>27.054321</ele>
                <time>2006-03-25T09:48:40Z</time>
            </trkpt>
            <trkpt lon="101.402864" lat="14.191482">
                <ele>27.054321</ele>
                <time>2006-03-25T09:48:40Z</time>
            </trkpt>
            <trkpt lon="101.401856" lat="14.191740">
                <ele>24.651001</ele>
                <time>2006-03-25T09:49:00Z</time>
            </trkpt>
            <trkpt lon="101.401856" lat="14.191740">
                <ele>24.651001</ele>
                <time>2006-03-25T09:49:00Z</time>
            </trkpt>
            <trkpt lon="101.401749" lat="14.191782">
                <ele>25.131714</ele>
                <time>2006-03-25T09:49:02Z</time>
            </trkpt>
            <trkpt lon="101.401749" lat="14.191782">
                <ele>25.131714</ele>
                <time>2006-03-25T09:49:02Z</time>
            </trkpt>
            <trkpt lon="101.401448" lat="14.191868">
                <ele>26.092896</ele>
                <time>2006-03-25T09:49:08Z</time>
            </trkpt>
            <trkpt lon="101.401448" lat="14.191868">
                <ele>26.092896</ele>
                <time>2006-03-25T09:49:08Z</time>
            </trkpt>
            <trkpt lon="101.401191" lat="14.191825">
                <ele>25.612305</ele>
                <time>2006-03-25T09:49:13Z</time>
            </trkpt>
            <trkpt lon="101.401191" lat="14.191825">
                <ele>25.612305</ele>
                <time>2006-03-25T09:49:13Z</time>
            </trkpt>
            <trkpt lon="101.401041" lat="14.191740">
                <ele>25.612305</ele>
                <time>2006-03-25T09:49:16Z</time>
            </trkpt>
            <trkpt lon="101.401041" lat="14.191740">
                <ele>25.612305</ele>
                <time>2006-03-25T09:49:16Z</time>
            </trkpt>
            <trkpt lon="101.400762" lat="14.191675">
                <ele>25.612305</ele>
                <time>2006-03-25T09:49:21Z</time>
            </trkpt>
            <trkpt lon="101.400762" lat="14.191675">
                <ele>25.612305</ele>
                <time>2006-03-25T09:49:21Z</time>
            </trkpt>
            <trkpt lon="101.400654" lat="14.191675">
                <ele>25.612305</ele>
                <time>2006-03-25T09:49:23Z</time>
            </trkpt>
            <trkpt lon="101.400654" lat="14.191675">
                <ele>25.612305</ele>
                <time>2006-03-25T09:49:23Z</time>
            </trkpt>
            <trkpt lon="101.400418" lat="14.191740">
                <ele>24.651001</ele>
                <time>2006-03-25T09:49:29Z</time>
            </trkpt>
            <trkpt lon="101.400418" lat="14.191740">
                <ele>24.651001</ele>
                <time>2006-03-25T09:49:29Z</time>
            </trkpt>
            <trkpt lon="101.400483" lat="14.191890">
                <ele>25.131714</ele>
                <time>2006-03-25T09:49:35Z</time>
            </trkpt>
            <trkpt lon="101.400483" lat="14.191890">
                <ele>25.131714</ele>
                <time>2006-03-25T09:49:35Z</time>
            </trkpt>
            <trkpt lon="101.400611" lat="14.191976">
                <ele>24.651001</ele>
                <time>2006-03-25T09:49:39Z</time>
            </trkpt>
            <trkpt lon="101.400611" lat="14.191976">
                <ele>24.651001</ele>
                <time>2006-03-25T09:49:39Z</time>
            </trkpt>
            <trkpt lon="101.400783" lat="14.192147">
                <ele>25.131714</ele>
                <time>2006-03-25T09:49:44Z</time>
            </trkpt>
            <trkpt lon="101.400783" lat="14.192147">
                <ele>25.131714</ele>
                <time>2006-03-25T09:49:44Z</time>
            </trkpt>
            <trkpt lon="101.401041" lat="14.192920">
                <ele>25.131714</ele>
                <time>2006-03-25T09:50:00Z</time>
            </trkpt>
            <trkpt lon="101.401041" lat="14.192920">
                <ele>25.131714</ele>
                <time>2006-03-25T09:50:00Z</time>
            </trkpt>
            <trkpt lon="101.401491" lat="14.194036">
                <ele>25.131714</ele>
                <time>2006-03-25T09:50:23Z</time>
            </trkpt>
            <trkpt lon="101.401491" lat="14.194036">
                <ele>25.131714</ele>
                <time>2006-03-25T09:50:23Z</time>
            </trkpt>
            <trkpt lon="101.401684" lat="14.194508">
                <ele>26.573608</ele>
                <time>2006-03-25T09:50:38Z</time>
            </trkpt>
            <trkpt lon="101.401684" lat="14.194508">
                <ele>26.573608</ele>
                <time>2006-03-25T09:50:38Z</time>
            </trkpt>
            <trkpt lon="101.401641" lat="14.194465">
                <ele>30.899536</ele>
                <time>2006-03-25T09:50:55Z</time>
            </trkpt>
            <trkpt lon="101.401641" lat="14.194465">
                <ele>30.899536</ele>
                <time>2006-03-25T09:50:55Z</time>
            </trkpt>
            <trkpt lon="101.401899" lat="14.194722">
                <ele>30.418823</ele>
                <time>2006-03-25T09:51:10Z</time>
            </trkpt>
            <trkpt lon="101.401899" lat="14.194722">
                <ele>30.418823</ele>
                <time>2006-03-25T09:51:10Z</time>
            </trkpt>
            <trkpt lon="101.402285" lat="14.195087">
                <ele>30.899536</ele>
                <time>2006-03-25T09:51:25Z</time>
            </trkpt>
            <trkpt lon="101.402285" lat="14.195087">
                <ele>30.899536</ele>
                <time>2006-03-25T09:51:25Z</time>
            </trkpt>
            <trkpt lon="101.402500" lat="14.195731">
                <ele>29.938110</ele>
                <time>2006-03-25T09:51:39Z</time>
            </trkpt>
            <trkpt lon="101.402500" lat="14.195731">
                <ele>29.938110</ele>
                <time>2006-03-25T09:51:39Z</time>
            </trkpt>
            <trkpt lon="101.402671" lat="14.196546">
                <ele>30.418823</ele>
                <time>2006-03-25T09:51:57Z</time>
            </trkpt>
            <trkpt lon="101.402671" lat="14.196546">
                <ele>30.418823</ele>
                <time>2006-03-25T09:51:57Z</time>
            </trkpt>
            <trkpt lon="101.402800" lat="14.197340">
                <ele>29.938110</ele>
                <time>2006-03-25T09:52:15Z</time>
            </trkpt>
            <trkpt lon="101.402800" lat="14.197340">
                <ele>29.938110</ele>
                <time>2006-03-25T09:52:15Z</time>
            </trkpt>
            <trkpt lon="101.402693" lat="14.197447">
                <ele>28.976929</ele>
                <time>2006-03-25T09:52:19Z</time>
            </trkpt>
            <trkpt lon="101.402693" lat="14.197447">
                <ele>28.976929</ele>
                <time>2006-03-25T09:52:19Z</time>
            </trkpt>
            <trkpt lon="101.401792" lat="14.197340">
                <ele>26.092896</ele>
                <time>2006-03-25T09:52:35Z</time>
            </trkpt>
            <trkpt lon="101.401792" lat="14.197340">
                <ele>26.092896</ele>
                <time>2006-03-25T09:52:35Z</time>
            </trkpt>
            <trkpt lon="101.401062" lat="14.197297">
                <ele>24.651001</ele>
                <time>2006-03-25T09:52:47Z</time>
            </trkpt>
            <trkpt lon="101.401062" lat="14.197297">
                <ele>24.651001</ele>
                <time>2006-03-25T09:52:47Z</time>
            </trkpt>
            <trkpt lon="101.400440" lat="14.197147">
                <ele>22.728271</ele>
                <time>2006-03-25T09:52:59Z</time>
            </trkpt>
            <trkpt lon="101.400440" lat="14.197147">
                <ele>22.728271</ele>
                <time>2006-03-25T09:52:59Z</time>
            </trkpt>
            <trkpt lon="101.400225" lat="14.197233">
                <ele>23.208984</ele>
                <time>2006-03-25T09:53:04Z</time>
            </trkpt>
            <trkpt lon="101.400225" lat="14.197233">
                <ele>23.208984</ele>
                <time>2006-03-25T09:53:04Z</time>
            </trkpt>
            <trkpt lon="101.400139" lat="14.197319">
                <ele>23.208984</ele>
                <time>2006-03-25T09:53:07Z</time>
            </trkpt>
            <trkpt lon="101.400139" lat="14.197319">
                <ele>23.208984</ele>
                <time>2006-03-25T09:53:07Z</time>
            </trkpt>
            <trkpt lon="101.399882" lat="14.197512">
                <ele>24.170288</ele>
                <time>2006-03-25T09:53:19Z</time>
            </trkpt>
            <trkpt lon="101.399882" lat="14.197512">
                <ele>24.170288</ele>
                <time>2006-03-25T09:53:19Z</time>
            </trkpt>
            <trkpt lon="101.399860" lat="14.197555">
                <ele>23.689575</ele>
                <time>2006-03-25T09:53:23Z</time>
            </trkpt>
            <trkpt lon="101.399860" lat="14.197555">
                <ele>23.689575</ele>
                <time>2006-03-25T09:53:23Z</time>
            </trkpt>
            <trkpt lon="101.399603" lat="14.197705">
                <ele>23.689575</ele>
                <time>2006-03-25T09:53:38Z</time>
            </trkpt>
            <trkpt lon="101.399603" lat="14.197705">
                <ele>23.689575</ele>
                <time>2006-03-25T09:53:38Z</time>
            </trkpt>
            <trkpt lon="101.399131" lat="14.197791">
                <ele>24.170288</ele>
                <time>2006-03-25T09:53:56Z</time>
            </trkpt>
            <trkpt lon="101.399131" lat="14.197791">
                <ele>24.170288</ele>
                <time>2006-03-25T09:53:56Z</time>
            </trkpt>
            <trkpt lon="101.398809" lat="14.197855">
                <ele>24.170288</ele>
                <time>2006-03-25T09:54:10Z</time>
            </trkpt>
            <trkpt lon="101.398809" lat="14.197855">
                <ele>24.170288</ele>
                <time>2006-03-25T09:54:10Z</time>
            </trkpt>
            <trkpt lon="101.398380" lat="14.197919">
                <ele>23.689575</ele>
                <time>2006-03-25T09:54:25Z</time>
            </trkpt>
            <trkpt lon="101.398380" lat="14.197919">
                <ele>23.689575</ele>
                <time>2006-03-25T09:54:25Z</time>
            </trkpt>
            <trkpt lon="101.398079" lat="14.197984">
                <ele>23.208984</ele>
                <time>2006-03-25T09:54:39Z</time>
            </trkpt>
            <trkpt lon="101.398079" lat="14.197984">
                <ele>23.208984</ele>
                <time>2006-03-25T09:54:39Z</time>
            </trkpt>
            <trkpt lon="101.397715" lat="14.198070">
                <ele>23.689575</ele>
                <time>2006-03-25T09:54:50Z</time>
            </trkpt>
            <trkpt lon="101.397715" lat="14.198070">
                <ele>23.689575</ele>
                <time>2006-03-25T09:54:50Z</time>
            </trkpt>
            <trkpt lon="101.397049" lat="14.198155">
                <ele>23.208984</ele>
                <time>2006-03-25T09:55:06Z</time>
            </trkpt>
            <trkpt lon="101.397049" lat="14.198155">
                <ele>23.208984</ele>
                <time>2006-03-25T09:55:06Z</time>
            </trkpt>
            <trkpt lon="101.396427" lat="14.198263">
                <ele>23.208984</ele>
                <time>2006-03-25T09:55:21Z</time>
            </trkpt>
            <trkpt lon="101.396427" lat="14.198263">
                <ele>23.208984</ele>
                <time>2006-03-25T09:55:21Z</time>
            </trkpt>
            <trkpt lon="101.396363" lat="14.198070">
                <ele>23.689575</ele>
                <time>2006-03-25T09:55:30Z</time>
            </trkpt>
            <trkpt lon="101.396363" lat="14.198070">
                <ele>23.689575</ele>
                <time>2006-03-25T09:55:30Z</time>
            </trkpt>
            <trkpt lon="101.396363" lat="14.198070">
                <ele>24.170288</ele>
                <time>2006-03-25T09:55:35Z</time>
            </trkpt>
            <trkpt lon="101.396363" lat="14.198070">
                <ele>24.170288</ele>
                <time>2006-03-25T09:55:35Z</time>
            </trkpt>
            <trkpt lon="101.396298" lat="14.198070">
                <ele>24.170288</ele>
                <time>2006-03-25T09:55:39Z</time>
            </trkpt>
            <trkpt lon="101.396298" lat="14.198070">
                <ele>24.170288</ele>
                <time>2006-03-25T09:55:39Z</time>
            </trkpt>
            <trkpt lon="101.395783" lat="14.198091">
                <ele>25.131714</ele>
                <time>2006-03-25T09:55:55Z</time>
            </trkpt>
            <trkpt lon="101.395783" lat="14.198091">
                <ele>25.131714</ele>
                <time>2006-03-25T09:55:55Z</time>
            </trkpt>
            <trkpt lon="101.395226" lat="14.198112">
                <ele>25.131714</ele>
                <time>2006-03-25T09:56:12Z</time>
            </trkpt>
            <trkpt lon="101.395226" lat="14.198112">
                <ele>25.131714</ele>
                <time>2006-03-25T09:56:12Z</time>
            </trkpt>
            <trkpt lon="101.394560" lat="14.198155">
                <ele>23.689575</ele>
                <time>2006-03-25T09:56:30Z</time>
            </trkpt>
            <trkpt lon="101.394560" lat="14.198155">
                <ele>23.689575</ele>
                <time>2006-03-25T09:56:30Z</time>
            </trkpt>
            <trkpt lon="101.394002" lat="14.198155">
                <ele>22.728271</ele>
                <time>2006-03-25T09:56:47Z</time>
            </trkpt>
            <trkpt lon="101.394002" lat="14.198155">
                <ele>22.728271</ele>
                <time>2006-03-25T09:56:47Z</time>
            </trkpt>
            <trkpt lon="101.393573" lat="14.198198">
                <ele>22.247559</ele>
                <time>2006-03-25T09:57:01Z</time>
            </trkpt>
            <trkpt lon="101.393573" lat="14.198198">
                <ele>22.247559</ele>
                <time>2006-03-25T09:57:01Z</time>
            </trkpt>
            <trkpt lon="101.393552" lat="14.198220">
                <ele>21.766968</ele>
                <time>2006-03-25T09:57:02Z</time>
            </trkpt>
            <trkpt lon="101.393552" lat="14.198220">
                <ele>21.766968</ele>
                <time>2006-03-25T09:57:02Z</time>
            </trkpt>
            <trkpt lon="101.393509" lat="14.198349">
                <ele>22.728271</ele>
                <time>2006-03-25T09:57:09Z</time>
            </trkpt>
            <trkpt lon="101.393509" lat="14.198349">
                <ele>22.728271</ele>
                <time>2006-03-25T09:57:09Z</time>
            </trkpt>
            <trkpt lon="101.393552" lat="14.198670">
                <ele>23.208984</ele>
                <time>2006-03-25T09:57:19Z</time>
            </trkpt>
            <trkpt lon="101.393552" lat="14.198670">
                <ele>23.208984</ele>
                <time>2006-03-25T09:57:19Z</time>
            </trkpt>
            <trkpt lon="101.393659" lat="14.198756">
                <ele>22.247559</ele>
                <time>2006-03-25T09:57:24Z</time>
            </trkpt>
            <trkpt lon="101.393659" lat="14.198756">
                <ele>22.247559</ele>
                <time>2006-03-25T09:57:24Z</time>
            </trkpt>
            <trkpt lon="101.393616" lat="14.198928">
                <ele>22.728271</ele>
                <time>2006-03-25T09:57:34Z</time>
            </trkpt>
            <trkpt lon="101.393616" lat="14.198928">
                <ele>22.728271</ele>
                <time>2006-03-25T09:57:34Z</time>
            </trkpt>
            <trkpt lon="101.393616" lat="14.198949">
                <ele>21.766968</ele>
                <time>2006-03-25T09:57:42Z</time>
            </trkpt>
            <trkpt lon="101.393616" lat="14.198949">
                <ele>21.766968</ele>
                <time>2006-03-25T09:57:42Z</time>
            </trkpt>
            <trkpt lon="101.393788" lat="14.199271">
                <ele>23.208984</ele>
                <time>2006-03-25T09:57:55Z</time>
            </trkpt>
            <trkpt lon="101.393788" lat="14.199271">
                <ele>23.208984</ele>
                <time>2006-03-25T09:57:55Z</time>
            </trkpt>
            <trkpt lon="101.394067" lat="14.199529">
                <ele>21.766968</ele>
                <time>2006-03-25T09:58:09Z</time>
            </trkpt>
            <trkpt lon="101.394067" lat="14.199529">
                <ele>21.766968</ele>
                <time>2006-03-25T09:58:09Z</time>
            </trkpt>
            <trkpt lon="101.394088" lat="14.199765">
                <ele>21.286377</ele>
                <time>2006-03-25T09:58:30Z</time>
            </trkpt>
            <trkpt lon="101.394088" lat="14.199765">
                <ele>21.286377</ele>
                <time>2006-03-25T09:58:30Z</time>
            </trkpt>
            <trkpt lon="101.394088" lat="14.199765">
                <ele>21.286377</ele>
                <time>2006-03-25T09:58:31Z</time>
            </trkpt>
            <trkpt lon="101.394088" lat="14.199765">
                <ele>21.286377</ele>
                <time>2006-03-25T09:58:31Z</time>
            </trkpt>
            <trkpt lon="101.393530" lat="14.199958">
                <ele>21.286377</ele>
                <time>2006-03-25T09:58:52Z</time>
            </trkpt>
            <trkpt lon="101.393530" lat="14.199958">
                <ele>21.286377</ele>
                <time>2006-03-25T09:58:52Z</time>
            </trkpt>
            <trkpt lon="101.393423" lat="14.199979">
                <ele>21.286377</ele>
                <time>2006-03-25T09:58:55Z</time>
            </trkpt>
            <trkpt lon="101.393423" lat="14.199979">
                <ele>21.286377</ele>
                <time>2006-03-25T09:58:55Z</time>
            </trkpt>
            <trkpt lon="101.393294" lat="14.200430">
                <ele>22.247559</ele>
                <time>2006-03-25T09:59:07Z</time>
            </trkpt>
            <trkpt lon="101.393294" lat="14.200430">
                <ele>22.247559</ele>
                <time>2006-03-25T09:59:07Z</time>
            </trkpt>
            <trkpt lon="101.393294" lat="14.201288">
                <ele>22.728271</ele>
                <time>2006-03-25T09:59:28Z</time>
            </trkpt>
            <trkpt lon="101.393294" lat="14.201288">
                <ele>22.728271</ele>
                <time>2006-03-25T09:59:28Z</time>
            </trkpt>
            <trkpt lon="101.393294" lat="14.201353">
                <ele>23.208984</ele>
                <time>2006-03-25T09:59:30Z</time>
            </trkpt>
            <trkpt lon="101.393294" lat="14.201353">
                <ele>23.208984</ele>
                <time>2006-03-25T09:59:30Z</time>
            </trkpt>
            <trkpt lon="101.393187" lat="14.201396">
                <ele>24.170288</ele>
                <time>2006-03-25T09:59:34Z</time>
            </trkpt>
            <trkpt lon="101.393187" lat="14.201396">
                <ele>24.170288</ele>
                <time>2006-03-25T09:59:34Z</time>
            </trkpt>
            <trkpt lon="101.392951" lat="14.201481">
                <ele>23.689575</ele>
                <time>2006-03-25T09:59:41Z</time>
            </trkpt>
            <trkpt lon="101.392951" lat="14.201481">
                <ele>23.689575</ele>
                <time>2006-03-25T09:59:41Z</time>
            </trkpt>
            <trkpt lon="101.392972" lat="14.202061">
                <ele>25.612305</ele>
                <time>2006-03-25T09:59:58Z</time>
            </trkpt>
            <trkpt lon="101.392972" lat="14.202061">
                <ele>25.612305</ele>
                <time>2006-03-25T09:59:58Z</time>
            </trkpt>
            <trkpt lon="101.393316" lat="14.202318">
                <ele>26.573608</ele>
                <time>2006-03-25T10:00:16Z</time>
            </trkpt>
            <trkpt lon="101.393316" lat="14.202318">
                <ele>26.573608</ele>
                <time>2006-03-25T10:00:16Z</time>
            </trkpt>
            <trkpt lon="101.393552" lat="14.202683">
                <ele>28.015503</ele>
                <time>2006-03-25T10:00:35Z</time>
            </trkpt>
            <trkpt lon="101.393552" lat="14.202683">
                <ele>28.015503</ele>
                <time>2006-03-25T10:00:35Z</time>
            </trkpt>
            <trkpt lon="101.393530" lat="14.203048">
                <ele>27.054321</ele>
                <time>2006-03-25T10:00:45Z</time>
            </trkpt>
            <trkpt lon="101.393530" lat="14.203048">
                <ele>27.054321</ele>
                <time>2006-03-25T10:00:45Z</time>
            </trkpt>
            <trkpt lon="101.393595" lat="14.203091">
                <ele>27.534912</ele>
                <time>2006-03-25T10:00:49Z</time>
            </trkpt>
            <trkpt lon="101.393595" lat="14.203091">
                <ele>27.534912</ele>
                <time>2006-03-25T10:00:49Z</time>
            </trkpt>
            <trkpt lon="101.393874" lat="14.203005">
                <ele>28.976929</ele>
                <time>2006-03-25T10:01:02Z</time>
            </trkpt>
            <trkpt lon="101.393874" lat="14.203005">
                <ele>28.976929</ele>
                <time>2006-03-25T10:01:02Z</time>
            </trkpt>
            <trkpt lon="101.394174" lat="14.202747">
                <ele>30.899536</ele>
                <time>2006-03-25T10:01:19Z</time>
            </trkpt>
            <trkpt lon="101.394174" lat="14.202747">
                <ele>30.899536</ele>
                <time>2006-03-25T10:01:19Z</time>
            </trkpt>
            <trkpt lon="101.394689" lat="14.202726">
                <ele>31.860718</ele>
                <time>2006-03-25T10:01:35Z</time>
            </trkpt>
            <trkpt lon="101.394689" lat="14.202726">
                <ele>31.860718</ele>
                <time>2006-03-25T10:01:35Z</time>
            </trkpt>
            <trkpt lon="101.395183" lat="14.202704">
                <ele>32.822266</ele>
                <time>2006-03-25T10:01:48Z</time>
            </trkpt>
            <trkpt lon="101.395183" lat="14.202704">
                <ele>32.822266</ele>
                <time>2006-03-25T10:01:48Z</time>
            </trkpt>
            <trkpt lon="101.395311" lat="14.202812">
                <ele>33.302856</ele>
                <time>2006-03-25T10:01:52Z</time>
            </trkpt>
            <trkpt lon="101.395311" lat="14.202812">
                <ele>33.302856</ele>
                <time>2006-03-25T10:01:52Z</time>
            </trkpt>
            <trkpt lon="101.395440" lat="14.203477">
                <ele>32.822266</ele>
                <time>2006-03-25T10:02:10Z</time>
            </trkpt>
            <trkpt lon="101.395440" lat="14.203477">
                <ele>32.822266</ele>
                <time>2006-03-25T10:02:10Z</time>
            </trkpt>
            <trkpt lon="101.395719" lat="14.204142">
                <ele>32.341553</ele>
                <time>2006-03-25T10:02:30Z</time>
            </trkpt>
            <trkpt lon="101.395719" lat="14.204142">
                <ele>32.341553</ele>
                <time>2006-03-25T10:02:30Z</time>
            </trkpt>
            <trkpt lon="101.395977" lat="14.204485">
                <ele>31.380127</ele>
                <time>2006-03-25T10:02:40Z</time>
            </trkpt>
            <trkpt lon="101.395977" lat="14.204485">
                <ele>31.380127</ele>
                <time>2006-03-25T10:02:40Z</time>
            </trkpt>
            <trkpt lon="101.396062" lat="14.205408">
                <ele>29.457520</ele>
                <time>2006-03-25T10:02:58Z</time>
            </trkpt>
            <trkpt lon="101.396062" lat="14.205408">
                <ele>29.457520</ele>
                <time>2006-03-25T10:02:58Z</time>
            </trkpt>
            <trkpt lon="101.395762" lat="14.205580">
                <ele>27.534912</ele>
                <time>2006-03-25T10:03:12Z</time>
            </trkpt>
            <trkpt lon="101.395762" lat="14.205580">
                <ele>27.534912</ele>
                <time>2006-03-25T10:03:12Z</time>
            </trkpt>
            <trkpt lon="101.394882" lat="14.205966">
                <ele>24.170288</ele>
                <time>2006-03-25T10:03:29Z</time>
            </trkpt>
            <trkpt lon="101.394882" lat="14.205966">
                <ele>24.170288</ele>
                <time>2006-03-25T10:03:29Z</time>
            </trkpt>
            <trkpt lon="101.394689" lat="14.206095">
                <ele>23.208984</ele>
                <time>2006-03-25T10:03:34Z</time>
            </trkpt>
            <trkpt lon="101.394689" lat="14.206095">
                <ele>23.208984</ele>
                <time>2006-03-25T10:03:34Z</time>
            </trkpt>
            <trkpt lon="101.394775" lat="14.206245">
                <ele>23.208984</ele>
                <time>2006-03-25T10:03:39Z</time>
            </trkpt>
            <trkpt lon="101.394775" lat="14.206245">
                <ele>23.208984</ele>
                <time>2006-03-25T10:03:39Z</time>
            </trkpt>
            <trkpt lon="101.395419" lat="14.206910">
                <ele>25.612305</ele>
                <time>2006-03-25T10:03:59Z</time>
            </trkpt>
            <trkpt lon="101.395419" lat="14.206910">
                <ele>25.612305</ele>
                <time>2006-03-25T10:03:59Z</time>
            </trkpt>
            <trkpt lon="101.395826" lat="14.207339">
                <ele>28.496216</ele>
                <time>2006-03-25T10:04:15Z</time>
            </trkpt>
            <trkpt lon="101.395826" lat="14.207339">
                <ele>28.496216</ele>
                <time>2006-03-25T10:04:15Z</time>
            </trkpt>
            <trkpt lon="101.396341" lat="14.207833">
                <ele>31.860718</ele>
                <time>2006-03-25T10:04:34Z</time>
            </trkpt>
            <trkpt lon="101.396341" lat="14.207833">
                <ele>31.860718</ele>
                <time>2006-03-25T10:04:34Z</time>
            </trkpt>
            <trkpt lon="101.396856" lat="14.208369">
                <ele>35.225464</ele>
                <time>2006-03-25T10:04:53Z</time>
            </trkpt>
            <trkpt lon="101.396856" lat="14.208369">
                <ele>35.225464</ele>
                <time>2006-03-25T10:04:53Z</time>
            </trkpt>
            <trkpt lon="101.397500" lat="14.209013">
                <ele>35.225464</ele>
                <time>2006-03-25T10:05:13Z</time>
            </trkpt>
            <trkpt lon="101.397500" lat="14.209013">
                <ele>35.225464</ele>
                <time>2006-03-25T10:05:13Z</time>
            </trkpt>
            <trkpt lon="101.398315" lat="14.209807">
                <ele>32.341553</ele>
                <time>2006-03-25T10:05:31Z</time>
            </trkpt>
            <trkpt lon="101.398315" lat="14.209807">
                <ele>32.341553</ele>
                <time>2006-03-25T10:05:31Z</time>
            </trkpt>
            <trkpt lon="101.399410" lat="14.210901">
                <ele>34.264160</ele>
                <time>2006-03-25T10:05:53Z</time>
            </trkpt>
            <trkpt lon="101.399410" lat="14.210901">
                <ele>34.264160</ele>
                <time>2006-03-25T10:05:53Z</time>
            </trkpt>
            <trkpt lon="101.400354" lat="14.211867">
                <ele>33.302856</ele>
                <time>2006-03-25T10:06:16Z</time>
            </trkpt>
            <trkpt lon="101.400354" lat="14.211867">
                <ele>33.302856</ele>
                <time>2006-03-25T10:06:16Z</time>
            </trkpt>
            <trkpt lon="101.401234" lat="14.212747">
                <ele>31.860718</ele>
                <time>2006-03-25T10:06:35Z</time>
            </trkpt>
            <trkpt lon="101.401234" lat="14.212747">
                <ele>31.860718</ele>
                <time>2006-03-25T10:06:35Z</time>
            </trkpt>
            <trkpt lon="101.402242" lat="14.213755">
                <ele>31.860718</ele>
                <time>2006-03-25T10:06:56Z</time>
            </trkpt>
            <trkpt lon="101.402242" lat="14.213755">
                <ele>31.860718</ele>
                <time>2006-03-25T10:06:56Z</time>
            </trkpt>
            <trkpt lon="101.403208" lat="14.214764">
                <ele>33.302856</ele>
                <time>2006-03-25T10:07:19Z</time>
            </trkpt>
            <trkpt lon="101.403208" lat="14.214764">
                <ele>33.302856</ele>
                <time>2006-03-25T10:07:19Z</time>
            </trkpt>
            <trkpt lon="101.403852" lat="14.215386">
                <ele>35.225464</ele>
                <time>2006-03-25T10:07:38Z</time>
            </trkpt>
            <trkpt lon="101.403852" lat="14.215386">
                <ele>35.225464</ele>
                <time>2006-03-25T10:07:38Z</time>
            </trkpt>
            <trkpt lon="101.404409" lat="14.215965">
                <ele>35.706055</ele>
                <time>2006-03-25T10:07:59Z</time>
            </trkpt>
            <trkpt lon="101.404409" lat="14.215965">
                <ele>35.706055</ele>
                <time>2006-03-25T10:07:59Z</time>
            </trkpt>
            <trkpt lon="101.405053" lat="14.216866">
                <ele>36.186768</ele>
                <time>2006-03-25T10:08:22Z</time>
            </trkpt>
            <trkpt lon="101.405053" lat="14.216866">
                <ele>36.186768</ele>
                <time>2006-03-25T10:08:22Z</time>
            </trkpt>
            <trkpt lon="101.405525" lat="14.217982">
                <ele>36.667480</ele>
                <time>2006-03-25T10:08:45Z</time>
            </trkpt>
            <trkpt lon="101.405525" lat="14.217982">
                <ele>36.667480</ele>
                <time>2006-03-25T10:08:45Z</time>
            </trkpt>
            <trkpt lon="101.405590" lat="14.218218">
                <ele>36.186768</ele>
                <time>2006-03-25T10:08:50Z</time>
            </trkpt>
            <trkpt lon="101.405590" lat="14.218218">
                <ele>36.186768</ele>
                <time>2006-03-25T10:08:50Z</time>
            </trkpt>
            <trkpt lon="101.405761" lat="14.218304">
                <ele>37.148071</ele>
                <time>2006-03-25T10:08:55Z</time>
            </trkpt>
            <trkpt lon="101.405761" lat="14.218304">
                <ele>37.148071</ele>
                <time>2006-03-25T10:08:55Z</time>
            </trkpt>
            <trkpt lon="101.405911" lat="14.218283">
                <ele>37.628662</ele>
                <time>2006-03-25T10:08:59Z</time>
            </trkpt>
            <trkpt lon="101.405911" lat="14.218283">
                <ele>37.628662</ele>
                <time>2006-03-25T10:08:59Z</time>
            </trkpt>
            <trkpt lon="101.405933" lat="14.217939">
                <ele>37.628662</ele>
                <time>2006-03-25T10:09:08Z</time>
            </trkpt>
            <trkpt lon="101.405933" lat="14.217939">
                <ele>37.628662</ele>
                <time>2006-03-25T10:09:08Z</time>
            </trkpt>
            <trkpt lon="101.405933" lat="14.217832">
                <ele>37.148071</ele>
                <time>2006-03-25T10:09:10Z</time>
            </trkpt>
            <trkpt lon="101.405933" lat="14.217832">
                <ele>37.148071</ele>
                <time>2006-03-25T10:09:10Z</time>
            </trkpt>
            <trkpt lon="101.406169" lat="14.217575">
                <ele>37.148071</ele>
                <time>2006-03-25T10:09:18Z</time>
            </trkpt>
            <trkpt lon="101.406169" lat="14.217575">
                <ele>37.148071</ele>
                <time>2006-03-25T10:09:18Z</time>
            </trkpt>
            <trkpt lon="101.407156" lat="14.217274">
                <ele>37.628662</ele>
                <time>2006-03-25T10:09:41Z</time>
            </trkpt>
            <trkpt lon="101.407156" lat="14.217274">
                <ele>37.628662</ele>
                <time>2006-03-25T10:09:41Z</time>
            </trkpt>
            <trkpt lon="101.407242" lat="14.217253">
                <ele>37.628662</ele>
                <time>2006-03-25T10:09:43Z</time>
            </trkpt>
            <trkpt lon="101.407242" lat="14.217253">
                <ele>37.628662</ele>
                <time>2006-03-25T10:09:43Z</time>
            </trkpt>
            <trkpt lon="101.407285" lat="14.216995">
                <ele>37.628662</ele>
                <time>2006-03-25T10:09:51Z</time>
            </trkpt>
            <trkpt lon="101.407285" lat="14.216995">
                <ele>37.628662</ele>
                <time>2006-03-25T10:09:51Z</time>
            </trkpt>
            <trkpt lon="101.407113" lat="14.216888">
                <ele>36.667480</ele>
                <time>2006-03-25T10:09:55Z</time>
            </trkpt>
            <trkpt lon="101.407113" lat="14.216888">
                <ele>36.667480</ele>
                <time>2006-03-25T10:09:55Z</time>
            </trkpt>
            <trkpt lon="101.406491" lat="14.216781">
                <ele>36.186768</ele>
                <time>2006-03-25T10:10:11Z</time>
            </trkpt>
            <trkpt lon="101.406491" lat="14.216781">
                <ele>36.186768</ele>
                <time>2006-03-25T10:10:11Z</time>
            </trkpt>
            <trkpt lon="101.406448" lat="14.216759">
                <ele>36.186768</ele>
                <time>2006-03-25T10:10:22Z</time>
            </trkpt>
            <trkpt lon="101.406448" lat="14.216759">
                <ele>36.186768</ele>
                <time>2006-03-25T10:10:22Z</time>
            </trkpt>
            <trkpt lon="101.406469" lat="14.216759">
                <ele>36.186768</ele>
                <time>2006-03-25T10:12:32Z</time>
            </trkpt>
            <trkpt lon="101.406469" lat="14.216759">
                <ele>36.186768</ele>
                <time>2006-03-25T10:12:32Z</time>
            </trkpt>
        </trkseg>
    </trk>
</gpx>